     2.11           OBSERVATION DATA    G (GPS)             RINEX VERSION / TYPE
teqc 2010Oct21 OPUS Account 20111027 18:44:31UTC            PGM / RUN BY / DATE
J 1525                                                      MARKER NAME
3025                                                        MARKER NUMBER
CSMIDDLETON NGS                                             OBSERVER / AGENCY
0220390614 TRIMBLE R7 2.32                                  REC # / TYPE / VERS
12611996 TRM41249.00 NONE                                   ANT # / TYPE
  -761583.4045 -5550174.8343  3038885.4152                  APPROX POSITION XYZ
        2.0000        0.0000        0.0000                  ANTENNA: DELTA H/E/N
     1     1                                                WAVELENGTH FACT L1/2
     5    L1    L2    C1    P1    P2                        # / TYPES OF OBSERV
    15                                                      LEAP SECONDS
  2011     8    18     0     0   30.0000000     GPS         TIME OF FIRST OBS
                                                            END OF HEADER
 11  8 18  0  0 30.0000000  0  8G12G10G28G17G05G04G09G02
 -28222297.48857 -21950275.39155  22068915.7734                   22068913.8714
 -45296571.55158 -35177078.42656  20967003.3364                   20967001.9024
-104566218.65256 -81445452.46952  24149584.0864                   24149586.7934
 -91536959.37957 -71285068.59455  22534468.8444                   22534466.5984
 -17592237.44957 -13696180.11755  22913443.7344                   22913443.5234
 -73413240.35558 -57159588.62156  20805555.9924                   20805554.2934
 -41659603.30957 -32042388.54354  22767900.4534                   22767899.3524
 -54884899.73058 -42754018.99656  20588906.5474                   20588902.0554
 11  8 18  0  1  0.0000000  0  8G12G10G28G17G05G04G09G02
 -28404603.71147 -22092332.13745  22034224.2664                   22034221.7464
 -45433438.11348 -35283727.66446  20940958.6484                   20940957.0434
-104566733.61345 -81445854.04342  24149485.9454                   24149489.6914
 -91594265.29747 -71329722.58645  22523563.1884                   22523561.4344
 -17796873.96547 -13855637.03545  22874502.5554                   22874502.4144
 -73449978.05148 -57188215.40646  20798564.8984                   20798563.4964
 -41698083.40247 -32072373.06244  22760578.2584                   22760577.4494
 -55005425.83248 -42847935.43746  20565971.2734                   20565966.5664
 11  8 18  0  1 30.0000000  0  8G12G10G28G17G05G04G09G02
 -27011108.72747 -21006491.85545  22299397.2504                   22299395.0984
 -43994223.55948 -34162261.73846  21214831.7194                   21214829.8524
-102991548.25445 -80218436.97742  24449234.6094                   24449238.0944
 -90075941.52347 -70146613.18745  22812490.9924                   22812488.6054
 -16425860.57047 -12787314.82845  23135397.7734                   23135396.9224
 -71910946.10948 -55988969.77046  21091433.0554                   21091431.0744
 -40160701.25047 -30874412.96544  23053131.9224                   23053131.5474
 -53550097.45348 -41713913.30546  20842910.8284                   20842906.3134
 11  8 18  0  2  0.0000000  0  7G12G10G17G05G04G09G02
 -27192681.45347 -21147977.05145  22264845.4774                   22264843.0354
 -44129794.39848 -34267901.32046  21189033.2894                   21189032.0864
 -90132850.78947 -70190958.12945  22801661.0554                   22801659.8484
 -16630067.33247 -12946436.88345  23096538.3674                   23096537.9264
 -71947008.56648 -56017070.37546  21084570.3204                   21084568.7544
 -40198322.08247 -30903727.93444  23045973.0864                   23045972.6294
 -53669782.63748 -41807174.47746  20820135.5314                   20820131.5164
 11  8 18  0  2 30.0000000  0  7G12G10G17G05G04G09G02
 -27373893.85548 -21289181.46145  22230361.6094                   22230360.0434
 -44264725.04748 -34373042.05546  21163357.1024                   21163355.4574
 -90189570.94547 -70235155.69545  22790867.8984                   22790866.0594
 -16834065.43047 -13105396.33245  23057718.9304                   23057718.9844
 -71982747.46948 -56044918.89846  21077769.5634                   21077768.6334
 -40235528.61347 -30932720.08644  23038892.8204                   23038892.6914
 -53789059.11348 -41900117.18046  20797438.2894                   20797433.8284
 11  8 18  0  3  0.0000000  0  7G12G10G17G05G04G09G02
 -27554735.74247 -21430097.16046  22195948.6564                   22195946.1764
 -44399006.16848 -34477676.66446  21137804.1334                   21137802.4024
 -90246093.78147 -70279199.49645  22780112.0944                   22780109.8054
 -17037844.18447 -13264184.88345  23018941.0234                   23018940.9844
 -72018157.47348 -56072511.12146  21071031.4064                   21071029.4924
 -40272316.20747 -30961385.77044  23031892.3594                   23031892.5824
 -53907919.84448 -41992735.91046  20774819.8914                   20774815.1604
 11  8 18  0  3 30.0000000  0  7G12G10G17G05G04G09G02
 -27735200.10948 -21570718.70345  22161607.6174                   22161605.3164
 -44532631.44948 -34581800.23046  21112376.0004                   21112374.1994
 -90302414.19147 -70323085.53945  22769394.5554                   22769392.8364
 -17241395.78147 -13422796.39845  22980206.4694                   22980206.3244
 -72053236.46148 -56099845.43046  21064356.0864                   21064354.8954
 -40308683.95747 -30989724.32044  23024971.8134                   23024971.0864
 -54026360.99648 -42085027.70746  20752280.6884                   20752276.5704
 11  8 18  0  4  0.0000000  0  7G12G10G17G05G04G09G02
 -27915275.89847 -21711037.46546  22127340.3134                   22127338.1054
 -44665590.58648 -34685404.72746  21087075.0554                   21087073.7074
 -90358523.29747 -70366806.96145  22758718.0314                   22758715.4224
 -17444709.00047 -13581222.18045  22941516.7344                   22941516.3634
 -72087978.19548 -56126916.93746  21057745.1954                   21057743.0864
 -40344626.48847 -31017731.54744  23018131.3914                   23018131.6724
 -54144375.15648 -42176986.77746  20729823.5234                   20729819.0784
 11  8 18  0  4 30.0000000  0  7G12G10G17G05G04G09G02
 -28094963.18747 -21851053.48045  22093146.5554                   22093144.4804
 -44797884.68748 -34788491.01246  21061899.9924                   21061898.5594
 -90414423.00447 -70410365.21545  22748080.3674                   22748079.4104
 -17647783.56647 -13739461.98445  22902873.1334                   22902872.5124
 -72122387.75048 -56153729.59846  21051196.9694                   21051195.6884
 -40380149.77347 -31045412.08644  23011372.6564                   23011372.1094
 -54261965.77348 -42268615.82046  20707446.7114                   20707442.0594
 11  8 18  0  5  0.0000000  0  7G12G10G17G05G04G09G02
 -28274258.69948 -21990764.21545  22059028.2344                   22059025.8284
 -44929511.74248 -34891057.52346  21036852.2344                   21036850.6334
 -90470112.31647 -70453759.51645  22737483.0004                   22737481.7304
 -17850615.88347 -13897513.02045  22864275.1094                   22864275.4734
 -72156466.84848 -56180284.76646  21044712.0084                   21044710.2664
 -40415256.62147 -31072768.14144  23004691.9844                   23004692.1724
 -54379133.06248 -42359914.99646  20685150.6094                   20685146.1134
 11  8 18  0  5 30.0000000  0  7G12G10G17G05G04G09G02
 -28453161.07447 -22130168.63345  22024983.9384                   22024981.6334
 -45060471.18048 -34993103.82046  21011931.5234                   21011929.6724
 -90525591.46947 -70496990.03545  22726925.4614                   22726924.9384
 -18053203.66047 -14055373.50045  22825724.4774                   22825724.0164
 -72190219.03548 -56206585.19146  21038289.0164                   21038287.5314
 -40449951.48847 -31099803.16044  22998089.2194                   22998090.0474
 -54495878.68448 -42450885.59446  20662934.8134                   20662930.3984
 11  8 18  0  6  0.0000000  0  7G12G10G17G05G04G09G02
 -28631673.26647 -22269269.00846  21991014.1724                   21991011.9574
 -45190766.73448 -35094632.78946  20987137.0164                   20987134.9734
 -90580865.30547 -70540060.62945  22716407.7734                   22716406.3594
 -18255550.17247 -14213045.98845  22787218.5084                   22787218.5164
 -72223652.09048 -56232636.95346  21031927.1254                   21031925.3164
 -40484243.18447 -31126524.02044  22991564.1334                   22991563.8554
 -54612209.11348 -42541532.67246  20640797.5554                   20640792.6454
 11  8 18  0  6 30.0000000  0  7G12G10G17G05G04G09G02
 -28809793.48847 -22408063.95746  21957119.0084                   21957117.0904
 -45320397.46548 -35195643.73046  20962468.8674                   20962467.6884
 -90635934.25847 -70582971.52045  22705927.9454                   22705927.4024
 -18457653.03147 -14370528.62545  22748759.7894                   22748759.5744
 -72256769.02748 -56258442.37146  21025625.2424                   21025623.3204
 -40518135.84847 -31152933.94544  22985114.6884                   22985114.7854
 -54728125.94548 -42631857.46946  20618739.4304                   20618735.2584
 11  8 18  0  7  0.0000000  0  7G12G10G17G05G04G09G02
 -28987517.35247 -22546550.04345  21923299.0394                   21923296.7304
 -45449360.38348 -35296134.29746  20937928.4384                   20937926.5784
 -90690796.03547 -70625720.98445  22695488.3594                   22695486.6844
 -18659507.29347 -14527817.54345  22710348.2424                   22710347.5044
 -72289570.39848 -56284001.91046  21019383.5004                   21019382.0274
 -40551630.94547 -31179034.08644  22978741.0164                   22978741.2664
 -54843628.36348 -42721859.33246  20596759.8594                   20596755.5124
 11  8 18  0  7 30.0000000  0  7G12G10G17G05G04G09G02
 -29164840.51647 -22684723.92646  21889555.6174                   21889552.9414
 -45577651.89848 -35396101.67246  20913515.5234                   20913513.8284
 -90745447.86747 -70668306.92245  22685088.4614                   22685087.3554
 -18861108.19947 -14684909.04745  22671984.1884                   22671983.8794
 -72322056.88348 -56309316.07046  21013201.3594                   21013200.5474
 -40584729.88347 -31204825.54744  22972442.6644                   22972442.4304
 -54958715.28548 -42811537.43446  20574859.5634                   20574855.1134
 11  8 18  0  8  0.0000000  0  7G12G10G17G05G04G09G02
 -29341764.10548 -22822586.44946  21855888.5474                   21855885.9844
 -45705274.17648 -35495547.57846  20889229.5234                   20889227.8874
 -90799892.71147 -70710731.50845  22674728.2194                   22674727.1214
 -19062456.59447 -14841803.77745  22633669.3284                   22633668.4264
 -72354234.29748 -56334389.39146  21007077.6254                   21007076.4304
 -40617439.63747 -31230313.71944  22966218.4614                   22966218.1524
 -55073391.42248 -42900895.43446  20553037.2734                   20553033.4144
 11  8 18  0  8 30.0000000  0  8G12G10G30G17G05G04G09G02
 -29518290.16847 -22960139.19546  21822296.0474                   21822293.8874
 -45832230.34448 -35594474.42246  20865070.0314                   20865068.7234
   1274610.27356   1037323.02752  24211744.6644                   24211744.3524
 -90854135.06247 -70752998.32845  22664405.7974                   22664404.5004
 -19263553.92647 -14998502.89545  22595401.8524                   22595400.8164
 -72386109.69548 -56359227.38746  21001012.9534                   21001011.2894
 -40649768.26247 -31255504.90644  22960066.0314                   22960065.9774
 -55187662.08248 -42989937.49646  20531292.4534                   20531288.1844
 11  8 18  0  9  0.0000000  0  8G12G10G30G17G05G04G09G02
 -28118995.25047 -21869779.50846  22088573.4774                   22088571.1214
 -44383100.23448 -34465282.10246  21140830.8284                   21140828.7194
   2643344.05946   2103868.87943  24472206.8834                   24472205.3014
 -89332757.52047 -69567509.36745  22953914.3134                   22953913.1844
 -17888975.91447 -13927403.03545  22856974.9694                   22856974.7734
 -70842269.30948 -55156234.89846  21294795.6174                   21294794.5514
 -39106303.32047 -30052805.00444  23253778.3364                   23253777.8094
 -53726109.76648 -41851065.55146  20809416.4844                   20809412.0664
 11  8 18  0  9 30.0000000  0  8G12G10G30G17G05G04G09G02
 -28294731.72347 -22006717.00846  22055131.8834                   22055129.3554
 -44508733.50048 -34563178.12946  21116923.7344                   21116921.9414
   2436880.37146   1942988.14543  24432917.2034                   24432916.8014
 -89386605.96147 -69609469.19945  22943667.2584                   22943666.2854
 -18089575.82447 -14083714.54745  22818801.5784                   22818801.4384
 -70873560.61348 -55180617.74246  21288841.0554                   21288839.0864
 -39137893.35247 -30077420.66444  23247766.4064                   23247766.1454
 -53839585.79748 -41939488.40646  20787822.8054                   20787818.8874
 11  8 18  0 10  0.0000000  0  8G12G10G30G17G05G04G09G02
 -28470074.94547 -22143348.08246  22021764.8834                   22021763.0554
 -44633708.50048 -34660561.21546  21093141.3834                   21093139.9734
   2230645.09046   1782285.37143  24393672.0634                   24393672.0864
 -89440261.51247 -69651278.79345  22933457.1484                   22933456.3164
 -18289927.77747 -14239832.85545  22780676.3134                   22780675.6644
 -70904568.86348 -55204780.02046  21282940.3674                   21282939.0394
 -39169124.32047 -30101756.53144  23241823.3674                   23241823.0274
 -53952670.92248 -42027606.66446  20766303.1174                   20766298.8484
 11  8 18  0 10 30.0000000  0  8G12G10G30G17G05G04G09G02
 -28645018.92648 -22279668.07046  21988474.3674                   21988472.0744
 -44758020.41048 -34757427.61346  21069485.3444                   21069484.4884
   2024644.17646   1621765.21943  24354470.3984                   24354471.2894
 -89493720.95347 -69692935.53945  22923284.3834                   22923283.3674
 -18490025.15647 -14395752.77345  22742598.9614                   22742598.2304
 -70935292.60548 -55228720.61346  21277093.9454                   21277092.3554
 -39199996.23047 -30125812.59044  23235948.6254                   23235948.4264
 -54065363.00048 -42115418.64846  20744858.6254                   20744854.4104
 11  8 18  0 11  0.0000000  0  8G12G10G30G17G05G04G09G02
 -28819560.96947 -22415674.83646  21955259.7974                   21955257.7704
 -44881667.80948 -34853776.20346  21045956.5474                   21045954.8874
   1818880.59046   1461430.01243  24315316.4224                   24315315.8984
 -89546982.71147 -69734438.25845  22913149.1564                   22913148.4064
 -18689865.25447 -14551472.23445  22704570.5864                   22704569.7074
 -70965734.39848 -55252441.49646  21271301.0784                   21271298.9734
 -39230512.56647 -30149591.59044  23230141.8674                   23230141.8404
 -54177662.42248 -42202924.67646  20723488.7974                   20723484.6524
 11  8 18  0 11 30.0000000  0  8G12G10G30G17G05G04G09G02
 -28993695.34447 -22551363.94546  21922123.5864                   21922121.0944
 -45004646.52748 -34949603.75846  21022554.1564                   21022552.8094
   1613360.07046   1301284.20743  24276206.6414                   24276206.6374
 -89600043.40247 -69775784.29745  22903052.2974                   22903050.6294
 -18889442.18747 -14706986.63345  22666592.1484                   22666591.4414
 -70995893.29748 -55275941.94546  21265562.4304                   21265560.4384
 -39260673.78147 -30173093.88744  23224402.6254                   23224403.1684
 -54289567.38348 -42290123.31646  20702193.8284                   20702189.6764
 11  8 18  0 12  0.0000000  0  8G12G10G30G17G05G04G09G02
 -29167421.40648 -22686734.89146  21889064.6724                   21889062.1214
 -45126956.66448 -35044910.34446  20999279.4064                   20999277.8324
   1408083.84846   1141328.76643  24237144.4534                   24237143.5124
 -89652903.96147 -69816974.38745  22892992.6644                   22892991.3134
 -19088754.28947 -14862294.66445  22628664.6174                   22628663.8404
 -71025772.94548 -55299224.80146  21259875.8284                   21259874.6604
 -39290484.49647 -30196323.05144  23218729.2114                   23218729.2974
 -54401080.21548 -42377016.41046  20680973.8594                   20680969.4614
 11  8 18  0 12 30.0000000  0  8G12G10G30G17G05G04G09G02
 -29340734.39548 -22821783.95746  21856083.8674                   21856082.1334
 -45248594.78548 -35139693.26646  20976132.5474                   20976130.5434
   1203056.75446    981567.48842  24198128.2664                   24198128.2544
 -89705562.23447 -69858006.85545  22882972.5554                   22882971.1134
 -19287796.38747 -15017392.30545  22590788.0234                   22590787.2194
 -71055373.67648 -55322290.31246  21254243.5634                   21254241.9024
 -39319945.86747 -30219279.99245  23213123.6724                   23213123.4964
 -54512199.77748 -42463603.06646  20659828.5864                   20659824.3834
 11  8 18  0 13  0.0000000  0  8G12G10G30G17G05G04G09G02
 -29513633.58247 -22956510.56646  21823182.5394                   21823180.5554
 -45369561.72748 -35233953.19946  20953112.9534                   20953111.4494
    998279.79346    822001.11342  24159160.9534                   24159161.1454
 -89758019.07447 -69898882.35245  22872990.8054                   22872988.9534
 -19486567.45747 -15172278.76245  22552962.9384                   22552962.0634
 -71084699.53548 -55345141.64546  21248662.7034                   21248661.1454
 -39349063.49647 -30241969.10544  23207582.7664                   23207582.7034
 -54622929.00448 -42549885.56246  20638757.3984                   20638752.8284
 11  8 18  0 13 30.0000000  0  8G12G10G30G17G05G04G09G02
 -29686113.94948 -23090910.82446  21790360.7664                   21790358.2384
 -45489853.92648 -35327687.36746  20930222.0234                   20930220.5514
    793757.94946    662633.53543  24120241.3834                   24120241.4264
 -89810271.23847 -69939598.35945  22863047.1024                   22863044.7774
 -19685062.33647 -15326950.00445  22515190.7344                   22515189.6724
 -71113750.34448 -55367778.63746  21243134.2894                   21243133.1134
 -39377838.03947 -30264390.86744  23202106.7664                   23202107.1214
 -54733266.15648 -42635862.54346  20617760.7274                   20617756.8164
 11  8 18  0 14  0.0000000  0  8G12G10G30G17G05G04G09G02
 -29858168.64547 -23224979.36346  21757619.2814                   21757617.5944
 -45609465.60548 -35420891.25446  20907461.0704                   20907459.6334
    589498.54745    503470.47343  24081372.3134                   24081371.7274
 -89862313.54347 -69980150.82845  22853144.3284                   22853142.0824
 -19883273.31647 -15481400.02045  22477471.9694                   22477471.4654
 -71142524.08248 -55390199.74246  21237659.1024                   21237657.4884
 -39406268.59446 -30286544.61744  23196696.4224                   23196696.6684
 -54843207.67248 -42721531.23846  20596839.6334                   20596835.4654
 11  8 18  0 14 30.0000000  0  8G12G10G30G17G05G04G09G02
 -30029796.47348 -23358715.28146  21724960.1804                   21724957.3954
 -45728396.96148 -35513565.02346  20884829.4844                   20884827.8984
    385502.93046    344512.89143  24042552.5394                   24042552.6914
 -89914147.53947 -70020541.00445  22843281.0164                   22843278.7274
 -20081199.05147 -15635627.78145  22439807.9844                   22439807.2584
 -71171024.37148 -55412407.74646  21232235.7034                   21232234.2934
 -39434360.05546 -30308434.11344  23191351.0234                   23191350.6294
 -54952756.28948 -42806893.78146  20575993.2584                   20575988.9414
 11  8 18  0 15  0.0000000  0  8G12G10G30G17G05G04G09G02
 -30200996.18048 -23492117.60946  21692381.5394                   21692379.3594
 -45846648.55948 -35605709.10546  20862326.5784                   20862324.8054
    181772.30146    185761.80943  24003783.6254                   24003783.5474
 -89965773.65647 -70060769.16444  22833456.0554                   22833454.2194
 -20278837.78547 -15789631.90245  22402198.3364                   22402197.5784
 -71199254.90648 -55434405.56646  21226863.6254                   21226862.1174
 -39462117.30947 -30330063.18444  23186068.9384                   23186069.0234
 -55061914.39848 -42891952.03146  20555221.2814                   20555216.8284
 11  8 18  0 15 30.0000000  0  9G12G10G30G17G05G04G25G09G02
 -30371765.29347 -23625184.39846  21659885.2734                   21659882.7274
 -45964218.82448 -35697322.28146  20839953.9534                   20839952.4614
    -21690.32446     27219.52343  23965066.4064                   23965065.8134
 -90017191.05947 -70100834.68744  22823671.7664                   22823670.2074
 -20476186.28947 -15943409.85545  22364644.1804                   22364643.3984
 -71227217.35248 -55456194.48446  21221542.4304                   21221540.7344
   2854699.50856   2264479.71553  24540715.0634                   24540716.8054
 -39489543.43747 -30351434.23444  23180849.7034                   23180849.9774
 -55170682.50848 -42976706.39146  20534523.2344                   20534519.1644
 11  8 18  0 16  0.0000000  0  9G12G10G30G17G05G04G25G09G02
 -30542102.57048 -23757914.69146  21627471.2734                   21627469.0314
 -46081107.97348 -35788404.70746  20817710.3444                   20817708.5044
   -224883.11746   -131112.43743  23926399.5554                   23926399.4304
 -90068400.02347 -70140737.80944  22813926.5554                   22813925.3244
 -20673242.90247 -16096960.37945  22327145.4384                   22327144.8954
 -71254915.31648 -55477777.31246  21216272.1954                   21216270.1524
   2651425.30946   2106084.28943  24502032.8524                   24502035.8364
 -39516642.96547 -30372550.82444  23175693.4694                   23175693.0664
 -55279062.89548 -43061158.63346  20513899.5234                   20513894.9734
 11  8 18  0 16 30.0000000  0  9G12G10G30G17G05G04G25G09G02
 -30712013.43748 -23890312.71546  21595138.1954                   21595135.6214
 -46197323.32448 -35878962.10246  20795595.2194                   20795593.3014
   -427811.74646   -289238.57043  23887784.1884                   23887783.5704
 -90119408.49247 -70180484.73444  22804220.3834                   22804219.1884
 -20870012.85947 -16250287.53145  22289701.3984                   22289700.0864
 -71282359.53948 -55499162.43046  21211048.8754                   21211047.3754
   2448318.20746   1947819.12943  24463382.6484                   24463385.6214
 -39543427.82847 -30393422.19544  23170596.2814                   23170596.1724
 -55387064.94948 -43145316.06646  20493347.4534                   20493342.6484
 11  8 18  0 17  0.0000000  0  9G12G10G30G17G05G04G25G09G02
 -29306069.65648 -22794772.06646  21862680.2504                   21862677.7274
 -44737439.58648 -34741390.34446  21073401.9454                   21073400.1484
    944953.68446    780448.83243  24149012.1334                   24149011.9694
 -88594793.70347 -68992473.25045  23094345.6484                   23094344.6684
 -19491066.59047 -15175783.84845  22552106.4454                   22552105.3364
 -69734130.79748 -54292750.43746  21505667.0944                   21505665.9414
   3820807.84846   3017291.59043  24724559.9844                   24724560.6134
 -37994479.84847 -29186449.81644  23465351.3364                   23465350.9454
 -53919265.70348 -42001576.38747  20772659.9304                   20772655.6524
 11  8 18  0 17 30.0000000  0  9G12G10G30G17G05G04G25G09G02
 -29475119.26248 -22926498.98046  21830511.1024                   21830508.8954
 -44852302.64148 -34830893.99246  21051544.3524                   21051542.5044
    742563.37546    622742.16443  24110498.9454                   24110498.4734
 -88645397.82047 -69031905.05945  23084714.8524                   23084713.6374
 -19687253.25847 -15328656.49245  22514772.9454                   22514772.2504
 -69761072.03148 -54313743.60545  21500540.5784                   21500538.9024
   3618044.11746   2859293.98043  24685974.5084                   24685976.8324
 -38020643.52347 -29206837.14844  23460372.9614                   23460372.3014
 -54026512.25848 -42085145.11746  20752251.6884                   20752247.3794
 11  8 18  0 18  0.0000000  0  9G12G10G30G17G05G04G25G09G02
 -29643729.53948 -23057883.55946  21798425.8444                   21798423.3594
 -44966483.59048 -34919866.14146  21029816.2034                   21029814.4104
    540450.70346    465251.81343  24072038.6334                   24072036.7274
 -88695794.03547 -69071174.86344  23075125.2734                   23075123.9454
 -19883139.24247 -15481294.83245  22477497.0234                   22477495.8554
 -69787760.71548 -54334539.96546  21495461.9304                   21495460.2464
   3415460.19546   2701436.43843  24647423.8914                   24647426.1604
 -38046497.47347 -29226983.14544  23455452.9064                   23455452.1644
 -54133378.19548 -42168417.26246  20731916.1724                   20731911.3954
 11  8 18  0 18 30.0000000  0  9G12G10G30G17G05G04G25G09G02
 -29811898.33648 -23188924.13746  21766424.3204                   21766421.6804
 -45079981.25448 -35008305.87146  21008218.1804                   21008216.3554
    338619.07046    307980.44943  24033631.0084                   24033629.9384
 -88745982.02347 -69110282.41045  23065574.4144                   23065574.0354
 -20078721.09047 -15633696.19545  22440279.2894                   22440278.1134
 -69814198.65648 -54355140.96946  21490431.0864                   21490430.0744
   3213058.95346   2543721.19143  24608908.3054                   24608910.8204
 -38072044.52347 -29246890.02044  23450591.6884                   23450590.9414
 -54239864.03548 -42251393.22746  20711652.1724                   20711647.9694
 11  8 18  0 19  0.0000000  0  9G12G10G30G17G05G04G25G09G02
 -29979623.86347 -23319619.31246  21734507.2424                   21734504.3094
 -45192795.88348 -35096213.35246  20986750.7194                   20986748.6994
    137070.06646    150929.35543  23995277.3444                   23995276.5664
 -88795962.22346 -69149228.05544  23056063.7894                   23056063.1914
 -20273996.73847 -15785858.95345  22403119.3524                   22403118.0514
 -69840388.96948 -54375549.02746  21485447.6564                   21485445.4264
   3010841.69146   2386149.37943  24570428.2034                   24570430.0474
 -38097289.15246 -29266561.22344  23445787.5234                   23445787.9574
 -54345972.02048 -42334074.77046  20691460.2894                   20691456.1884
 11  8 18  0 19 30.0000000  0  9G12G10G30G17G05G04G25G09G02
 -30146897.60948 -23449962.46946  21702675.9064                   21702673.2154
 -45304920.38348 -35183583.06646  20965414.0394                   20965412.0704
    -64187.35546     -5894.60543  23956979.3204                   23956978.2544
 -88845727.49247 -69188006.26245  23046594.3754                   23046593.6374
 -20468957.80547 -15937776.58645  22366019.1564                   22366018.8204
 -69866328.01648 -54395761.24646  21480511.5004                   21480509.6884
   2808817.04346   2228727.69143  24531984.5164                   24531985.7774
 -38122228.88747 -29285994.84844  23441042.1724                   23441042.1484
 -54451697.19548 -42416458.01646  20671341.7344                   20671337.5594
 11  8 18  0 20  0.0000000  0  9G12G10G30G17G05G04G25G09G02
 -30313720.99647 -23579954.67646  21670930.0944                   21670927.7034
 -45416358.03148 -35270417.57046  20944207.6954                   20944206.2974
   -265154.37546   -162492.25843  23918736.4844                   23918735.7034
 -88895281.02747 -69226619.44545  23037164.3914                   23037163.7624
 -20663604.82047 -16089449.51245  22328979.5164                   22328978.1094
 -69892021.51648 -54415782.17245  21475621.6024                   21475620.0664
   2606983.77046   2071455.08643  24493576.1254                   24493578.0274
 -38146871.02347 -29305196.54744  23436352.5634                   23436353.1294
 -54557043.98848 -42498546.41046  20651294.7344                   20651290.5234
 11  8 18  0 20 30.0000000  0  9G12G10G30G17G05G04G25G09G02
 -30480086.10547 -23709589.79746  21639272.2734                   21639269.7664
 -45527102.24248 -35356711.73846  20923133.9384                   20923132.1524
   -465822.60246   -318857.07443  23880550.6724                   23880549.5704
 -88944617.38747 -69265063.41845  23027776.1884                   23027775.4534
 -20857929.38347 -16240871.17245  22292000.3914                   22291999.0634
 -69917466.38348 -54435609.37146  21470780.2734                   21470778.4614
   2405349.62146   1914337.66443  24455206.3914                   24455208.1644
 -38171213.41447 -29324164.71144  23431720.4454                   23431721.1414
 -54662008.04348 -42580336.56646  20631320.6414                   20631316.5044
 11  8 18  0 21  0.0000000  0  9G12G10G30G17G05G04G25G09G02
 -30645990.42247 -23838865.87546  21607701.3204                   21607699.0904
 -45637152.32048 -35442465.02046  20902192.3054                   20902190.5164
   -666189.15647   -474986.83243  23842421.9774                   23842420.6374
 -88993735.60247 -69303337.40645  23018429.2344                   23018428.5234
 -21051928.54347 -16392039.27045  22255083.4774                   22255082.3094
 -69942664.58648 -54455244.34046  21465984.5864                   21465983.5554
   2203917.39546   1757377.57043  24416875.2894                   24416876.8914
 -38195259.29747 -29342901.81644  23427144.5784                   23427145.1414
 -54766590.89548 -42661829.68746  20611419.3284                   20611415.1954
 11  8 18  0 21 30.0000000  0  9G12G10G30G17G05G04G25G09G02
 -30811432.96948 -23967782.11746  21576219.0554                   21576216.4184
 -45746509.23448 -35527678.18046  20881382.2344                   20881380.6844
   -866252.67646   -630880.46543  23804351.1254                   23804350.3834
 -89042636.44547 -69341441.99645  23009123.6094                   23009122.1884
 -21245600.52747 -16542952.42246  22218228.8364                   22218227.6804
 -69967619.79348 -54474689.97745  21461235.6954                   21461234.7234
   2002687.96546   1600575.47743  24378582.8204                   24378584.1724
 -38219013.79347 -29361411.86744  23422624.5314                   23422624.5554
 -54870794.63748 -42743027.40246  20591589.8674                   20591585.6054
 11  8 18  0 22  0.0000000  0  9G12G10G30G17G05G04G25G09G02
 -30976412.25847 -24096337.38346  21544824.2114                   21544821.8484
 -45855172.80148 -35612351.06646  20860704.1484                   20860702.2274
  -1066011.44546   -786536.61343  23766338.2424                   23766337.3524
 -89091320.57047 -69379377.73445  22999859.5474                   22999858.9304
 -21438943.83247 -16693609.46945  22181436.7894                   22181435.5944
 -69992335.17248 -54493948.69945  21456532.5394                   21456531.0394
   1801662.89146   1443932.60543  24340328.0234                   24340329.5514
 -38242481.44547 -29379698.40644  23418158.6644                   23418159.2424
 -54974621.23448 -42823931.22746  20571832.5234                   20571828.4694
 11  8 18  0 22 30.0000000  0  9G12G10G30G17G05G04G25G09G02
 -31140923.25048 -24224527.76246  21513519.1804                   21513516.6294
 -45963139.87148 -35696481.23046  20840159.0394                   20840157.0634
  -1265459.97346   -941951.05543  23728384.9144                   23728383.6024
 -89139784.68447 -69417142.04345  22990637.0004                   22990636.5234
 -21631952.93047 -16844006.09045  22144707.9384                   22144706.9574
 -70016810.42648 -54513020.34845  21451875.4774                   21451874.5554
   1600847.16446   1287452.87543  24302113.9304                   24302115.7274
 -38265662.87947 -29397761.93744  23413747.4384                   23413748.0314
 -55078069.48448 -42904540.24646  20552146.5944                   20552142.3794
 11  8 18  0 23  0.0000000  0  9G12G10G30G17G05G04G25G09G02
 -31304966.62548 -24352353.76646  21482302.8914                   21482299.9024
 -46070412.98047 -35780070.62946  20819744.9774                   20819743.3404
  -1464598.59847  -1097124.00443  23690490.2424                   23690489.0864
 -89188031.18747 -69454736.76645  22981455.8984                   22981455.1804
 -21824627.68747 -16994142.19145  22108043.4924                   22108042.2304
 -70041050.33248 -54531908.59845  21447262.2424                   21447261.0824
   1400240.43846   1131135.99643  24263940.4384                   24263941.7934
 -38288564.42647 -29415607.38344  23409389.5784                   23409390.4414
 -55181143.46548 -42984857.62146  20532532.3364                   20532528.2734
 11  8 18  0 23 30.0000000  0  9G12G10G30G17G05G04G25G09G02
 -31468536.88747 -24479811.09446  21451176.2114                   21451173.7464
 -46176988.63748 -35863116.57446  20799464.5314                   20799462.8444
  -1663421.48446  -1252050.89543  23652654.7894                   23652653.8524
 -89236056.69147 -69492159.27745  22972317.5474                   22972315.7934
 -22016962.41047 -17144013.33646  22071443.1254                   22071442.0824
 -70065054.36348 -54550613.06645  21442695.0394                   21442693.0084
   1199848.00846    974986.07443  24225806.8204                   24225807.5314
 -38311186.93047 -29433235.37944  23405084.6414                   23405085.2664
 -55283841.28948 -43064881.87946  20512989.9454                   20512985.6094
 11  8 18  0 24  0.0000000  0  9G12G10G30G17G05G04G25G09G02
 -31631633.52748 -24606899.38346  21420140.0704                   21420137.5234
 -46282868.28147 -35945620.16846  20779316.5474                   20779314.4534
  -1861927.63746  -1406730.98443  23614880.4924                   23614879.5514
 -89283862.44547 -69529410.56645  22963219.8914                   22963218.8834
 -22208955.96947 -17293618.63745  22034908.2894                   22034906.6094
 -70088826.19148 -54569136.57445  21438171.1884                   21438169.4924
    999670.78146    819003.82843  24187714.1724                   24187715.8244
 -38333535.23047 -29450649.73444  23400832.2114                   23400831.9344
 -55386165.73048 -43144615.19946  20493518.2814                   20493513.4694
 11  8 18  0 24 30.0000000  0  9G12G10G30G17G05G04G25G09G02
 -31794255.76648 -24733618.00846  21389193.7894                   21389191.6254
 -46388052.44948 -36027581.83646  20759300.2114                   20759298.8164
  -2060115.55147  -1561163.07843  23577166.5164                   23577165.0984
 -89331449.02747 -69566491.08645  22954164.7894                   22954164.2584
 -22400606.54747 -17442956.68745  21998438.2344                   21998436.3954
 -70112369.39148 -54587481.94545  21433691.1094                   21433689.8954
    799709.81646    663190.13743  24149662.5704                   24149664.7304
 -38355614.38747 -29467854.34044  23396630.7424                   23396630.7814
 -55488119.22348 -43224059.46146  20474116.9144                   20474112.7854
 11  8 18  0 25  0.0000000  0  9G12G10G30G17G05G04G25G09G02
 -30380972.14848 -23632358.04346  21658132.9454                   21658129.9104
 -44917113.62548 -34881395.72746  21039211.1254                   21039209.1024
   -682552.43747   -487737.21543  23839307.8984                   23839306.9734
 -87803391.18447 -68375796.68745  23244944.9774                   23244943.9384
 -21016481.63347 -16364417.73045  22261828.3674                   22261827.2074
 -68560261.97348 -53378047.62945  21729047.6884                   21729045.7664
   2175397.73846   1735154.77343  24411447.1334                   24411449.2894
 -36802003.77047 -28257248.74644  23692272.4224                   23692273.1134
 -54014276.14148 -42075610.28946  20754579.7734                   20754575.3954
 11  8 18  0 25 30.0000000  0  9G12G10G30G17G05G04G25G09G02
 -30542633.74247 -23758328.13346  21627369.7814                   21627367.2344
 -45020900.75448 -34962268.78146  21019460.9384                   21019459.0434
   -880091.43447   -641663.62543  23801717.1094                   23801716.2034
 -87850534.01247 -68412531.41045  23235973.4304                   23235973.2384
 -21207433.31247 -16513211.17645  22225491.2504                   22225490.0314
 -68583350.24248 -53396038.50045  21724654.0164                   21724652.3134
   1975881.13746   1579687.32443  24373481.0704                   24373482.3914
 -36823550.60946 -28274038.60243  23688171.8444                   23688172.6764
 -54115487.11348 -42154475.96946  20735320.3054                   20735315.8134
 11  8 18  0 26  0.0000000  0  9G12G10G30G17G05G04G25G09G02
 -30703811.22748 -23883920.97746  21596698.5314                   21596695.8714
 -45123988.45347 -35042596.83246  20999843.5634                   20999842.1094
  -1077301.38347   -795333.65643  23764189.5234                   23764188.6844
 -87897453.73047 -68449092.27345  23227044.8834                   23227044.0784
 -21398031.48447 -16661729.16446  22189221.4224                   22189220.4344
 -68606213.68748 -53413854.19945  21720302.9924                   21720301.5634
   1776590.84846   1424396.18444  24335557.1334                   24335558.6294
 -36844836.21946 -28290624.85544  23684121.8444                   23684122.6134
 -54216327.98048 -42233053.25846  20716130.8674                   20716126.0084
 11  8 18  0 26 30.0000000  0  9G12G10G30G17G05G04G25G09G02
 -30864504.38748 -24009136.42646  21566119.7814                   21566117.2734
 -45226378.73047 -35122381.45346  20980359.4614                   20980357.6214
  -1274181.68746   -948746.78143  23726724.5704                   23726723.0824
 -87944151.99247 -68485480.54744  23218158.6414                   23218157.5864
 -21588275.21947 -16809970.98846  22153019.6644                   22153018.1844
 -68628856.89548 -53431498.26645  21715994.3524                   21715992.9534
   1577527.24647   1269281.68444  24297677.1484                   24297678.0704
 -36865866.40247 -28307012.09043  23680119.9224                   23680120.2304
 -54316802.18048 -42311344.83246  20697011.5554                   20697006.9734
 11  8 18  0 27  0.0000000  0  9G12G10G30G17G05G04G25G09G02
 -31024706.93048 -24133969.57846  21535634.7974                   21535631.6564
 -45328067.15247 -35201619.14846  20961008.7344                   20961007.0474
  -1470725.62547  -1101897.80543  23689323.6094                   23689322.4144
 -87990624.09047 -68521692.64844  23209315.7114                   23209313.6844
 -21778157.66847 -16957931.26246  22116886.0234                   22116885.0594
 -68651277.89148 -53448969.19145  21711727.5474                   21711726.2464
   1378696.79347   1114348.88344  24259840.4924                   24259841.6564
 -36886640.31647 -28323199.64144  23676167.4844                   23676167.5274
 -54416906.97348 -42389348.55946  20677961.6564                   20677957.4104
 11  8 18  0 27 30.0000000  0  9G12G10G30G17G05G04G25G09G02
 -31184419.81248 -24258421.16846  21505242.1414                   21505239.2704
 -45429056.30148 -35280311.97346  20941791.5704                   20941789.1764
  -1666933.55947  -1254786.99243  23651986.4774                   23651985.0164
 -88036873.03947 -68557730.79744  23200514.6724                   23200513.9454
 -21967679.36347 -17105610.45746  22080821.7814                   22080820.0824
 -68673481.83248 -53466271.00045  21707502.5704                   21707501.2234
   1180098.89147    959597.29744  24222048.8054                   24222050.1564
 -36907164.69947 -28339192.73844  23672262.2504                   23672262.0904
 -54516646.75048 -42467067.85946  20658981.9064                   20658977.8594
 11  8 18  0 28  0.0000000  0  9G12G10G30G17G05G04G25G09G02
 -31343640.12948 -24382488.94146  21474943.5004                   21474940.7464
 -45529345.48848 -35358459.36746  20922706.9384                   20922704.8674
  -1862802.28546  -1407411.88344  23614713.9064                   23614711.8524
 -88082897.73047 -68593594.26644  23191756.5704                   23191755.1094
 -22156836.55148 -17253005.59046  22044825.3674                   22044824.4734
 -68695470.41448 -53483404.99245  21703318.6094                   21703317.2034
    981736.41047    805029.17644  24184301.6024                   24184303.0314
 -36927442.49647 -28354993.67644  23668403.2894                   23668403.2664
 -54616022.25048 -42544503.30546  20640071.3914                   20640067.3284
 11  8 18  0 28 30.0000000  0  9G12G10G30G17G05G04G25G09G02
 -31502365.72748 -24506171.20746  21444739.1564                   21444736.4224
 -45628934.59448 -35436061.24246  20903755.9924                   20903753.4454
  -2058328.97346  -1559770.24244  23577506.0004                   23577504.6724
 -88128697.75447 -68629282.63344  23183041.2274                   23183039.8794
 -22345626.19947 -17400114.34446  22008900.3364                   22008899.1914
 -68717245.68748 -53500372.75445  21699174.6564                   21699172.7384
    783612.09847    650646.66044  24146599.5474                   24146600.9264
 -36947477.19547 -28370605.16844  23664590.8054                   23664590.7584
 -54715034.39548 -42621655.61746  20621230.0004                   20621226.0004
 11  8 18  0 29  0.0000000  0  9G12G10G30G17G05G04G25G09G02
 -31660594.22748 -24629466.11346  21414628.7584                   21414626.0474
 -45727823.21548 -35513117.29746  20884937.7734                   20884935.6764
  -2253510.80947  -1711859.89143  23540364.3984                   23540363.1604
 -88174272.42647 -68664795.37544  23174368.4064                   23174367.5784
 -22534045.93048 -17546934.84846  21973044.8674                   21973043.7074
 -68738809.57448 -53517175.80545  21695070.6724                   21695069.9344
    585728.48447    496451.67244  24108943.5474                   24108944.8284
 -36967272.32447 -28386030.01644  23660823.7114                   23660824.4144
 -54813684.44548 -42698525.77346  20602457.5084                   20602453.4694
 11  8 18  0 29 30.0000000  0  9G12G10G30G17G05G04G25G09G02
 -31818325.50448 -24752373.57446  21384613.4144                   21384611.0514
 -45826013.37148 -35589629.07846  20866252.9534                   20866251.2544
  -2448347.30147  -1863680.44143  23503287.0864                   23503286.8594
 -88219623.64547 -68700134.04744  23165738.0864                   23165737.8444
 -22722095.06248 -17693466.55946  21937260.4304                   21937259.0274
 -68760166.61748 -53533817.69945  21691006.7584                   21691006.2814
    388085.76647    342444.43844  24071333.8054                   24071334.3954
 -36986833.57447 -28401272.60244  23657101.4844                   23657101.6374
 -54911975.77348 -42775116.41446  20583753.5004                   20583749.1454
 11  8 18  0 30  0.0000000  0  9G12G10G30G17G05G04G25G09G02
 -31975557.55948 -24874892.03146  21354693.3134                   21354690.6174
 -45923505.23048 -35665596.74246  20847700.5474                   20847698.6804
  -2642835.90647  -2015229.91843  23466278.0634                   23466276.8054
 -88264751.12547 -68735298.37544  23157151.5234                   23157150.3054
 -22909771.04748 -17839707.52746  21901547.1174                   21901545.0204
 -68781319.16448 -53550300.23445  21686981.6254                   21686980.7274
    190686.28947    188626.74644  24033769.4454                   24033770.6294
 -37006164.63747 -28416335.84444  23653423.0474                   23653423.5274
 -55009909.84448 -42851428.66846  20565117.0164                   20565112.6804
 11  8 18  0 30 30.0000000  0  9G12G10G30G17G05G04G25G09G02
 -32132290.42648 -24997021.50046  21324867.9304                   21324865.3014
 -46020301.01248 -35741022.00446  20829281.4454                   20829278.7384
  -2836976.20747  -2166507.98443  23429334.2664                   23429332.4384
 -88309656.71947 -68770289.80544  23148605.3834                   23148605.0984
 -23097073.50447 -17985657.42646  21865904.3754                   21865902.9024
 -68802271.42248 -53566626.70345  21682994.7344                   21682994.0594
     -6469.77747     34998.73844  23996252.2344                   23996252.9884
 -37025271.38347 -28431224.27744  23649787.1174                   23649788.4344
 -55107490.05948 -42927465.20746  20546548.0234                   20546543.7734
 11  8 18  0 31  0.0000000  0  9G12G10G30G17G05G04G25G09G02
 -32288518.84448 -25118757.88746  21295138.3594                   21295136.1484
 -46116397.01648 -35815901.97346  20810994.4844                   20810993.0514
  -3030761.81647  -2317509.68044  23392457.8524                   23392456.5314
 -88354336.25847 -68805105.08244  23140103.5784                   23140102.6414
 -23283995.91047 -18131311.17246  21830334.0084                   21830332.8554
 -68823021.75048 -53582795.81245  21679045.8914                   21679044.4884
   -203376.28147   -118434.80944  23958781.5864                   23958782.6604
 -37044153.59847 -28445937.75844  23646194.0084                   23646194.9574
 -55204714.39548 -43003224.41846  20528047.1564                   20528042.6454
 11  8 18  0 31 30.0000000  0  9G12G10G30G17G05G04G25G09G02
 -32444244.85248 -25240102.77746  21265504.6024                   21265501.8594
 -46211797.77048 -35890240.20746  20792840.2344                   20792838.1214
  -3224194.59447  -2468236.46944  23355648.9224                   23355647.2814
 -88398793.92247 -68839747.44945  23131644.1024                   23131642.6644
 -23470540.16448 -18276670.27746  21794836.0634                   21794834.4574
 -68843577.09048 -53598812.97745  21675134.6094                   21675133.2274
   -400035.27047   -271675.48844  23921358.6334                   23921359.5664
 -37062819.44947 -28460482.63744  23642641.8284                   23642642.9384
 -55301588.47748 -43078710.72346  20509612.4384                   20509607.8444
 11  8 18  0 32  0.0000000  0  9G12G10G30G17G05G04G25G09G02
 -32599464.23847 -25361052.90646  21235967.7114                   21235964.7504
 -46306500.78948 -35964034.75046  20774818.5164                   20774817.5204
  -3417269.57047  -2618684.43744  23318907.5944                   23318906.5904
 -88443027.08647 -68874214.89845  23123226.7734                   23123225.5984
 -23656701.31647 -18421730.84446  21759410.4614                   21759408.8164
 -68863937.23447 -53614678.05145  21671259.9844                   21671258.6484
   -596442.06247   -424719.62144  23883983.9614                   23883985.0274
 -37081270.00046 -28474859.75444  23639131.1174                   23639131.7934
 -55398111.34048 -43153923.34046  20491244.6804                   20491240.4184
 11  8 18  0 32 30.0000000  0  9G12G10G30G17G05G04G25G09G02
 -32754172.97747 -25481605.12946  21206527.5084                   21206525.0634
 -46400504.43747 -36037284.30946  20756930.5474                   20756928.5164
  -3609982.38347  -2768850.23443  23282235.6484                   23282234.3054
 -88487033.66047 -68908505.79745  23114852.7664                   23114851.6954
 -23842474.84047 -18566489.38746  21724059.0084                   21724057.6644
 -68884102.37148 -53630391.18045  21667423.0004                   21667421.8134
   -792592.41047   -577563.95744  23846657.2034                   23846658.4654
 -37099507.03147 -28489070.49244  23635660.7114                   23635661.5234
 -55494282.40648 -43228861.83646  20472943.9304                   20472939.6374
 11  8 18  0 33  0.0000000  0  9G12G10G30G17G05G04G25G09G02
 -31332946.24648 -24374155.67246  21476977.8834                   21476975.2734
 -44918388.27348 -34882388.59046  21038968.1484                   21038966.3484
  -2226906.26247  -1691128.56643  23545426.1174                   23545424.9884
 -86955394.25447 -67715020.57445  23406313.7974                   23406312.9534
 -22452434.20347 -17483340.77746  21988574.8284                   21988573.3054
 -67328656.43448 -52418355.40245  21963414.3674                   21963413.2624
    586940.25447    497396.66444  24109173.1564                   24109174.3634
 -35542116.18446 -27275519.21544  23932021.2034                   23932022.7464
 -54014682.33648 -42075926.71946  20754502.5234                   20754498.2854
 11  8 18  0 33 30.0000000  0  9G12G10G30G17G05G04G25G09G02
 -31486632.02747 -24493910.79746  21447732.4924                   21447729.7664
 -45010998.57848 -34954552.44546  21021345.1414                   21021343.0044
  -2418891.41447  -1840727.35544  23508892.5234                   23508891.3754
 -86998951.08247 -67748961.00445  23398025.2344                   23398024.6954
 -22637429.24647 -17627492.70746  21953371.3524                   21953369.7974
 -67348442.98847 -52433773.52745  21959648.8134                   21959647.9064
    391305.30947    344953.96544  24071944.8754                   24071946.6994
 -35559942.11746 -27289409.60944  23928629.8364                   23928630.8404
 -54110158.87548 -42150324.02346  20736334.0704                   20736329.3014
 11  8 18  0 34  0.0000000  0  9G12G10G30G17G05G04G25G09G02
 -31639803.97348 -24613265.52746  21418584.9534                   21418582.1024
 -45102912.94148 -35026174.02046  21003854.2974                   21003852.4024
  -2610509.20746  -1990039.88343  23472428.4774                   23472427.9654
 -87042283.19947 -67782726.35945  23389778.9454                   23389778.1174
 -22822031.74247 -17771338.75046  21918242.8284                   21918241.2624
 -67368043.76648 -52449046.91845  21955919.7034                   21955918.3554
    195931.33647    192714.59844  24034766.3204                   24034767.9024
 -35577568.32046 -27303144.37943  23925275.5864                   23925277.0314
 -54205290.60548 -42224452.63746  20718231.1174                   20718226.8714
 11  8 18  0 34 30.0000000  0  9G12G10G30G17G05G04G25G09G02
 -31792459.69547 -24732217.99646  21389535.3134                   21389532.5594
 -45194131.25048 -35097253.20346  20986495.8754                   20986494.0704
  -2801756.83646  -2139063.96544  23436035.2814                   23436034.7624
 -87085389.70347 -67816315.88344  23381576.1884                   23381576.0664
 -23006238.60247 -17914876.50446  21883189.2274                   21883187.5594
 -67387460.69148 -52464177.00445  21952224.2504                   21952223.3834
       820.97347     40680.64844  23997639.0554                   23997639.3874
 -35594997.68446 -27316725.76643  23921959.1804                   23921960.2734
 -54300078.59848 -42298313.41846  20700193.3364                   20700188.8554
 11  8 18  0 35  0.0000000  0  9G12G10G30G17G05G04G25G09G02
 -31944596.86348 -24850766.41446  21360584.7664                   21360582.0904
 -45284653.76648 -35167790.22746  20969270.1254                   20969267.8914
  -2992631.39847  -2287797.32044  23399713.0394                   23399712.9494
 -87128270.48447 -67849729.51645  23373417.4534                   23373415.6524
 -23190047.23047 -18058103.95346  21848211.4534                   21848210.2344
 -67406695.75848 -52479165.37145  21948564.0004                   21948563.0904
   -194023.12947   -111145.82444  23960560.6804                   23960561.9654
 -35612233.91047 -27330156.62943  23918679.5394                   23918680.1724
 -54394523.93448 -42371907.17646  20682221.3054                   20682217.0274
 11  8 18  0 35 30.0000000  0  9G12G10G30G17G05G04G25G09G02
 -32096214.60948 -24968910.07846  21331732.6884                   21331729.8754
 -45374481.45348 -35237785.81246  20952176.5234                   20952174.4614
  -3183131.04347  -2436238.57844  23363462.1484                   23363461.6764
 -87170925.81647 -67882967.48844  23365299.8754                   23365298.7854
 -23373455.43047 -18201019.37546  21813309.7814                   21813308.8244
 -67425751.79748 -52494014.25045  21944937.7504                   21944936.7704
   -388599.38747   -262763.60244  23923534.4144                   23923535.2624
 -35629281.63346 -27343440.61344  23915435.6414                   23915436.4734
 -54488628.87948 -42445235.69946  20664313.6564                   20664309.4304
 11  8 18  0 36  0.0000000  0  9G12G10G30G17G05G04G25G09G02
 -32247312.43748 -25086648.62146  21302979.6644                   21302976.9024
 -45463616.30148 -35307241.51646  20935214.6564                   20935212.0864
  -3373254.98446  -2584387.05544  23327283.1334                   23327282.3444
 -87213356.80547 -67916030.62544  23357225.9144                   23357224.7154
 -23556462.88747 -18343622.52746  21778485.0704                   21778483.4344
 -67444632.73447 -52508726.69945  21941344.5784                   21941343.4654
   -582907.07047   -414172.09844  23886558.2504                   23886560.0164
 -35646145.80546 -27356581.58644  23912226.5314                   23912227.5904
 -54582396.31648 -42518301.22746  20646470.3054                   20646465.9144
 11  8 18  0 36 30.0000000  0  9G12G10G30G17G05G04G25G09G02
 -32397883.73048 -25203976.87546  21274327.2034                   21274324.3244
 -45552054.25848 -35376154.20346  20918385.5634                   20918383.5664
  -3562996.04347  -2732237.18744  23291176.0234                   23291175.6564
 -87255559.26647 -67948915.74244  23349194.0084                   23349193.2624
 -23739062.38347 -18485907.79746  21743737.5394                   21743735.9654
 -67463336.10948 -52523300.78545  21937785.9614                   21937784.5434
   -776939.22347   -565365.91044  23849635.0474                   23849636.3674
 -35662825.73447 -27369578.99244  23909052.0784                   23909053.7194
 -54675823.47348 -42591101.60946  20628691.4694                   20628687.1024
 11  8 18  0 37  0.0000000  0  9G12G10G30G17G05G04G25G09G02
 -32547927.80548 -25320894.31646  21245774.7274                   21245772.0004
 -45639796.46548 -35444524.73846  20901688.3914                   20901686.8714
  -3752352.52047  -2879787.62944  23255143.6804                   23255142.0704
 -87297533.52347 -67981623.02044  23341207.1024                   23341206.7274
 -23921251.97348 -18627873.64546  21709067.8914                   21709066.7894
 -67481864.79747 -52537738.76245  21934260.2274                   21934258.2424
   -970694.32447   -716343.86744  23812765.0864                   23812766.2464
 -35679325.84846 -27382436.27044  23905912.4614                   23905913.9534
 -54768912.60548 -42663638.59046  20610977.2424                   20610973.0314
 11  8 18  0 37 30.0000000  0  9G12G10G30G17G05G04G25G09G02
 -32697442.11347 -25437398.95346  21217322.8364                   21217320.1214
 -45726842.93447 -35512353.13746  20885123.8444                   20885122.4184
  -3941321.17247  -3027035.86744  23219183.3984                   23219182.7274
 -87339278.62947 -68014151.74244  23333262.5474                   23333262.6724
 -24103028.65647 -18769517.75446  21674476.9774                   21674475.1604
 -67500220.48448 -52552041.89845  21930767.4064                   21930765.4774
  -1164169.32047   -867103.57844  23775947.9064                   23775949.3674
 -35695648.86347 -27395155.58244  23902806.7584                   23902807.4224
 -54861664.49648 -42735912.78146  20593327.2114                   20593322.9844
 11  8 18  0 38  0.0000000  0  9G12G10G30G17G05G04G25G09G02
 -32846427.23448 -25553491.24246  21188972.0314                   21188969.0084
 -45813196.37148 -35579641.50846  20868691.2814                   20868689.3714
  -4129901.91847  -3173981.83644  23183297.2734                   23183297.3244
 -87380796.89847 -68046503.67244  23325362.0784                   23325361.7774
 -24284392.52348 -18910840.18046  21639964.6804                   21639962.8834
 -67518407.51247 -52566213.62145  21927305.9224                   21927304.8094
  -1357364.25447  -1017645.04344  23739184.1644                   23739185.2934
 -35711801.11347 -27407741.82044  23899733.2814                   23899733.9924
 -54954082.84448 -42807927.06246  20575740.6804                   20575736.4884
 11  8 18  0 38 30.0000000  0  9G12G10G30G17G05G04G25G09G02
 -32994879.04748 -25669167.98046  21160722.3754                   21160719.5554
 -45898855.15248 -35646388.59846  20852391.2814                   20852388.8554
  -4318090.10247  -3320621.87544  23147486.5554                   23147486.1994
 -87422085.92247 -68078676.95744  23317505.6334                   23317504.9264
 -24465338.88747 -19051837.29746  21605531.4774                   21605529.8204
 -67536425.94547 -52580253.96945  21923877.5944                   21923876.0824
  -1550274.57047  -1167964.78544  23702474.6724                   23702475.3554
 -35727783.80146 -27420195.91043  23896691.2194                   23896692.1564
 -55046167.27748 -42879681.15246  20558217.5314                   20558213.2034
 11  8 18  0 39  0.0000000  0  9G12G10G30G17G05G04G25G09G02
 -33142794.18448 -25784426.52346  21132575.2734                   21132572.4924
 -45983818.39148 -35712593.69946  20836223.2034                   20836221.2624
  -4505881.78147  -3466952.98844  23111751.3284                   23111749.9184
 -87463143.93447 -68110670.27344  23309693.3524                   23309691.0474
 -24645863.46947 -19192505.74246  21571178.5234                   21571177.2704
 -67554276.53547 -52594163.54745  21920480.1414                   21920479.8284
  -1742896.54747  -1318059.81644  23665819.8754                   23665821.3554
 -35743599.33646 -27432519.75443  23893681.8524                   23893681.6844
 -55137917.41048 -42951174.75046  20540758.0704                   20540753.6414
 11  8 18  0 39 30.0000000  0  9G12G10G30G17G05G04G25G09G02
 -33290173.78148 -25899267.75846  21104530.0704                   21104526.9064
 -46068089.64148 -35778259.59446  20820186.8054                   20820184.9534
  -4693277.01647  -3612975.18744  23076091.2894                   23076090.2734
 -87503973.55947 -68142485.60544  23301922.7974                   23301921.8324
 -24825967.09447 -19332846.18046  21536906.1644                   21536904.1484
 -67571964.12148 -52607946.10545  21917114.7114                   21917114.3094
  -1935230.40247  -1467930.35544  23629219.9534                   23629221.1414
 -35759253.95347 -27444718.21543  23890702.9614                   23890703.1484
 -55229337.36748 -43022411.06646  20523361.2194                   20523356.9384
 11  8 18  0 40  0.0000000  0  9G12G10G30G17G05G04G25G09G02
 -33437012.85948 -26013687.81246  21076587.2974                   21076584.3524
 -46151666.39848 -35843384.33646  20804282.9534                   20804281.4184
  -4880270.35547  -3758684.23044  23040507.3674                   23040505.7504
 -87544571.74647 -68174120.55144  23294196.6174                   23294196.3244
 -25005644.09447 -19472854.17646  21502714.5474                   21502713.0824
 -67589487.76248 -52621600.91445  21913780.7504                   21913779.7774
  -2127270.75847  -1617572.16844  23592675.9064                   23592677.2234
 -35774748.19147 -27456791.68443  23887754.7814                   23887755.7034
 -55320426.18448 -43093389.35246  20506027.7344                   20506023.1884
 11  8 18  0 40 30.0000000  0  9G12G10G30G17G05G04G25G09G02
 -33583310.71148 -26127686.13746  21048747.8444                   21048745.3364
 -46234550.30948 -35907969.18446  20788510.8054                   20788508.2194
  -5066860.34447  -3904078.96144  23005000.1724                   23004998.2624
 -87584938.84447 -68205575.48044  23286515.5084                   23286515.1764
 -25184893.27048 -19612528.80146  21468604.9384                   21468603.0204
 -67606850.47748 -52635130.29745  21910476.2034                   21910475.6724
  -2319016.29747  -1766984.26244  23556187.6564                   23556189.0634
 -35790086.87147 -27468744.00843  23884835.6564                   23884836.6764
 -55411185.91848 -43164111.20346  20488756.9384                   20488752.3834
 11  8 18  0 41  0.0000000  0  9G12G10G30G17G05G04G25G09G02
 -32153644.05948 -25013660.17246  21320804.3364                   21320801.2384
 -44741323.05948 -34744415.46946  21072662.4144                   21072660.3674
  -3677621.73447  -2821555.32444  23269363.5084                   23269361.6484
 -86049657.50447 -67009252.38344  23578670.6334                   23578669.0274
 -23788289.37548 -18524265.96946  21734369.3914                   21734367.7114
 -66048637.28948 -51420938.23045  22206994.5394                   22206993.7734
   -935041.76247   -688562.50444  23819549.4454                   23819550.8054
 -34229856.60947 -26252980.23443  24181737.3984                   24181739.0234
 -53926198.64148 -42006978.23446  20771340.3444                   20771336.0514
 11  8 18  0 41 30.0000000  0  9G12G10G30G17G05G04G25G09G02
 -32298854.00848 -25126810.78946  21293171.6094                   21293169.0314
 -44822823.20348 -34807922.06246  21057152.9844                   21057151.4144
  -3863397.17647  -2966315.34443  23234011.3364                   23234009.8714
 -86089562.67647 -67040347.35244  23571076.9534                   23571076.4414
 -23966674.38747 -18663267.23046  21700423.7894                   21700422.0434
 -66065684.16048 -51434221.52345  22203750.1724                   22203749.2234
  -1126190.19147   -837509.27744  23783175.1414                   23783176.7234
 -34244894.43446 -26264698.09843  24178876.5314                   24178877.4614
 -54016304.63348 -42077190.68046  20754193.7974                   20754189.7194
 11  8 18  0 42  0.0000000  0  9G12G10G30G17G05G04G25G09G02
 -32443518.25048 -25239536.17646  21265642.6804                   21265640.5274
 -44903633.18448 -34870890.85946  21041775.6174                   21041774.0164
  -4048762.21147  -3110755.58644  23198737.8754                   23198736.4534
 -86129236.96947 -67071262.43044  23563526.7814                   23563525.8244
 -24144625.13748 -18801930.09046  21666561.0394                   21666559.0634
 -66082576.96947 -51447384.75845  22200535.5164                   22200534.5394
  -1317037.14547   -986221.14844  23746857.9224                   23746859.3134
 -34259788.02347 -26276303.59044  24176042.4534                   24176043.8914
 -54106086.55548 -42147150.59846  20737108.6724                   20737104.6294
 11  8 18  0 42 30.0000000  0  9G12G10G30G17G05G04G25G09G02
 -32587633.08648 -25351833.44546  21238219.0314                   21238216.1254
 -44983752.10548 -34933321.18746  21026529.4384                   21026527.5234
  -4233712.60546  -3254872.72344  23163542.8984                   23163540.7814
 -86168678.62147 -67101996.19944  23556021.5784                   23556020.6764
 -24322136.88748 -18940250.88346  21632781.4614                   21632779.5004
 -66099316.03547 -51460428.21945  22197350.4064                   22197348.9064
  -1507578.48047  -1134694.85544  23710599.0704                   23710600.5594
 -34274538.89546 -26287797.89143  24173235.4384                   24173236.6374
 -54195544.20348 -42216857.83646  20720085.4924                   20720081.4104
 11  8 18  0 43  0.0000000  0  9G12G10G30G17G05G04G25G09G02
 -32731196.07048 -25463700.70746  21210899.4924                   21210897.2704
 -45063180.02348 -34995213.07046  21011414.8364                   21011412.6484
  -4418245.10247  -3398664.25044  23128426.9224                   23128426.2384
 -86207886.61747 -67132547.95344  23548560.3834                   23548559.6724
 -24499206.64147 -19078227.26246  21599086.4304                   21599084.4964
 -66115902.50047 -51473352.76645  22194193.7344                   22194192.8364
  -1697811.01247  -1282927.91844  23674398.9694                   23674400.2034
 -34289150.15646 -26299183.39144  24170455.4304                   24170455.7304
 -54284678.23448 -42286312.90246  20703124.0474                   20703119.3634
 11  8 18  0 43 30.0000000  0  9G12G10G30G17G05G04G25G09G02
 -32874205.22348 -25575136.40646  21183686.0394                   21183683.1844
 -45141917.86748 -35056567.22746  20996431.1024                   20996429.4264
  -4602357.27747  -3542128.23044  23093392.1024                   23093390.9494
 -86246860.73047 -67162917.42244  23541143.7734                   23541142.8204
 -24675832.02747 -19215857.37146  21565475.5634                   21565473.9774
 -66132338.48847 -51486160.05945  22191067.3364                   22191065.2774
  -1887732.41447  -1430918.55945  23638258.0234                   23638259.6174
 -34303625.23046 -26310462.78943  24167700.5004                   24167700.9024
 -54373490.10248 -42355516.93446  20686223.6484                   20686219.6174
 11  8 18  0 44  0.0000000  0  9G12G10G30G17G05G04G25G09G02
 -33016658.82048 -25686139.20746  21156578.1334                   21156575.1334
 -45219965.71148 -35117383.73446  20981579.6804                   20981577.8834
  -4786046.00047  -3685262.26644  23058436.9304                   23058435.9574
 -86285600.11747 -67193103.99644  23533772.3914                   23533771.5354
 -24852010.03147 -19353138.87546  21531949.7504                   21531947.5274
 -66148625.35247 -51498851.15645  22187967.3364                   22187965.9774
  -2077339.76247  -1578664.46944  23602177.1094                   23602178.0394
 -34317967.23846 -26321638.47744  24164970.7814                   24164972.1484
 -54461981.06648 -42424470.91846  20669384.5084                   20669379.8054
 11  8 18  0 44 30.0000000  0  9G12G10G30G17G05G04G25G09G02
 -33158553.94148 -25796706.83646  21129576.1724                   21129573.0984
 -45297323.62548 -35177662.61346  20966858.8284                   20966857.3674
  -4969307.78547  -3828063.62944  23023562.8754                   23023562.3954
 -86324104.12947 -67223107.19144  23526444.5634                   23526444.5634
 -25027737.14548 -19490069.05546  21498510.2344                   21498508.4064
 -66164764.15647 -51511426.88345  22184896.4774                   22184895.4774
  -2266629.54747  -1726162.91045  23566156.5164                   23566157.8714
 -34332178.90246 -26332712.58644  24162266.6954                   24162267.9414
 -54550151.14148 -42493174.84446  20652606.2734                   20652601.8524
 11  8 18  0 45  0.0000000  0  9G12G10G30G17G05G04G25G09G02
 -33299889.89848 -25906838.74246  21102680.9454                   21102677.9384
 -45373993.34048 -35237405.24646  20952268.9614                   20952267.5394
  -5152140.82847  -3970530.88344  22988771.5394                   22988770.3674
 -86362373.10947 -67252927.26644  23519162.7194                   23519162.3984
 -25203012.07047 -19626646.84846  21465155.8674                   21465154.7344
 -66180757.66447 -51523889.37945  22181852.6024                   22181852.0784
  -2455600.18747  -1873412.67244  23530196.1884                   23530197.9414
 -34346264.30146 -26343688.32444  24159586.6884                   24159588.3324
 -54638002.52348 -42561630.44946  20635888.5234                   20635884.1724
 11  8 18  0 45 30.0000000  0  9G12G10G30G17G05G04G25G09G02
 -33440664.19148 -26016532.98046  21075892.5084                   21075889.3164
 -45449974.94148 -35296611.67246  20937810.2584                   20937808.4734
  -5334542.06247  -4112661.66444  22954062.0234                   22954060.6804
 -86400405.94147 -67282563.31644  23511925.1024                   23511924.7584
 -25377831.75848 -19762869.92646  21431889.0474                   21431887.2854
 -66196607.22347 -51536239.70745  22178836.6644                   22178835.6134
  -2644248.58647  -2020411.34044  23494297.6644                   23494298.7934
 -34360226.13347 -26354567.81644  24156929.7664                   24156931.6564
 -54725536.72748 -42629838.91446  20619231.2034                   20619226.7344
 11  8 18  0 46  0.0000000  0  9G12G10G30G17G05G04G25G09G02
 -33580875.23848 -26125788.33646  21049211.2504                   21049208.1254
 -45525269.50048 -35355282.76646  20923482.0474                   20923480.2154
  -5516508.97347  -4254453.99644  22919434.9304                   22919433.4804
 -86438202.73447 -67312015.39844  23504732.6954                   23504732.3754
 -25552193.76648 -19898736.37946  21398709.2504                   21398707.3404
 -66212314.79747 -51548479.39545  22175847.6024                   22175846.8164
  -2832572.36347  -2167157.08244  23458460.6954                   23458462.2974
 -34374068.05147 -26365353.83644  24154296.1954                   24154297.8094
 -54812754.65248 -42697800.91846  20602634.2584                   20602630.2274
 11  8 18  0 46 30.0000000  0  9G12G10G30G17G05G04G25G09G02
 -33720521.66048 -26234603.71146  21022637.2584                   21022634.3874
 -45599877.90248 -35413419.17646  20909284.8444                   20909283.0314
  -5698039.23847  -4395906.10544  22884890.5634                   22884889.3524
 -86475763.57046 -67341283.61744  23497584.7114                   23497584.9694
 -25726096.14848 -20034244.66846  21365616.6804                   21365614.8364
 -66227882.49247 -51560610.09845  22172884.7974                   22172884.7704
  -3020569.34447  -2313648.16044  23422686.2274                   23422687.5314
 -34387793.89547 -26376049.40244  24151684.3054                   24151685.6644
 -54899657.93448 -42765517.75046  20586097.0394                   20586092.6764
 11  8 18  0 47  0.0000000  0  9G12G10G30G17G05G04G25G09G02
 -33859603.52348 -26342979.16446  20996170.7894                   20996167.9844
 -45673803.05948 -35471023.18046  20895216.8914                   20895215.1914
  -5879132.24247  -4537017.47744  22850429.9454                   22850428.4144
 -86513089.85546 -67370369.09444  23490481.8054                   23490481.4884
 -25899538.13748 -20169394.22746  21332611.6884                   21332609.8164
 -66243313.82047 -51572634.55545  22169948.3914                   22169947.2464
  -3208238.73447  -2459883.98445  23386974.0634                   23386975.0594
 -34401408.92246 -26386658.61744  24149093.4304                   24149094.6334
 -54986250.00448 -42832992.06646  20569619.2034                   20569615.0314
 11  8 18  0 47 30.0000000  0  9G12G10G30G17G05G04G25G09G02
 -33998117.34048 -26450911.98446  20969812.5234                   20969809.7734
 -45747044.08648 -35528094.11346  20881279.6724                   20881278.3134
  -6059783.44547  -4677784.61344  22816052.7584                   22816051.8444
 -86550179.52347 -67399270.19144  23483423.7034                   23483423.6844
 -26072515.48048 -20304181.71546  21299695.1884                   21299693.0904
 -66258609.00847 -51584552.90645  22167038.4144                   22167036.3404
  -3395576.27747  -2605861.19144  23351324.6174                   23351325.8594
 -34414914.68046 -26397182.69144  24146523.2974                   24146524.5514
 -55072530.12948 -42900223.31646  20553200.7664                   20553196.4104
 11  8 18  0 48  0.0000000  0  9G12G10G30G17G05G04G25G09G02
 -34136060.71548 -26558400.31646  20943563.0234                   20943559.8554
 -45819601.74648 -35584632.53546  20867472.1024                   20867470.7734
  -6239989.84847  -4818205.11744  22781760.7114                   22781759.1334
 -86587032.04746 -67427986.47744  23476410.9144                   23476410.7034
 -26245025.30948 -20438604.91446  21266867.3674                   21266865.6374
 -66273769.20747 -51596366.09445  22164153.4064                   22164151.6914
  -3582578.94947  -2751577.51644  23315738.7814                   23315739.5474
 -34428314.06246 -26407623.89844  24143973.3984                   24143975.0234
 -55158499.32848 -42967212.29746  20536841.3054                   20536836.5044
 11  8 18  0 48 30.0000000  0  9G12G10G30G17G05G04G25G09G02
 -34273436.86348 -26665446.64146  20917420.8054                   20917418.3324
 -45891480.95348 -35640642.30546  20853794.1254                   20853792.1994
  -6419753.56647  -4958280.67644  22747552.2664                   22747551.9304
 -86623651.75447 -67456521.34444  23469442.6174                   23469442.4924
 -26417069.94148 -20572665.64146  21234128.5164                   21234126.2704
 -66288801.12947 -51608079.33245  22161293.5784                   22161291.4414
  -3769248.81647  -2897034.46944  23280216.9534                   23280218.2234
 -34441615.25846 -26417988.59844  24141442.7344                   24141443.8714
 -55244163.64848 -43033963.70746  20520539.9304                   20520535.8284
 11  8 18  0 49  0.0000000  0  9G12G10G30G17G05G04G25G09G02
 -34410239.78148 -26772046.30546  20891388.4694                   20891385.4774
 -45962678.86348 -35696121.18746  20840246.0394                   20840244.3444
  -6599067.55947  -5098005.78944  22713430.2504                   22713428.7624
 -86660033.69147 -67484870.94144  23462519.7504                   23462519.4064
 -26588642.60548 -20706358.56646  21201479.4694                   21201477.2114
 -66303701.79747 -51619690.26645  22158458.0164                   22158455.7814
  -3955578.98847  -3042226.73044  23244759.7114                   23244760.2034
 -34454816.89146 -26428275.68043  24138930.9924                   24138931.0594
 -55329520.17248 -43100475.27346  20504297.2034                   20504292.8874
 11  8 18  0 49 30.0000000  0  9G12G10G30G17G05G04G25G09G02
 -32971045.30148 -25650596.03946  21165258.1174                   21165255.1484
 -44457776.64148 -34523470.09446  21126619.1334                   21126617.3984
  -5202505.77747  -4009775.76644  22979187.5784                   22979185.7734
 -85120759.03947 -66285436.18044  23755434.1254                   23755434.2504
 -25184317.44548 -19612079.18446  21468713.8984                   21468711.4964
 -64743055.00047 -50403601.90245  22455438.6094                   22455437.5314
  -2566143.09047  -1959549.37144  23509159.9224                   23509160.5864
 -32892504.33246 -25210889.37543  24436228.2034                   24436229.4884
 -53839149.66448 -41939147.59446  20787905.1804                   20787900.1564
 11  8 18  0 50  0.0000000  0  9G12G10G30G17G05G04G25G09G02
 -33106699.87148 -25756300.87946  21139443.7344                   21139440.7934
 -44527618.09848 -34577892.00046  21113328.9694                   21113327.1334
  -5380915.82847  -4148796.51244  22945236.8594                   22945235.5474
 -85156667.98447 -66313417.21544  23748600.2034                   23748600.5044
 -25354942.07048 -19745033.40246  21436244.6254                   21436242.8524
 -64757702.01647 -50415015.19145  22452651.3594                   22452650.1884
  -2751789.35547  -2104208.73044  23473832.5394                   23473833.6484
 -32905520.15646 -25221031.66443  24433752.1174                   24433753.4804
 -53923897.66848 -42005185.00446  20771777.8594                   20771773.9144
 11  8 18  0 50 30.0000000  0  9G12G10G30G17G05G04G25G09G02
 -33241776.23048 -25861555.16046  21113739.5704                   21113736.3594
 -44596781.00448 -34631785.16446  21100167.6954                   21100166.0354
  -5558868.35247  -4287460.77044  22911373.7034                   22911372.4064
 -85192338.91446 -66341212.80544  23741812.7894                   23741812.3954
 -25525087.60548 -19877614.30146  21403866.7504                   21403865.2114
 -64772223.03547 -50426330.29345  22449887.7664                   22449887.3324
  -2937088.20347  -2248597.41044  23438571.9774                   23438572.2424
 -32918446.60546 -25231104.34443  24431292.2664                   24431293.7154
 -54008341.40248 -42070985.31646  20755708.8674                   20755704.7234
 11  8 18  0 51  0.0000000  0  9G12G10G30G17G05G04G25G09G02
 -33376273.27748 -25966358.03546  21088145.3054                   21088142.6254
 -44665267.32048 -34685151.10546  21087135.1484                   21087133.1094
  -5736361.15247  -4425766.77744  22877597.7424                   22877595.9384
 -85227771.97347 -66368822.99244  23735070.0784                   23735069.5044
 -25694751.84448 -20009820.15246  21371580.9384                   21371578.9774
 -64786620.20347 -50437548.87945  22447148.3674                   22447147.9804
  -3122037.45347  -2392713.64544  23403377.0084                   23403377.9104
 -32931287.22746 -25241110.06643  24428849.1024                   24428850.1214
 -54092482.80548 -42136550.03946  20739697.3674                   20739693.0784
 11  8 18  0 51 30.0000000  0  9G12G10G30G17G05G04G25G09G02
 -33510186.71548 -26070706.14546  21062662.8134                   21062659.8134
 -44733075.22748 -34737988.42646  21074231.5004                   21074229.8874
  -5913389.26247  -4563710.71944  22843910.2034                   22843908.2934
 -85262963.93747 -66396245.32844  23728373.2584                   23728373.2854
 -25863930.06248 -20141647.28946  21339387.3364                   21339385.6524
 -64800892.73447 -50448670.36745  22444432.9304                   22444431.5124
  -3306632.07847  -2536553.55544  23368249.4454                   23368250.5824
 -32944042.83646 -25251049.62143  24426421.6724                   24426423.4024
 -54176320.74648 -42201878.30946  20723743.7664                   20723739.1914
 11  8 18  0 52  0.0000000  0  9G12G10G30G17G05G04G25G09G02
 -33643515.10948 -26174598.38346  21037291.0394                   21037288.0274
 -44800206.17248 -34790298.23446  21061457.1954                   21061454.9964
  -6089950.47747  -4701290.82044  22810311.9844                   22810309.9454
 -85297915.00447 -66423479.90244  23721722.1484                   23721722.0634
 -26032620.14548 -20273094.06246  21307286.8834                   21307284.8594
 -64815042.79747 -50459696.41845  22441740.6954                   22441739.6094
  -3490869.83647  -2680115.41444  23333190.3594                   23333190.5944
 -32956717.10546 -25260925.75843  24424010.9614                   24424010.9884
 -54259856.78548 -42266971.32846  20707847.1564                   20707842.5084
 11  8 18  0 52 30.0000000  0  9G12G10G30G17G05G04G25G09G02
 -33776258.05548 -26278034.41846  21012030.8204                   21012028.2704
 -44866662.01248 -34842082.00046  21048810.8674                   21048809.2894
  -6266042.62947  -4838505.44144  22776802.0944                   22776800.8874
 -85332625.26646 -66450526.89144  23715117.5164                   23715116.8284
 -26200820.41848 -20404159.17646  21275279.2974                   21275277.4064
 -64829072.41447 -50470628.62145  22439070.3134                   22439069.5274
  -3674748.69147  -2823397.59044  23298199.2814                   23298199.9144
 -32969313.74646 -25270741.41043  24421611.4844                   24421614.4494
 -54343092.97748 -42331830.69946  20692008.1564                   20692004.0354
 11  8 18  0 53  0.0000000  0  9G12G10G30G17G05G04G25G09G02
 -33908413.47748 -26381012.65246  20986882.4844                   20986879.7194
 -44932444.02048 -34893340.70346  21036293.0164                   21036290.6174
  -6441663.38747  -4975352.72344  22743382.9924                   22743381.8834
 -85367094.64846 -66477386.20744  23708558.1484                   23708557.8634
 -26368528.66448 -20534840.87946  21243365.1804                   21243363.6054
 -64842983.42247 -50481468.40645  22436423.3444                   22436421.8054
  -3858266.18447  -2966398.19145  23263276.8054                   23263277.1994
 -32981836.33246 -25280499.32843  24419230.3204                   24419231.5204
 -54426030.47348 -42396457.33246  20676225.4454                   20676220.7384
 11  8 18  0 53 30.0000000  0  9G12G10G30G17G05G04G25G09G02
 -34039984.49248 -26483535.52046  20961845.2034                   20961842.1884
 -44997557.91448 -34944078.78946  21023902.6334                   21023900.4344
  -6616814.74247  -5111834.26244  22710053.1954                   22710050.9734
 -85401327.61747 -66504061.23044  23702043.9384                   23702043.8284
 -26535746.98448 -20665140.83646  21211544.6254                   21211543.2974
 -64856782.06647 -50492220.58245  22433797.0474                   22433797.0314
  -4041424.26247  -3109118.72345  23228423.3134                   23228423.7894
 -32994292.44146 -25290205.48843  24416860.0634                   24416860.9264
 -54508675.19548 -42460855.81246  20660498.4924                   20660494.2974
 11  8 18  0 54  0.0000000  0  9G12G10G30G17G05G04G25G09G02
 -34170965.76648 -26585598.83246  20936920.3674                   20936917.5594
 -45062000.92248 -34994294.11346  21011639.2734                   21011637.5084
  -6791489.96947  -5247944.78544  22676813.2664                   22676811.4104
 -85435319.74246 -66530548.64844  23695575.5314                   23695574.7624
 -26702468.87948 -20795053.95746  21179818.6804                   21179816.8554
 -64870465.68447 -50502883.19145  22431193.7424                   22431192.8954
  -4224216.23447  -3251553.99245  23193639.5394                   23193639.7154
 -33006681.32846 -25299859.27343  24414502.6094                   24414503.6994
 -54591024.25048 -42525023.91046  20644828.3594                   20644823.5594
 11  8 18  0 54 30.0000000  0  9G12G10G30G17G05G04G25G09G02
 -34301358.88348 -26687203.84046  20912107.4694                   20912104.3484
 -45125777.62948 -35043990.24246  20999503.0084                   20999500.9494
  -6965689.79347  -5383684.84844  22643663.4924                   22643662.3874
 -85469074.15647 -66556850.78144  23689152.3054                   23689151.8914
 -26868695.50448 -20924581.15646  21148186.5944                   21148184.7194
 -64884039.29747 -50513460.04745  22428610.7504                   22428609.2464
  -4406642.83247  -3393704.52345  23158924.3054                   23158924.9454
 -33019009.47746 -25309465.72743  24412156.5944                   24412158.4144
 -54673082.55548 -42588965.46146  20629212.6724                   20629208.4264
 11  8 18  0 55  0.0000000  0  9G12G10G30G17G05G04G25G09G02
 -34431159.81648 -26788347.42246  20887407.2194                   20887404.3094
 -45188886.23047 -35093165.76646  20987493.6024                   20987491.3134
  -7139409.24647  -5519050.60944  22610606.1644                   22610604.7934
 -85502587.95347 -66582965.41444  23682775.1644                   23682773.9344
 -27034422.30548 -21053718.88746  21116650.0554                   21116647.8594
 -64897501.79747 -50523950.33645  22426048.4144                   22426047.4694
  -4588698.94147  -3535566.38745  23124280.2114                   23124280.7384
 -33031277.59046 -25319025.41044  24409821.6644                   24409824.1954
 -54754848.61348 -42652679.28546  20613653.4064                   20613649.3524
 11  8 18  0 55 30.0000000  0  9G12G10G30G17G05G04G25G09G02
 -34560363.96148 -26889025.96546  20862820.6024                   20862817.6134
 -45251325.30948 -35141819.57446  20975611.7344                   20975609.8914
  -7312642.59847  -5654037.58245  22577641.0394                   22577639.9964
 -85535857.88746 -66608890.07444  23676443.3984                   23676442.3444
 -27199643.36348 -21182462.53146  21085209.1724                   21085207.4694
 -64910851.98047 -50534353.07445  22423507.8674                   22423507.6334
  -4770378.93447  -3677135.13745  23089707.8204                   23089708.3634
 -33043485.88746 -25328538.49644  24407498.2344                   24407501.4924
 -54836320.62548 -42716163.97346  20598149.9694                   20598145.4654
 11  8 18  0 56  0.0000000  0  9G12G10G30G17G05G04G25G09G02
 -34688976.04348 -26989243.16446  20838346.5004                   20838343.4804
 -45313102.14148 -35189957.35946  20963856.1644                   20963854.1524
  -7485393.40247  -5788648.54345  22544767.0944                   22544766.6764
 -85568890.07846 -66634629.43444  23670158.0554                   23670157.2704
 -27364362.66848 -21310815.19946  21053864.0084                   21053862.6134
 -64924097.18047 -50544674.03544  22420988.0314                   22420987.0084
  -4951686.17247  -3818413.43444  23055205.7584                   23055206.4024
 -33055643.55946 -25338012.13344  24405185.1024                   24405186.9804
 -54917506.00848 -42779425.30146  20582700.6484                   20582696.3164
 11  8 18  0 56 30.0000000  0  9G12G10G30G17G05G04G25G09G02
 -34816996.72348 -27088999.52346  20813984.5234                   20813981.7384
 -45374220.48048 -35237582.02746  20952225.2504                   20952223.5164
  -7657661.38747  -5922883.28945  22511985.7344                   22511984.5394
 -85601686.02346 -66660184.73444  23663917.0164                   23663917.0904
 -27528580.46148 -21438777.07446  21022614.5004                   21022613.0904
 -64937241.14547 -50554916.08245  22418486.8674                   22418485.9774
  -5132620.38747  -3959401.07444  23020775.4694                   23020776.2734
 -33067755.92647 -25347450.51244  24402881.2114                   24402882.6414
 -54998407.79348 -42842465.66846  20567306.0474                   20567301.3484
 11  8 18  0 57  0.0000000  0  9G12G10G30G17G05G04G25G09G02
 -34944417.65648 -27188288.57046  20789737.0634                   20789734.3914
 -45434674.64148 -35284689.16046  20940721.7034                   20940720.0634
  -7829437.03947  -6056734.40644  22479298.6024                   22479296.8954
 -85634238.56246 -66685550.34444  23657722.8674                   23657722.8484
 -27692287.10948 -21566340.66046  20991462.1954                   20991460.2814
 -64950278.51247 -50565075.08245  22416005.8674                   22416005.6094
  -5313171.96547  -4100090.52044  22986417.5704                   22986417.9574
 -33079819.13746 -25356850.52744  24400585.1884                   24400586.6334
 -55079021.00048 -42905281.15246  20551965.4224                   20551961.0594
 11  8 18  0 57 30.0000000  0  9G12G10G30G17G05G04G25G09G02
 -33495816.39548 -26059508.35946  21065397.2974                   21065394.1684
 -43919047.03548 -34103680.60946  21229136.0314                   21229134.0984
  -6425295.12147  -4962597.80144  22746497.6484                   22746496.2504
 -84091129.48846 -65483127.67243  23951366.0554                   23951365.4534
 -26280058.02348 -20465902.36746  21260200.9064                   21260198.4024
 -63387793.45347 -49347554.25844  22713336.8834                   22713335.5944
  -3917915.38747  -3012877.55545  23251925.7974                   23251926.1134
 -31516418.92647 -24138616.74244  24698090.6334                   24698091.8364
 -53583926.91448 -41740272.77746  20836472.1334                   20836468.1564
 11  8 18  0 58  0.0000000  0  9G12G10G30G17G05G04G25G09G02
 -33622039.06248 -26157863.68446  21041377.5394                   21041374.5044
 -43978182.36348 -34149760.09046  21217882.8754                   21217881.0004
  -6596084.14847  -5095680.10544  22713997.3134                   22713996.0984
 -84123200.27346 -65508117.97344  23945263.9304                   23945263.3014
 -26442741.52748 -20592668.69546  21229242.8674                   21229241.0704
 -63400628.02347 -49357555.20745  22710894.5554                   22710893.7734
  -4097699.58247  -3152969.06245  23217714.0164                   23217714.2584
 -31528399.02347 -24147952.05543  24695810.9304                   24695812.2384
 -53663971.54348 -41802645.21546  20821240.5704                   20821236.4654
 11  8 18  0 58 30.0000000  0  9G12G10G30G17G05G04G25G09G02
 -33747661.49248 -26255751.29346  21017472.6174                   21017469.4384
 -44036660.97748 -34195327.81646  21206755.1334                   21206753.5554
  -6766377.00847  -5228375.78944  22681590.8914                   22681589.9224
 -84155030.53146 -65532920.75844  23939206.0474                   23939205.8244
 -26604910.97348 -20719034.45746  21198382.8134                   21198381.0744
 -63413363.96547 -49367479.30945  22708470.7584                   22708469.4774
  -4277097.06247  -3292759.24644  23183576.2894                   23183576.3364
 -31540343.14847 -24157259.30943  24693538.4304                   24693539.7034
 -53743734.56248 -41864798.22346  20806062.1254                   20806057.3674
 11  8 18  0 59  0.0000000  0  9G12G10G30G17G05G04G25G09G02
 -33872680.32848 -26353168.55946  20993682.2974                   20993679.3524
 -44094482.73848 -34240383.71546  21195751.8444                   21195750.1884
  -6936169.31647  -5360681.41844  22649281.1174                   22649279.3484
 -84186618.59846 -65557534.85244  23933194.4844                   23933194.1564
 -26766562.32448 -20844996.51246  21167621.7424                   21167619.8524
 -63426001.15647 -49377326.48045  22706066.0704                   22706065.3244
  -4456103.34047  -3432244.59044  23149511.9064                   23149512.2974
 -31552252.55146 -24166539.53543  24691272.4614                   24691274.0864
 -53823215.42648 -41926731.34846  20790937.3914                   20790932.5394
 11  8 18  0 59 30.0000000  0  9G12G10G30G17G05G04G25G09G02
 -33997099.68748 -26450118.71946  20970005.8364                   20970003.0044
 -44151654.52748 -34284933.16446  21184871.6644                   21184870.6294
  -7105463.90647  -5492599.24645  22617065.8754                   22617063.9574
 -84217969.27346 -65581963.99644  23927229.0394                   23927228.8954
 -26927698.89848 -20970557.43446  21136958.4064                   21136956.3634
 -63438546.37147 -49387101.98844  22703678.7114                   22703678.0394
  -4634721.22347  -3571427.28545  23115521.7424                   23115522.0984
 -31564135.59846 -24175799.23043  24689011.4924                   24689012.8164
 -53902420.57848 -41988449.64146  20775864.8834                   20775860.6294
 11  8 18  1  0  0.0000000  0  9G12G10G30G17G05G04G25G09G02
 -34120913.43448 -26546596.95746  20946444.9224                   20946442.0784
 -44208173.35948 -34328973.79746  21174117.1174                   21174114.5084
  -7274253.73047  -5624123.74645  22584945.8674                   22584944.3164
 -84249077.66446 -65606204.26644  23921309.8054                   23921309.7624
 -27088313.64548 -21095711.75046  21106394.3594                   21106392.6684
 -63450996.46547 -49396803.35244  22701309.4534                   22701309.0664
  -4812943.54747  -3710301.75045  23081607.9224                   23081607.5744
 -31575990.79346 -24185037.17643  24686754.7344                   24686756.9024
 -53981347.02048 -42049950.76646  20760845.7274                   20760841.6764
 11  8 18  1  0 30.0000000  0  9G12G10G30G17G05G04G25G09G02
 -34244124.71948 -26642605.74646  20922998.6334                   20922996.0314
 -44264044.69548 -34372509.89146  21163485.0704                   21163483.3484
  -7442540.66847  -5755256.38345  22552922.0634                   22552920.3164
 -84279948.00846 -65630259.12944  23915435.8054                   23915435.1994
 -27248408.98848 -21220461.33646  21075929.2894                   21075927.3874
 -63463357.26647 -49406435.17644  22698956.6644                   22698957.2544
  -4990772.04347  -3848869.35945  23047768.1024                   23047768.5164
 -31587825.58646 -24194259.25843  24684502.1094                   24684505.8164
 -54060000.19548 -42111238.94546  20745878.7504                   20745874.2584
 11  8 18  1  1  0.0000000  0  9G12G10G30G17G05G04G25G09G02
 -34366730.49648 -26738142.72346  20899667.8594                   20899664.7384
 -44319268.49648 -34415541.39546  21152975.8524                   21152974.2584
  -7610320.40647  -5885993.81645  22520994.5554                   22520992.4804
 -84310578.44546 -65654127.01244  23909606.8914                   23909606.3834
 -27407980.71148 -21344802.90246  21045563.4924                   21045561.8754
 -63475628.19947 -49415996.96945  22696622.2034                   22696621.8914
  -5168202.27347  -3987126.63345  23014004.2114                   23014004.7234
 -31599641.26646 -24203466.38343  24682253.6024                   24682257.7344
 -54138379.20348 -42172313.50046  20730963.4844                   20730959.3634
 11  8 18  1  1 30.0000000  0  9G12G10G30G17G05G04G25G09G02
 -34488728.44948 -26833206.07046  20876452.6414                   20876449.3014
 -44373845.52748 -34458068.96146  21142590.5944                   21142588.9144
  -7777589.95347  -6016333.69545  22489164.0944                   22489162.8754
 -84340968.12147 -65677807.28544  23903824.4224                   23903823.1684
 -27567026.27348 -21468734.47746  21015298.5164                   21015296.5084
 -63487810.13347 -49425489.40644  22694303.8674                   22694304.0944
  -5345231.19947  -4125071.18745  22980316.0234                   22980317.2704
 -31611440.41045 -24212660.57842  24680008.0004                   24680012.5164
 -54216485.05948 -42233175.19546  20716100.6564                   20716096.2154
 11  8 18  1  2  0.0000000  0  9G12G10G30G17G05G04G25G09G02
 -34610122.16448 -26927798.57446  20853351.4304                   20853348.8754
 -44427781.64848 -34500097.09846  21132327.2424                   21132324.9774
  -7944351.31647  -6146277.59445  22457430.4694                   22457428.6134
 -84371120.82047 -65701302.91044  23898086.5944                   23898085.5274
 -27725547.82048 -21592257.72346  20985132.4774                   20985130.8754
 -63499909.13347 -49434917.21144  22692001.6174                   22692001.0124
  -5521860.55147  -4262704.39545  22946704.6484                   22946705.5124
 -31623230.29745 -24221847.73042  24677764.6564                   24677769.1334
 -54294323.35248 -42293828.40646  20701288.5234                   20701283.9574
 11  8 18  1  2 30.0000000  0  9G12G10G30G17G05G04G25G09G02
 -34730907.72748 -27021917.18746  20830366.9384                   20830364.3244
 -44481075.69948 -34541624.91046  21122185.3674                   21122183.6214
  -8110598.96947  -6275821.18445  22425794.3444                   22425792.8954
 -84401033.51247 -65724611.52044  23892393.8524                   23892393.3364
 -27883540.11748 -21715368.56246  20955067.7034                   20955066.1804
 -63511923.18447 -49444278.80544  22689715.3984                   22689715.2854
  -5698084.67647  -4400021.85245  22913170.4694                   22913170.8284
 -31635011.02346 -24231027.68442  24675524.1724                   24675527.0594
 -54371891.88748 -42354271.40246  20686527.8444                   20686523.3244
 11  8 18  1  3  0.0000000  0  9G12G10G30G17G05G04G25G09G02
 -34851081.39548 -27115558.99646  20807498.6094                   20807495.7854
 -44533727.45748 -34582652.24646  21112165.9694                   21112164.3364
  -8276328.71147  -6404961.22745  22394257.4774                   22394255.4104
 -84430704.55547 -65747731.79744  23886748.6484                   23886747.3794
 -28040999.68448 -21838064.30146  20925104.1564                   20925101.9454
 -63523852.01647 -49453574.04345  22687446.0164                   22687445.4184
  -5873899.33647  -4537020.24245  22879713.4694                   22879714.6134
 -31646783.61746 -24240201.28143  24673283.9304                   24673286.2854
 -54449190.28948 -42414503.92646  20671818.2194                   20671813.6484
 11  8 18  1  3 30.0000000  0  9G12G10G30G17G05G04G25G09G02
 -34970644.03548 -27208724.69546  20784746.5864                   20784743.7114
 -44585740.35948 -34623181.77045  21102268.3204                   21102266.6764
  -8441539.85247  -6533697.16445  22362818.2894                   22362816.5704
 -84460135.30147 -65770664.87544  23881148.1254                   23881146.4184
 -28197925.95748 -21960344.46946  20895242.1724                   20895239.9144
 -63535698.73847 -49462805.26644  22685191.4384                   22685190.4104
  -6049303.61347  -4673698.87145  22846335.5474                   22846335.9774
 -31658553.16846 -24249372.45743  24671044.0394                   24671046.1254
 -54526221.56648 -42474528.28946  20657159.7194                   20657155.6294
 11  8 18  1  4  0.0000000  0  9G12G10G30G17G05G04G25G09G02
 -35089599.17248 -27301417.00446  20762110.1024                   20762107.5124
 -44637120.56248 -34663218.27046  21092490.7194                   21092488.8244
  -8606234.61747  -6662030.74645  22331478.0784                   22331476.4734
 -84489330.06646 -65793414.06644  23875591.4694                   23875589.9104
 -28354321.43048 -22082211.03946  20865480.9534                   20865478.5474
 -63547469.41447 -49471977.20344  22682951.3054                   22682950.7504
  -6224299.59047  -4810059.32445  22813034.8834                   22813035.5234
 -31670327.21546 -24258547.21943  24668804.1094                   24668806.3204
 -54602991.53148 -42534349.02346  20642550.5784                   20642546.5004
 11  8 18  1  4 30.0000000  0  9G12G10G30G17G05G04G25G09G02
 -35207944.28148 -27393633.95346  20739589.9454                   20739587.2384
 -44687868.32048 -34702761.97746  21082833.9304                   21082831.9654
  -8770409.23047  -6789958.99645  22300236.8754                   22300235.0554
 -84518287.45747 -65815978.27044  23870080.7664                   23870081.1954
 -28510182.38748 -22203661.10946  20835821.7034                   20835819.5944
 -63559163.80147 -49481089.71144  22680726.1334                   22680725.5124
  -6398883.33247  -4946098.57445  22779812.7584                   22779813.1684
 -31682107.03947 -24267726.48443  24666563.3204                   24666565.7584
 -54679499.92648 -42593965.95346  20627991.8204                   20627987.2584
 11  8 18  1  5  0.0000000  0  9G12G10G30G17G05G04G25G09G02
 -35325676.33248 -27485373.19946  20717186.1724                   20717183.4064
 -44737983.23448 -34741812.54346  21073297.6804                   21073295.9924
  -8934059.46947  -6917478.64545  22269095.0704                   22269093.5084
 -84547005.37546 -65838355.85244  23864616.0314                   23864616.1094
 -28665505.60948 -22324692.16046  20806264.3524                   20806262.7624
 -63570781.43447 -49490142.43045  22678515.6884                   22678514.6644
  -6573050.35547  -5081813.12545  22746669.4614                   22746670.7974
 -31693893.93046 -24276911.23843  24664320.2274                   24664322.5314
 -54755746.21148 -42653378.62546  20613482.7274                   20613478.0044
 11  8 18  1  5 30.0000000  0  9G12G10G30G17G05G04G25G09G02
 -35442795.31248 -27576634.73446  20694899.3524                   20694896.4884
 -44787469.03548 -34780372.91046  21063880.5314                   21063879.0554
  -9097184.63747  -7044589.17645  22238053.4454                   22238052.0474
 -84575485.29746 -65860548.01243  23859197.1484                   23859195.2584
 -28820290.57448 -22445303.78946  20776809.6564                   20776807.8484
 -63582325.25447 -49499137.63744  22676318.6484                   22676317.7304
  -6746799.85547  -5217202.32445  22713606.5704                   22713606.8164
 -31705692.58247 -24286105.17243  24662074.5784                   24662077.9414
 -54831732.98848 -42712589.09446  20599022.9224                   20599018.2234
 11  8 18  1  6  0.0000000  0  9G12G10G30G17G05G04G25G09G02
 -33983877.46148 -26439815.61746  20972521.8674                   20972518.9614
 -43260906.28147 -33590843.48846  21354375.9614                   21354374.0124
  -7684357.53547  -5943684.91445  22506905.2194                   22506903.9454
 -83028306.73846 -64654954.36743  24153614.8364                   24153613.9574
 -27399110.43748 -21337890.65646  21047251.6174                   21047249.6054
 -62018376.87547 -48280476.55544  22973928.3444                   22973926.8094
  -5344704.05547  -4124660.14145  22980416.3524                   22980416.9494
 -30142086.32847 -23067710.89843  24959619.4694                   24959621.6484
 -53332039.68448 -41543996.89546  20884404.9924                   20884400.6484
 11  8 18  1  6 30.0000000  0  9G12G10G30G17G05G04G25G09G02
 -34099767.73848 -26530119.71946  20950468.9144                   20950465.6994
 -43309138.37948 -33628426.91046  21345197.6414                   21345195.3674
  -7846424.90647  -6069971.17245  22476065.0704                   22476063.6054
 -83056309.61746 -64676774.77343  24148286.4924                   24148285.7304
 -27552811.80948 -21457657.92246  21018003.0784                   21018001.0204
 -62029776.46147 -48289359.37544  22971758.3284                   22971757.6294
  -5517610.21947  -4259392.19945  22947513.4144                   22947513.9924
 -30153916.97347 -23076929.74643  24957368.3444                   24957370.6844
 -53407510.85248 -41602805.59446  20870042.9844                   20870038.7814
 11  8 18  1  7  0.0000000  0  9G12G10G30G17G05G04G25G09G02
 -34215043.93048 -26619945.30946  20928532.7194                   20928529.8484
 -43356748.03148 -33665525.33246  21336137.8594                   21336135.7504
  -8007961.80947  -6195844.06645  22445325.3674                   22445324.2934
 -83084075.62546 -64698410.63343  24143002.5394                   24143001.8164
 -27705970.53948 -21577002.35246  20988857.6804                   20988855.3244
 -62041107.81247 -48298189.01644  22969602.7344                   22969601.6604
  -5690092.88348  -4393794.29345  22914691.5784                   22914691.7114
 -30165769.88747 -23086166.00043  24955112.7034                   24955114.6724
 -53482727.82448 -41661416.21546  20855729.6024                   20855725.8674
 11  8 18  1  7 30.0000000  0  8G12G10G30G17G05G04G25G02
 -34329705.47748 -26709291.96146  20906713.1254                   20906710.1524
 -43403737.93448 -33702140.83646  21327195.7734                   21327194.0864
  -8168966.68747  -6321302.38345  22414687.2664                   22414685.9144
 -83111605.18746 -64719862.29743  24137763.5394                   24137763.3204
 -27858585.33248 -21695922.93746  20959816.0944                   20959813.9694
 -62052372.81647 -48306966.96544  22967458.8524                   22967457.5274
  -5862150.17248  -4527864.90645  22881949.7034                   22881950.1804
 -53557692.58248 -41719830.30546  20841464.6564                   20841460.3244
 11  8 18  1  8  0.0000000  0  8G12G10G30G17G05G04G25G02
 -34443748.05148 -26798156.29346  20885011.6804                   20885008.2814
 -43450106.28148 -33738272.00446  21318372.4694                   21318370.4734
  -8329433.65647  -6446341.56245  22384151.4844                   22384149.3954
 -83138894.86346 -64741127.01244  24132570.9384                   24132569.9264
 -28010650.64848 -21814415.35246  20930879.1414                   20930877.3164
 -62063569.30147 -48315691.51244  22965328.8594                   22965327.3404
  -6033776.03548  -4661599.34845  22849290.6644                   22849291.0514
 -53632402.62948 -41778045.91846  20827247.7034                   20827243.4654
 11  8 18  1  8 30.0000000  0  8G12G10G30G17G05G04G25G02
 -34557170.81648 -26886537.66046  20863428.3134                   20863425.1644
 -43495855.18447 -33773920.48846  21309666.1954                   21309664.4844
  -8489360.71147  -6570960.01645  22353718.3754                   22353716.8404
 -83165944.86746 -64762204.96144  24127422.8674                   24127423.6954
 -28162164.97748 -21932478.43446  20902046.8594                   20902045.3244
 -62074698.74647 -48324363.83244  22963210.4304                   22963209.3794
  -6204968.18448  -4794995.84445  22816714.1094                   22816713.8244
 -53706859.44548 -41836064.21146  20813079.1564                   20813074.3284
 11  8 18  1  9  0.0000000  0  8G12G10G30G17G05G04G25G02
 -34669968.92248 -26974432.28146  20841963.2114                   20841960.1374
 -43540982.38348 -33809084.52046  21301079.1804                   21301076.8524
  -8648741.54747  -6695152.85245  22323389.0234                   22323387.2624
 -83192750.80546 -64783092.70344  24122322.4304                   24122322.6604
 -28313122.36748 -22050107.53946  20873320.7344                   20873318.3204
 -62085758.29747 -48332981.71144  22961106.0554                   22961104.6414
  -6375720.16847  -4928049.32845  22784220.5944                   22784221.0984
 -53781060.11748 -41893882.91046  20798959.1484                   20798954.8324
 11  8 18  1  9 30.0000000  0  8G12G10G30G17G05G04G25G02
 -34782139.91448 -27061838.23046  20820617.6024                   20820614.6804
 -43585488.64848 -33843764.71145  21292609.1884                   21292607.6294
  -8807572.53947  -6818917.20745  22293164.4454                   22293162.5664
 -83219311.29346 -64803789.21543  24117267.7664                   24117267.0744
 -28463519.36748 -22167299.97346  20844700.9384                   20844698.6764
 -62096747.77347 -48341544.97344  22959014.6414                   22959013.3594
  -6546028.03947  -5060756.74645  22751812.3754                   22751812.1804
 -53855004.52048 -41951501.91846  20784887.9144                   20784883.3324
 11  8 18  1 10  0.0000000  0  8G12G10G30G17G05G04G25G02
 -34893685.35948 -27148756.75446  20799391.7344                   20799388.6174
 -43629377.96948 -33877964.17645  21284257.3204                   21284255.5314
  -8965853.80147  -6942253.22345  22263044.7424                   22263043.0784
 -83245628.96546 -64824296.53944  24112260.1024                   24112259.5474
 -28613356.96148 -22284056.50846  20816187.6334                   20816185.8324
 -62107670.83247 -48350056.47344  22956936.2734                   22956935.1254
  -6715891.70348  -5193118.02745  22719488.3754                   22719487.9534
 -53928696.08648 -42008923.91046  20770864.9694                   20770860.7034
 11  8 18  1 10 30.0000000  0  8G12G10G30G17G05G04G25G02
 -35004607.25848 -27235189.39546  20778283.6024                   20778280.7974
 -43672655.30148 -33911686.76645  21276022.5314                   21276020.2034
  -9123586.04347  -7065161.40245  22233029.3674                   22233027.7114
 -83271705.91846 -64844616.24243  24107297.3914                   24107297.1174
 -28762635.72348 -22400377.58646  20787781.2344                   20787779.1994
 -62118531.48047 -48358519.33244  22954869.4924                   22954868.4104
  -6885311.44947  -5325133.38745  22687248.6644                   22687248.7384
 -54002139.14548 -42066152.27346  20756889.2194                   20756884.7074
 11  8 18  1 11  0.0000000  0  8G12G10G30G17G05G04G25G02
 -35114905.82448 -27321136.31646  20757294.5234                   20757291.4964
 -43715323.80548 -33944934.93045  21267903.1094                   21267900.6484
  -9280768.21947  -7187640.98045  22203119.0474                   22203116.8794
 -83297543.83246 -64864749.72743  24102381.1884                   24102380.9694
 -28911355.12948 -22516262.80946  20759480.6954                   20759478.6484
 -62129332.23047 -48366935.52744  22952814.8444                   22952813.1884
  -7054286.10547  -5456801.92645  22655093.4454                   22655094.6954
 -54075335.74648 -42123188.57046  20742960.3134                   20742955.9494
 11  8 18  1 11 30.0000000  0  8G12G10G30G17G05G04G25G02
 -35224583.07848 -27406599.10946  20736423.5084                   20736420.4694
 -43757388.27348 -33977712.43046  21259898.5944                   21259896.2114
  -9437401.01647  -7309692.46145  22173311.7274                   22173310.0904
 -83323145.16446 -64884698.84844  24097509.0004                   24097508.9454
 -29059516.46548 -22631713.17246  20731286.6024                   20731284.2934
 -62140076.99247 -48375308.09444  22950769.5474                   22950768.3674
  -7222816.08647  -5588123.94545  22623023.3984                   22623023.9264
 -54148290.00848 -42180036.04746  20729077.7034                   20729073.3794
 11  8 18  1 12  0.0000000  0  8G12G10G30G17G05G04G25G02
 -35333639.21148 -27491577.90646  20715670.9064                   20715667.8204
 -43798851.68048 -34010021.55546  21252008.1024                   21252005.6524
  -9593483.26247  -7431314.94545  22143610.6174                   22143608.9184
 -83348510.81246 -64904464.29343  24092682.3914                   24092682.2114
 -29207118.83248 -22746727.97346  20703198.7194                   20703196.2424
 -62150768.14847 -48383638.88344  22948734.8984                   22948734.0394
  -7390899.92647  -5719098.32045  22591038.2894                   22591038.8134
 -54221004.15248 -42236696.40246  20715240.5704                   20715236.0864
 11  8 18  1 12 30.0000000  0  8G12G10G30G17G05G04G25G02
 -35442076.03148 -27576074.12146  20695036.1724                   20695032.9264
 -43839718.52748 -34041865.83646  21244231.5864                   21244229.3324
  -9749015.37147  -7552508.74645  22114013.8284                   22114012.2424
 -83373643.31646 -64924048.07843  24087899.8674                   24087899.0394
 -29354163.09848 -22861307.89146  20675217.1884                   20675214.9184
 -62161409.07047 -48391930.53144  22946709.6804                   22946709.0904
  -7558537.67647  -5849725.08645  22559137.8524                   22559138.3094
 -54293481.77348 -42293172.48046  20701448.5864                   20701444.0594
 11  8 18  1 13  0.0000000  0  8G12G10G30G17G05G04G25G02
 -35549891.09848 -27660085.85546  20674519.4144                   20674517.0824
 -43879988.96947 -34073245.39146  21236567.8444                   21236566.0354
  -9903993.37547  -7673270.76645  22084522.1724                   22084521.1604
 -83398540.73046 -64943448.68043  24083162.2114                   24083161.8874
 -29500645.79748 -22975450.21546  20647342.3674                   20647340.2274
 -62171999.10547 -48400182.55944  22944694.8284                   22944693.7154
  -7725725.02747  -5980000.88745  22527323.1414                   22527323.6294
 -54365721.76248 -42349463.37146  20687701.4614                   20687697.4454
 11  8 18  1 13 30.0000000  0  8G12G10G30G17G05G04G25G02
 -35657082.52048 -27743611.63346  20654121.7194                   20654118.8984
 -43919664.34447 -34104161.28146  21229018.5084                   21229016.2034
 -10058414.01247  -7793598.49245  22055137.1414                   22055135.3094
 -83423202.10546 -64962665.42643  24078469.1954                   24078468.5084
 -29646563.78148 -23089152.51246  20619575.0084                   20619572.7774
 -62182538.47747 -48408395.08244  22942689.8284                   22942688.3754
  -7892458.53147  -6109923.03545  22495594.6804                   22495595.2304
 -54437724.85248 -42405569.66846  20674000.0394                   20673995.4804
 11  8 18  1 14  0.0000000  0  8G12G10G30G17G05G04G25G02
 -35763653.87948 -27826654.25046  20633841.6414                   20633838.7774
 -43958750.90248 -34134618.32846  21221580.7424                   21221578.2704
 -10212279.66447  -7913493.77045  22025857.3444                   22025855.5234
 -83447631.72746 -64981701.49643  24073820.2034                   24073820.2734
 -29791919.90648 -23202416.99246  20591914.3364                   20591912.3714
 -62193032.81647 -48416572.51244  22940692.0394                   22940691.5824
  -8058740.18747  -6239493.09845  22463952.1414                   22463952.8594
 -54509496.30948 -42461495.46946  20660342.4304                   20660337.8594
 11  8 18  1 14 30.0000000  0  8G12G10G30G17G05G04G25G02
 -34294180.46948 -26681610.03146  20913473.4534                   20913470.6134
 -42421828.90247 -32937016.76245  21514046.8054                   21514044.9774
  -8790162.71547  -6805350.65645  22296477.3204                   22296475.5824
 -81896408.42246 -63772956.03143  24369008.3594                   24369008.5594
 -28361287.43448 -22087638.40646  20864154.8674                   20864152.7894
 -60628062.40647 -47197115.07444  23238496.3834                   23238495.3094
  -6649141.70347  -5141104.60945  22732189.6724                   22732190.0274
 -53005614.61348 -41289639.59446  20946521.3914                   20946516.9924
 11  8 18  1 15  0.0000000  0  8G12G10G30G17G05G04G25G02
 -34399510.93448 -26763685.72346  20893429.4534                   20893426.8204
 -42459745.10247 -32966561.85246  21506831.8204                   21506829.9304
  -8942913.34847  -6924377.08245  22267409.9224                   22267407.8954
 -81920375.82046 -63791631.95343  24364447.7194                   24364447.3404
 -28505516.43748 -22200024.61746  20836709.1804                   20836706.9774
 -60638471.02747 -47205225.69944  23236515.8914                   23236514.6254
  -6814513.68048  -5269965.84445  22700720.7034                   22700720.6254
 -53076927.57048 -41345208.11746  20932951.0084                   20932946.2894
 11  8 18  1 15 30.0000000  0  8G12G10G30G17G05G04G25G02
 -34504217.88348 -26845275.54346  20873504.2194                   20873501.3164
 -42497077.62548 -32995652.11745  21499727.6254                   21499725.8524
  -9095101.43447  -7042965.14845  22238449.3134                   22238447.4964
 -81944110.10546 -63810126.23843  24359931.0704                   24359930.6374
 -28649177.39548 -22311968.18046  20809371.2974                   20809368.9774
 -60648836.59047 -47213302.75844  23234543.4064                   23234542.2664
  -6979425.26647  -5398468.32445  22669338.8984                   22669339.2974
 -53148010.92248 -41400597.74246  20919424.3594                   20919420.0354
 11  8 18  1 16  0.0000000  0  8G12G10G30G17G05G04G25G02
 -34608304.31648 -26926381.85546  20853697.3594                   20853694.6954
 -42533831.64547 -33024291.62545  21492732.9384                   21492731.5904
  -9246728.11747  -7161115.77745  22209595.9924                   22209594.0044
 -81967614.06646 -63828440.97743  24355457.8984                   24355458.5394
 -28792271.89848 -22423470.36346  20782141.2974                   20782138.9414
 -60659163.18047 -47221349.45344  23232578.5554                   23232576.9884
  -7143877.20748  -5526612.63745  22638044.7504                   22638044.6374
 -53218868.91848 -41455811.75846  20905940.2814                   20905936.0164
 11  8 18  1 16 30.0000000  0  8G12G10G30G17G05G04G25G02
 -34711771.32448 -27007005.49246  20834008.2504                   20834005.4734
 -42570011.18048 -33052483.46145  21485848.6724                   21485846.6484
  -9397793.18047  -7278828.80145  22180849.1094                   22180847.4774
 -81990889.89546 -63846577.93743  24351028.6804                   24351028.7344
 -28934800.02348 -22534531.19546  20755018.7194                   20755016.6914
 -60669453.64547 -47229367.98044  23230620.1804                   23230619.0474
  -7307868.99247  -5654398.39145  22606838.2034                   22606838.3204
 -53289504.80148 -41510852.69546  20892498.8594                   20892494.6334
 11  8 18  1 17  0.0000000  0  8G12G10G30G17G05G04G25G02
 -34814617.55548 -27087145.40646  20814437.3754                   20814434.2704
 -42605617.65648 -33080228.75445  21479073.4064                   21479070.7424
  -9548294.02747  -7396102.16845  22152209.6334                   22152208.0044
 -82013936.84046 -63864536.62543  24346643.4614                   24346643.1174
 -29076759.92648 -22645149.27046  20728005.0314                   20728002.6564
 -60679708.73847 -47237358.96944  23228669.0784                   23228668.1914
  -7471397.66047  -5781823.29345  22575719.1804                   22575719.8404
 -53359918.77748 -41565720.72746  20879099.6954                   20879095.0634
 11  8 18  1 17 30.0000000  0  9G12G10G30G17G05G04G25G29G02
 -34916845.27048 -27166803.35246  20794984.1954                   20794981.7074
 -42640656.02048 -33107531.36346  21472405.7664                   21472403.6374
  -9698231.46947  -7512936.52345  22123677.3834                   22123675.6994
 -82036757.75446 -63882319.20743  24342301.0314                   24342300.1334
 -29218152.84048 -22755325.53546  20701098.8834                   20701096.6804
 -60689932.09447 -47245325.22344  23226723.6954                   23226722.5864
  -7634463.59047  -5908887.60945  22544689.1334                   22544689.2154
  15504138.51256  12115096.62553  24679783.0474                   24679781.6684
 -53430114.77748 -41620418.89146  20865741.6094                   20865737.3404
 11  8 18  1 18  0.0000000  0  9G12G10G30G17G05G04G25G29G02
 -35018455.82048 -27245980.40246  20775648.0394                   20775645.2584
 -42675130.58647 -33134394.64845  21465845.0704                   21465843.1454
  -9847605.40647  -7629331.80145  22095252.2584                   22095250.6564
 -82059354.67646 -63899927.20743  24338001.2814                   24337999.9384
 -29358978.83648 -22865060.04346  20674300.2034                   20674298.0004
 -60700126.70747 -47253269.08644  23224783.5554                   23224782.1094
  -7797066.45747  -6035591.10545  22513746.7344                   22513747.5124
  15332085.21946  11981029.19543  24647042.4774                   24647041.1334
 -53500095.74648 -41674949.51646  20852424.9454                   20852420.7154
 11  8 18  1 18 30.0000000  0  9G12G10G30G17G05G04G25G29G02
 -35119452.35548 -27324679.00446  20756429.1884                   20756426.4384
 -42709046.64148 -33160822.74645  21459391.2344                   21459388.8954
  -9996417.66847  -7745289.39545  22066934.6094                   22066932.6604
 -82081731.34845 -63917363.57442  24333742.2894                   24333742.4064
 -29499240.23848 -22974354.59847  20647609.5314                   20647607.1564
 -60710297.11747 -47261194.06644  23222847.8364                   23222846.9494
  -7959207.41447  -6161934.67645  22482892.3134                   22482892.3914
  15159989.24646  11846928.54743  24614293.5634                   24614293.1764
 -53569866.50848 -41729316.32846  20839147.8054                   20839143.2774
 11  8 18  1 19  0.0000000  0  9G12G10G30G17G05G04G25G29G02
 -35219833.54348 -27402898.10246  20737327.2274                   20737324.2854
 -42742406.05948 -33186817.09845  21453043.0234                   21453041.2304
 -10144665.30147  -7860807.02745  22038723.6094                   22038722.2304
 -82103886.98046 -63934627.76242  24329525.9614                   24329526.6334
 -29638934.67648 -23083207.38346  20621026.6334                   20621024.2854
 -60720443.78147 -47269100.59444  23220916.9304                   23220915.9184
  -8120883.34047  -6287915.89145  22452126.2274                   22452126.6454
  14987851.84846  11712795.61343  24581536.6024                   24581535.9144
 -53639427.18748 -41783519.45346  20825910.8674                   20825906.2974
 11  8 18  1 19 30.0000000  0  9G12G10G30G17G05G04G25G29G02
 -35319604.35548 -27480641.58246  20718341.5234                   20718338.5634
 -42775216.88347 -33212383.97345  21446799.1564                   21446797.4734
 -10292352.05547  -7975887.62145  22010620.0704                   22010618.5554
 -82125826.82046 -63951723.81243  24325351.8284                   24325351.8094
 -29778066.44148 -23191621.70346  20594550.5394                   20594548.2704
 -60730573.10546 -47276993.60943  23218989.1414                   23218988.0354
  -8282097.59847  -6413537.37145  22421448.5634                   22421448.3324
  14815667.87946  11578626.36343  24548770.6644                   24548770.3014
 -53708784.89548 -41837564.41046  20812712.3054                   20812708.1374
 11  8 18  1 20  0.0000000  0  9G12G10G30G17G05G04G25G29G02
 -35418757.57848 -27557903.83646  20699473.0164                   20699470.5824
 -42807474.02048 -33237519.38745  21440661.1564                   21440659.3244
 -10439468.84048  -8090524.09845  21982624.4774                   21982623.2034
 -82147543.89146 -63968646.16442  24321217.9144                   24321218.4574
 -29916626.63348 -23299590.64546  20568183.2344                   20568180.9144
 -60740679.03147 -47284868.35544  23217066.7274                   23217065.5474
  -8442840.57847  -6538791.61745  22390860.0704                   22390860.1914
  14643445.21147  11444426.95743  24515997.7194                   24515997.0394
 -53777932.86348 -41891445.94146  20799554.3834                   20799549.5704
 11  8 18  1 20 30.0000000  0  9G12G10G30G17G05G04G25G29G02
 -35517293.75048 -27634685.27346  20680722.3444                   20680719.9024
 -42839180.60948 -33262225.81245  21434627.0394                   21434625.5314
 -10586014.60247  -8204715.59845  21954737.3984                   21954736.7194
 -82169039.03146 -63985395.73042  24317129.0164                   24317128.0004
 -30054614.76248 -23407113.82846  20541925.2274                   20541922.9104
 -60750763.19146 -47292726.14844  23215147.1254                   23215146.3984
  -8603110.81647  -6663677.50045  22360361.4924                   22360361.4304
  14471183.73447  11310197.28144  24483218.3674                   24483217.0554
 -53846873.58248 -41945165.96946  20786435.1024                   20786430.8794
 11  8 18  1 21  0.0000000  0  9G12G10G30G17G05G04G25G29G02
 -35615213.96148 -27710986.73446  20662088.8594                   20662085.8674
 -42870340.80947 -33286506.48845  21428697.6724                   21428695.9184
 -10731989.20348  -8318462.04345  21926959.9144                   21926958.2974
 -82190314.05946 -64001973.64542  24313079.6724                   24313080.1334
 -30192031.25048 -23514191.57446  20515775.7974                   20515773.3634
 -60760828.49646 -47300569.27744  23213232.6724                   23213231.4144
  -8762907.88747  -6788194.69145  22329953.3754                   22329952.8444
  14298881.86347  11175936.16444  24450430.0704                   24450429.2934
 -53915609.50448 -41998726.43046  20773355.0314                   20773350.9344
 11  8 18  1 21 30.0000000  0  9G12G10G30G17G05G04G25G29G02
 -35712518.28948 -27786808.28946  20643572.6174                   20643569.5744
 -42900957.18747 -33310363.41045  21422871.5004                   21422869.7854
 -10877391.30148  -8431762.37545  21899290.9534                   21899289.2504
 -82211369.64846 -64018380.61743  24309072.9224                   24309073.8364
 -30328875.34048 -23620823.30546  20489735.2344                   20489732.9964
 -60770876.19546 -47308398.68444  23211320.7734                   23211319.3324
  -8922229.88747  -6912341.71145  22299635.0234                   22299634.8874
  14126539.98847  11041643.83244  24417634.4694                   24417633.5084
 -53984142.33248 -42052128.61746  20760313.6094                   20760309.2424
 11  8 18  1 22  0.0000000  0  9G12G10G30G17G05G04G25G29G02
 -35809204.62148 -27862148.28946  20625173.7974                   20625170.9264
 -42931030.48447 -33333797.14145  21417148.9144                   21417146.7194
 -11022217.47748  -8544613.93445  21871731.3984                   21871729.3594
 -82232203.96945 -64034615.14842  24305107.8444                   24305109.0314
 -30465143.87548 -23727006.53946  20463803.5554                   20463801.8014
 -60780905.59046 -47316213.78544  23209411.9384                   23209410.5944
  -9081072.92247  -7036115.49245  22269408.3444                   22269408.3524
  13954159.93047  10907321.78144  24384831.8524                   24384830.5744
 -54052471.70748 -42105372.28546  20747311.1174                   20747306.5204
 11  8 18  1 22 30.0000000  0  9G12G10G30G17G05G04G25G29G02
 -35905272.80548 -27937006.62546  20606892.2584                   20606889.8834
 -42960563.11347 -33356809.57045  21411528.8524                   21411526.9064
 -11166465.86347  -8657015.24245  21844281.4454                   21844280.1844
 -82252817.16845 -64050677.47742  24301186.0004                   24301186.2384
 -30600835.24248 -23832740.04347  20437982.5394                   20437980.3484
 -60790917.81647 -47324015.46944  23207506.5944                   23207505.1844
  -9239434.69147  -7159514.25845  22239273.4224                   22239273.2234
  13781742.77747  10772970.79344  24352021.5394                   24352021.0474
 -54120598.27047 -42158457.91046  20734346.7734                   20734343.0084
 11  8 18  1 23  0.0000000  0  9G12G10G30G17G05G04G25G29G02
 -34425298.78148 -26783780.11346  20888522.2274                   20888519.3324
 -41414135.56647 -32151801.10245  21705804.5084                   21705802.6134
  -9734708.91847  -7541360.46145  22116736.0554                   22116734.2734
 -80697788.17245 -62838966.51642  24597098.1094                   24597098.4964
 -29160523.02048 -22710418.80546  20712065.1094                   20712062.7934
 -59225492.42647 -46104203.44544  23505397.2194                   23505395.5044
  -7821886.80948  -6054931.50045  22509023.4614                   22509023.7034
  15184715.68047  11866196.47744  24618998.6094                   24618997.0944
 -52613099.91448 -40983783.85946  21021214.2974                   21021210.2234
 11  8 18  1 23 30.0000000  0  9G12G10G30G17G05G04G25G29G02
 -34520129.82847 -26857674.43746  20870476.3834                   20870473.4534
 -41442593.82048 -32173976.33645  21700388.7274                   21700386.9844
  -9877796.13348  -7652856.96545  22089507.4844                   22089505.5274
 -80717959.69145 -62854684.63342  24593260.0084                   24593260.0354
 -29295056.50848 -22815250.06247  20686463.8754                   20686461.7154
 -59235472.59446 -46111980.19544  23503497.3594                   23503496.8914
  -7979279.18747  -6177574.89145  22479072.9384                   22479072.8204
  15012225.94147  11731788.94544  24586174.7664                   24586173.7034
 -52680823.77348 -41036555.68046  21008326.8914                   21008322.8244
 11  8 18  1 24  0.0000000  0  9G12G10G30G17G05G04G25G29G02
 -34614344.03548 -26931088.10246  20852547.9384                   20852545.3594
 -41470520.12548 -32195737.09045  21695074.6564                   21695072.8984
 -10020302.10248  -7763900.52345  22062389.2274                   22062387.4264
 -80737912.02745 -62870231.88742  24589463.6334                   24589463.4924
 -29429011.16048 -22919630.26647  20660973.3524                   20660971.0004
 -59245440.02746 -46119747.05143  23501600.9534                   23501600.6054
  -8136185.44147  -6299839.49245  22449214.5784                   22449214.3954
  14839698.91447  11597352.36344  24553343.4774                   24553342.6134
 -52748349.92648 -41089173.44946  20995477.0864                   20995472.4144
 11  8 18  1 24 30.0000000  0  9G12G10G30G17G05G04G25G29G02
 -34707939.58248 -27004019.70746  20834737.7814                   20834734.9184
 -41497915.64548 -32217084.25045  21689861.8134                   21689859.5474
 -10162223.78948  -7874488.80945  22035382.1334                   22035380.9614
 -80757644.28145 -62885607.66842  24585708.5864                   24585709.1054
 -29562384.21948 -23023557.29747  20635593.1804                   20635591.0084
 -59255394.32046 -46127503.62143  23499706.6094                   23499705.8244
  -8292602.07847  -6421722.55945  22419449.3054                   22419449.7584
  14667136.49646  11462888.22743  24520506.2194                   24520505.1994
 -52815677.92648 -41141636.81646  20982665.1414                   20982660.8094
 11  8 18  1 25  0.0000000  0  8G12G10G30G05G04G25G29G02
 -34800917.13348 -27076469.73846  20817044.3284                   20817041.3874
 -41524783.59448 -32238020.29345  21684748.8594                   21684747.4534
 -10303560.21548  -7984621.04345  22008487.1644                   22008484.7974
 -29695175.32048 -23127030.84446  20610324.0234                   20610321.7894
 -59265337.19546 -46135251.34443  23497814.4924                   23497813.8094
  -8448527.67647  -6543223.00845  22389777.8674                   22389777.6484
  14494538.48846  11328396.31643  24487661.2584                   24487661.1134
 -52882809.87948 -41193947.43046  20969890.1644                   20969885.7234
 11  8 18  1 25 30.0000000  0  8G12G10G30G05G04G25G29G02
 -34893273.75848 -27148435.94146  20799469.3054                   20799466.5004
 -41551123.64148 -32258545.02045  21679736.4534                   21679734.6644
 -10444306.95348  -8094293.77345  21981703.7814                   21981701.9264
 -29827380.48848 -23230047.82847  20585165.6884                   20585163.4184
 -59275266.75846 -46142988.66843  23495924.6484                   23495923.1884
  -8603957.17247  -6664336.85945  22360200.2034                   22360200.4734
  14321908.50446  11193879.53943  24454811.3594                   24454810.3984
 -52949744.00848 -41246103.87546  20957153.0864                   20957148.5204
 11  8 18  1 26  0.0000000  0  8G12G10G30G05G04G25G29G02
 -34985008.56248 -27219917.61346  20782013.1024                   20782010.1484
 -41576937.48448 -32278659.68045  21674824.3364                   21674822.3634
 -10584461.84048  -8203505.32845  21955033.0314                   21955031.4304
 -29958998.06648 -23332606.94147  20560120.3834                   20560117.6054
 -59285183.08246 -46150715.63343  23494038.4454                   23494037.0904
  -8758887.96947  -6785062.12945  22330717.8984                   22330718.3554
  14149247.61346  11059338.67243  24421954.4454                   24421954.0744
 -53016480.10548 -41298106.02046  20944453.8134                   20944449.2304
 11  8 18  1 26 30.0000000  0  8G12G10G30G05G04G25G29G02
 -35076121.09448 -27290914.37946  20764674.9064                   20764671.9454
 -41602227.37948 -32298366.07845  21670011.8204                   21670009.4774
 -10724022.50448  -8312253.85545  21928475.9384                   21928473.7584
 -30090026.14548 -23434706.71146  20535186.2974                   20535183.9344
 -59295086.65646 -46158432.74643  23492152.9844                   23492152.4064
  -8913317.21547  -6905396.56245  22301330.6564                   22301330.9494
  13976557.21546  10924774.78143  24389093.5864                   24389092.0004
 -53083018.98848 -41349954.50046  20931791.6254                   20931787.2074
 11  8 18  1 27  0.0000000  0  8G12G10G30G05G04G25G29G02
 -35166612.30948 -27361427.00446  20747454.8134                   20747451.8054
 -41626996.71548 -32317666.84445  21665298.5164                   21665296.8984
 -10862988.39848  -8420538.91445  21902031.1644                   21902029.5474
 -30220464.55148 -23536346.99247  20510364.6414                   20510362.1024
 -59304979.25046 -46166141.25443  23490271.0394                   23490270.4224
  -9067243.84847  -7025339.34845  22272039.6254                   22272040.0784
  13803836.96946  10790187.64843  24356225.3754                   24356224.0824
 -53149362.68448 -41401650.87546  20919166.9844                   20919162.6764
 11  8 18  1 27 30.0000000  0  8G12G10G30G05G04G25G29G02
 -35256480.02348 -27431453.79346  20730353.5864                   20730350.9184
 -41651245.65648 -32336562.13345  21660683.9774                   21660682.2734
 -11001355.80548  -8528357.63745  21875701.0164                   21875698.3244
 -30350310.19948 -23637525.37547  20485655.7584                   20485653.4264
 -59314859.46947 -46173840.07843  23488391.1414                   23488390.1254
  -9220663.51647  -7144887.09845  22242845.1644                   22242844.9534
  13631089.68046  10655579.40243  24323352.0314                   24323351.6214
 -53215509.94148 -41453194.19546  20906579.4534                   20906574.7544
 11  8 18  1 28  0.0000000  0  8G12G10G30G05G04G25G29G02
 -35345727.31248 -27500997.12146  20713370.5634                   20713367.4844
 -41674980.04348 -32355056.44545  21656167.2974                   21656165.5044
 -11139126.28148  -8635711.21545  21849484.3204                   21849481.7934
 -30479565.19148 -23738243.52047  20461059.2974                   20461056.8794
 -59324731.39147 -46181532.45744  23486512.2114                   23486511.2344
  -9373577.27748  -7264040.63345  22213746.4924                   22213746.7814
  13458313.04346  10520948.32443  24290473.6334                   24290473.4104
 -53281464.99248 -41504587.72346  20894028.7344                   20894023.6214
 11  8 18  1 28 30.0000000  0  8G12G10G30G05G04G25G29G02
 -35434353.06648 -27570056.14146  20696505.8204                   20696502.7894
 -41698201.10948 -32373150.79345  21651748.4924                   21651746.3984
 -11276297.18448  -8742597.60945  21823381.2424                   21823379.0744
 -30608227.18048 -23838499.58647  20436575.8364                   20436573.4924
 -59334594.56246 -46189218.04343  23484634.9224                   23484635.0664
  -9525981.90248  -7382797.43446  22184744.8444                   22184745.1024
  13285508.90647  10386295.79343  24257591.2664                   24257590.0084
 -53347227.76248 -41555831.43446  20881514.6724                   20881510.0434
 11  8 18  1 29  0.0000000  0  8G12G10G30G05G04G25G29G02
 -35522359.27048 -27638632.39846  20679758.3914                   20679755.6094
 -41720913.52748 -32390848.78145  21647426.5704                   21647424.6884
 -11412868.84048  -8849017.06245  21797392.5944                   21797390.4734
 -30736297.20748 -23938294.37147  20412204.6024                   20412202.4494
 -59344451.86346 -46196899.03943  23482759.7504                   23482759.2934
  -9677877.31248  -7501157.44546  22155840.0474                   22155840.0434
  13112675.89847  10251620.75443  24224701.5864                   24224700.2274
 -53412801.23048 -41606927.63746  20869036.1254                   20869031.7074
 11  8 18  1 29 30.0000000  0  8G12G10G30G05G04G25G29G02
 -35609748.18748 -27706727.64146  20663128.8524                   20663126.0434
 -41743121.91848 -32408154.03145  21643200.3524                   21643198.1484
 -11548842.12948  -8954970.25045  21771517.4304                   21771515.4304
 -30863776.53548 -24037628.87947  20387946.4614                   20387943.9024
 -59354306.37546 -46204577.88343  23480884.7114                   23480883.5904
  -9829263.69548  -7619120.80945  22127032.1174                   22127032.1604
  12939812.19946  10116921.81643  24191806.8364                   24191805.5784
 -53478188.35548 -41657878.62946  20856593.3984                   20856588.4694
 11  8 18  1 30  0.0000000  0  8G12G10G30G05G04G25G29G02
 -35696517.64148 -27774340.19146  20646617.3444                   20646614.4184
 -41764826.40647 -32425066.61345  21639070.0234                   21639067.3714
 -11684213.21548  -9060454.20345  21745757.5164                   21745755.2854
 -30990661.74248 -24136500.43047  20363800.8834                   20363798.5004
 -59364156.58646 -46212253.37543  23479009.8984                   23479009.2304
  -9980136.73448  -7736684.19145  22098321.9534                   22098322.0314
  12766921.08646   9982201.52043  24158906.9304                   24158905.4654
 -53543387.76648 -41708683.35946  20844186.4064                   20844182.1254
 11  8 18  1 30 30.0000000  0  8G12G10G30G05G04G25G29G02
 -35782672.56648 -27841473.89846  20630222.5944                   20630219.7304
 -41786034.86747 -32441592.66845  21635034.0554                   21635032.2114
 -11818985.56248  -9165471.58645  21720110.7194                   21720108.7894
 -31116957.02048 -24234912.30947  20339767.2584                   20339765.2344
 -59374008.18747 -46219929.94143  23477135.2734                   23477134.7584
 -10130499.23448  -7853849.74245  22069708.8914                   22069708.8754
  12593998.43846   9847456.65643  24126000.8444                   24125999.7424
 -53608405.50848 -41759346.52746  20831813.9774                   20831809.6374
 11  8 18  1 31  0.0000000  0  8G12G10G30G05G04G25G29G02
 -35868214.31248 -27908129.79746  20613944.2894                   20613941.6254
 -41806750.90247 -32457735.03545  21631092.3524                   21631089.9384
 -11953158.79748  -9270022.15645  21694578.3914                   21694575.9104
 -31242662.39848 -24332864.51647  20315846.6884                   20315844.6294
 -59383863.04346 -46227609.04343  23475260.0314                   23475259.6054
 -10280350.34448  -7970616.80146  22041192.7274                   22041193.7304
  12421043.79346   9712686.86344  24093088.3754                   24093086.5044
 -53673243.87148 -41809869.91446  20819475.9614                   20819471.3164
 11  8 18  1 31 30.0000000  0  8G12G10G30G05G04G25G29G02
 -34377715.40248 -26746702.07446  20897577.2894                   20897574.1334
 -40251551.41847 -31245891.28145  21927036.3054                   21927034.6484
 -10511302.44148  -8146497.71545  21968954.6254                   21968952.7384
 -29792347.76648 -23202749.18747  20591832.2974                   20591829.7974
 -57818296.85247 -45007687.37543  23773177.7344                   23773175.8134
  -8854258.36747  -6859376.27345  22312569.0944                   22312569.5124
  13823488.45747  10805500.92644  24359965.0234                   24359963.5514
 -52162476.77348 -40632648.78946  21106965.1254                   21106960.4384
 11  8 18  1 32  0.0000000  0  8G12G10G30G05G04G25G29G02
 -34462022.97748 -26812396.28946  20881533.7504                   20881531.1024
 -40271281.58647 -31261265.43045  21923282.3284                   21923279.9024
 -10644265.22348  -8250105.07445  21943652.9384                   21943650.5784
 -29916862.46948 -23299773.59847  20568138.1804                   20568135.4064
 -57828152.39847 -45015367.02743  23771302.1174                   23771300.3014
  -9003072.50848  -6975335.32045  22284251.0554                   22284250.8444
  13650480.52747  10670689.60944  24327042.2814                   24327040.8324
 -52226950.59048 -40682888.11346  21094695.9224                   21094691.5634
 11  8 18  1 32 30.0000000  0  8G12G10G30G05G04G25G29G02
 -34545718.71948 -26877613.75046  20865606.9774                   20865604.1254
 -40290527.65648 -31276262.34445  21919619.6174                   21919617.5314
 -10776625.28548  -8353242.77345  21918465.1644                   21918463.6884
 -30040785.19548 -23396336.73047  20544556.3364                   20544553.8324
 -57838013.89147 -45023051.34443  23769425.2274                   23769423.9804
  -9151369.82048  -7090891.64545  22256030.9774                   22256030.5664
  13477442.25847  10535854.66044  24294114.3834                   24294112.6884
 -52291248.25448 -40732990.18746  21082460.8444                   21082456.3524
 11  8 18  1 33  0.0000000  0  8G12G10G30G05G04G25G29G02
 -34628799.07448 -26942351.69546  20849797.4694                   20849794.8364
 -40309288.63748 -31290881.27745  21916049.6484                   21916048.0634
 -10908377.83648  -8455907.09045  21893393.3914                   21893391.7344
 -30164111.55548 -23492435.16047  20521087.8134                   20521085.1994
 -57847878.76246 -45030738.32043  23767547.5944                   23767546.4964
  -9299144.88748  -7206041.02046  22227910.1804                   22227910.2734
  13304378.18447  10400999.59444  24261181.2974                   24261179.8014
 -52355366.98448 -40782952.82846  21070259.0864                   21070254.6954
 11  8 18  1 33 30.0000000  0  8G12G10G30G05G04G25G29G02
 -34711268.86348 -27006613.87946  20834103.6804                   20834101.0864
 -40327571.52747 -31305127.68045  21912570.4144                   21912568.9804
 -11039525.97348  -8558100.44545  21868436.8594                   21868435.1174
 -30286845.43048 -23588071.91447  20497731.8054                   20497729.7034
 -57857751.87147 -45038431.67643  23765669.7274                   23765668.3014
  -9446400.12948  -7320785.35946  22199888.5944                   22199888.2304
  13131284.67647  10266121.59444  24228242.4384                   24228240.9264
 -52419312.31648 -40832780.34846  21058090.9224                   21058086.3404
 11  8 18  1 34  0.0000000  0  8G12G10G30G05G04G25G29G02
 -34793124.73848 -27070397.68046  20818527.1954                   20818524.4454
 -40345375.57448 -31319000.96545  21909182.4224                   21909180.8324
 -11170064.71948  -8659818.94545  21843596.1094                   21843594.5944
 -30408981.97348 -23683243.22346  20474490.5554                   20474487.8284
 -57867630.45746 -45046129.26643  23763788.7814                   23763788.9064
  -9593130.02048  -7435120.33245  22171966.6644                   22171966.6564
  12958166.06646  10131224.03944  24195298.9844                   24195297.6604
 -52483081.50048 -40882470.61746  21045955.6884                   21045951.0864
 11  8 18  1 34 30.0000000  0  8G12G10G30G05G04G25G29G02
 -34874370.25048 -27133705.89146  20803066.7424                   20803063.7854
 -40362706.53948 -31332505.59445  21905884.5944                   21905882.7274
 -11299996.47348  -8761064.46945  21818871.5084                   21818868.9844
 -30530524.30948 -23777951.49647  20451361.9924                   20451359.0314
 -57877518.93446 -45053834.59843  23761907.1414                   23761906.9024
  -9739336.25448  -7549047.26246  22144144.6024                   22144144.5004
  12785019.64846   9996304.82444  24162350.6644                   24162348.8554
 -52546679.02348 -40932027.12946  21033853.7894                   21033849.2814
 11  8 18  1 35  0.0000000  0  8G12G10G30G05G04G25G29G02
 -34955007.08248 -27196539.80146  20787722.2584                   20787719.2974
 -40379568.14147 -31345644.47745  21902675.8754                   21902674.3954
 -11429320.59848  -8861836.51645  21794261.6094                   21794259.7504
 -30651472.25048 -23872196.61746  20428346.2424                   20428343.4574
 -57887418.40646 -45061548.48443  23760023.8594                   23760023.4064
  -9885017.60548  -7662565.20345  22116422.4614                   22116422.0394
  12611845.70346   9861364.13744  24129395.7274                   24129395.4804
 -52610106.49648 -40981451.11346  21021783.5554                   21021779.3244
 11  8 18  1 35 30.0000000  0  8G12G10G30G05G04G25G29G02
 -35035035.79748 -27258899.85546  20772493.1174                   20772490.2234
 -40395963.55947 -31358420.10945  21899555.9384                   21899554.0704
 -11558036.56248  -8962134.67245  21769767.5234                   21769765.7114
 -30771825.64548 -23965978.44946  20405443.8594                   20405440.9064
 -57897330.26246 -45069272.05543  23758137.7274                   23758137.3754
 -10030172.83648  -7775673.16446  22088800.2734                   22088800.2814
  12438644.48446   9726402.20344  24096436.8674                   24096436.1484
 -52673365.41048 -41030743.77046  21009746.2344                   21009741.5164
 11  8 18  1 36  0.0000000  0  8G12G10G30G05G04G25G29G02
 -35114456.36748 -27320786.02746  20757379.7344                   20757377.3954
 -40411894.76247 -31370834.02345  21896523.9534                   21896521.9614
 -11686142.57048  -9061957.54345  21745390.1724                   21745388.1254
 -30891583.33648 -24059296.09847  20382654.1094                   20382651.8674
 -57907254.70746 -45077005.38343  23756248.6024                   23756248.6684
 -10174799.48448  -7888369.25846  22061278.6724                   22061278.8674
  12265417.20346   9591419.97744  24063472.6724                   24063472.0234
 -52736456.16048 -41079905.37546  20997740.1724                   20997735.7734
 11  8 18  1 36 30.0000000  0  8G12G10G30G05G04G25G29G02
 -35193270.35248 -27382199.53546  20742381.8834                   20742379.2624
 -40427365.96147 -31382889.52045  21893580.2034                   21893578.0904
 -11813638.62147  -9161305.10545  21721128.3364                   21721126.6644
 -31010746.07848 -24152150.16047  20359978.4534                   20359976.1374
 -57917193.68746 -45084750.07443  23754358.3594                   23754357.6604
 -10318896.98448  -8000653.02746  22033858.0234                   22033857.7704
  12092163.51246   9456417.15244  24030503.6884                   24030502.6134
 -52799380.82848 -41128937.57446  20985766.1414                   20985761.5784
 11  8 18  1 37  0.0000000  0  8G12G10G30G05G04G25G29G02
 -35271477.59848 -27443140.25046  20727499.9224                   20727497.1604
 -40442378.97347 -31394587.94945  21890722.9064                   21890720.9104
 -11940523.00448  -9260176.04745  21696983.2114                   21696981.0474
 -31129312.21548 -24244539.32847  20337416.3444                   20337413.5394
 -57927146.89146 -45092505.80143  23752464.6024                   23752463.5824
 -10462462.83648  -8112522.51246  22006538.3834                   22006538.4614
  11918885.05946   9321395.06644  23997530.4384                   23997528.6604
 -52862139.65248 -41177840.53946  20973823.6804                   20973818.8014
 11  8 18  1 37 30.0000000  0  8G12G10G30G05G04G25G29G02
 -35349079.46548 -27503609.25446  20712732.7034                   20712729.6334
 -40456937.73847 -31405932.44945  21887952.8834                   21887950.6134
 -12066795.61747  -9358570.30145  21672954.0474                   21672952.3984
 -31247282.44148 -24336464.15647  20314966.9614                   20314964.7464
 -57937116.24246 -45100274.13743  23750568.0864                   23750566.5434
 -10605496.28548  -8223977.15246  21979319.8594                   21979319.8094
  11745581.56646   9186353.44544  23964551.7034                   23964550.8714
 -52924734.53548 -41226615.76246  20961912.1334                   20961907.2974
 11  8 18  1 38  0.0000000  0  8G12G10G30G05G04G25G29G02
 -35426075.12548 -27563605.88346  20698080.8914                   20698077.9454
 -40471043.14147 -31416923.67645  21885268.9924                   21885267.1724
 -12192453.78947  -9456485.75845  21649042.3284                   21649040.2584
 -31364654.59048 -24427922.94147  20292631.6564                   20292629.2704
 -57947100.87946 -45108054.37542  23748666.4694                   23748666.6374
 -10747993.99248  -8335014.32846  21952203.2974                   21952203.3754
  11572255.52747   9051294.23044  23931568.5554                   23931567.4774
 -52987164.75448 -41275262.66846  20950032.0784                   20950026.9304
 11  8 18  1 38 30.0000000  0  8G12G10G30G05G04G25G29G02
 -35502465.76648 -27623131.05946  20683544.1334                   20683541.1914
 -40484698.87947 -31427564.50845  21882670.1644                   21882668.1564
 -12317497.28947  -9553922.25845  21625247.4144                   21625245.3714
 -31481428.83248 -24518915.83247  20270410.3834                   20270407.8484
 -57957102.05546 -45115847.46942  23746764.0004                   23746763.9774
 -10889955.04748  -8445633.32046  21925188.9064                   21925189.5704
  11398906.85547   8916217.36344  23898581.4614                   23898580.0394
 -53049432.23448 -41323782.77046  20938183.0704                   20938178.7304
 11  8 18  1 39  0.0000000  0  8G12G10G30G05G04G25G29G02
 -35578255.38748 -27682187.91446  20669121.8594                   20669119.1454
 -40497910.95747 -31437859.64145  21880155.8054                   21880154.4494
 -12441928.07447  -9650881.30945  21601569.1254                   21601567.1884
 -31597607.54748 -24609444.68047  20248302.2814                   20248299.4534
 -57967123.56646 -45123656.42242  23744856.9534                   23744856.4344
 -11031380.60548  -8555835.04346  21898276.6484                   21898276.7154
  11225533.50047   8781121.27744  23865589.8204                   23865587.7464
 -53111540.56248 -41372178.86746  20926363.9614                   20926359.1884
 11  8 18  1 39 30.0000000  0  8G12G10G30G05G04G25G29G02
 -35653441.00048 -27740774.10946  20654814.7504                   20654811.9064
 -40510678.63347 -31447808.46945  21877726.2584                   21877724.1684
 -12565741.86347  -9747359.59045  21578007.9534                   21578005.6604
 -31713187.32048 -24699506.81247  20226308.4224                   20226305.6954
 -57977162.62946 -45131479.00442  23742945.5314                   23742946.2854
 -11172265.78548  -8665615.69146  21871467.4384                   21871467.1644
  11052139.77346   8646009.28944  23832593.9924                   23832592.0664
 -53173487.40648 -41420449.12546  20914576.1094                   20914571.4614
 11  8 18  1 40  0.0000000  0  8G12G10G30G05G04G25G29G02
 -34152602.75448 -26571289.75446  20940414.7194                   20940411.9064
 -38947586.72747 -30229814.77345  22175172.8754                   22175170.6024
 -11113516.23047  -8615755.19945  21854357.3984                   21854355.4924
 -30252746.07848 -23561500.61747  20504221.1024                   20504218.7424
 -56411802.22745 -43911717.69542  24040824.8444                   24040824.6604
  -9737186.85948  -7547372.36346  22144553.7974                   22144553.5394
  12454149.65247   9738484.52344  24099387.3914                   24099386.5124
 -51659854.16048 -40240994.62946  21202610.6564                   21202606.2624
 11  8 18  1 40 30.0000000  0  8G12G10G30G05G04G25G29G02
 -34226588.54348 -26628941.01646  20926335.7424                   20926332.8444
 -38959480.25847 -30239082.46145  22172909.8594                   22172907.6994
 -11236099.61348  -8711274.72345  21831030.3444                   21831028.5164
 -30367132.60948 -23650632.95347  20482454.0164                   20482451.0514
 -56421884.68445 -43919574.10942  24038905.0554                   24038906.3714
  -9876992.62548  -7656311.92246  22117949.3524                   22117949.6844
  12280711.72347   9603338.05544  24066383.2344                   24066381.3444
 -51721487.14148 -40289020.32046  21190882.1174                   21190878.0594
 11  8 18  1 41  0.0000000  0  8G12G10G30G05G04G25G29G02
 -34299974.94548 -26686125.21946  20912370.6414                   20912368.0944
 -38970940.26247 -30248012.32845  22170728.0234                   22170727.0474
 -11358065.66848  -8806313.19945  21807820.6414                   21807818.9774
 -30480921.13748 -23739299.30947  20460800.6484                   20460797.8554
 -56431989.051 5                  24036982.273
 -10016255.49648  -7764828.43046  22091448.2734                   22091448.6374
  12107253.40247   9468175.72744  24033375.8054                   24033373.8914
 -51782963.59048 -40336924.03546  21179184.1254                   21179179.4024
 11  8 18  1 41 30.0000000  0  8G12G10G30G05G04G25G29G02
 -34372764.83248 -26742844.60246  20898519.2734                   20898516.3094
 -38981971.72347 -30256608.27345  22168629.3984                   22168627.5234
 -11479415.81648  -8900871.75045  21784729.1414                   21784727.0354
 -30594113.65648 -23827501.24247  20439260.7424                   20439258.5864
 -56442118.29746 -43925249.54352  24035055.4454                   24035052.8524
 -10154976.13348  -7872922.41046  22065050.9694                   22065050.7504
  11933773.82847   9332996.83244  24000363.1804                   24000361.4144
 -51844287.05548 -40384708.55546  21167514.4844                   21167509.9454
 11  8 18  1 42  0.0000000  0  8G12G10G30G05G04G25G29G02
 -34444954.64148 -26799096.39146  20884781.6724                   20884779.4414
 -38992574.04747 -30264869.79745  22166612.5784                   22166610.0554
 -11600145.67248  -8994946.94145  21761754.7114                   21761752.7034
 -30706706.23448 -23915235.69947  20417835.3834                   20417832.4344
 -56452269.52046 -43933159.55542  24033124.0314                   24033122.5204
 -10293149.42248  -7980589.89546  22038757.4304                   22038757.2584
  11760277.32447   9197804.71144  23967348.0394                   23967346.8164
 -51905454.55148 -40432371.54346  21155874.6564                   21155869.7584
 11  8 18  1 42 30.0000000  0  8G12G10G30G05G04G25G29G02
 -34516547.82848 -26854883.27746  20871157.9694                   20871155.5044
 -39002751.72747 -30272800.44545  22164675.5004                   22164674.5434
 -11720256.12547  -9088539.48845  21738898.3914                   21738896.6174
 -30818700.23048 -24002503.71547  20396523.4144                   20396520.7584
 -56462444.87146 -43941088.40242  24031187.9844                   24031187.1294
 -10430775.50048  -8087830.97746  22012567.9694                   22012567.9844
  11586763.08246   9062598.77344  23934329.8134                   23934328.5594
 -51966468.57048 -40479914.93446  21144264.2424                   21144259.3954
 11  8 18  1 43  0.0000000  0  8G12G10G30G05G04G25G29G02
 -34587546.39848 -26910206.82846  20857647.5314                   20857644.9264
 -39012508.46147 -30280403.09045  22162818.6644                   22162816.8874
 -11839747.33247  -9181649.49645  21716160.1174                   21716158.5004
 -30930096.34048 -24089305.84847  20375325.4534                   20375322.7194
 -56472646.14546 -43949037.45742  24029245.8984                   24029246.4064
 -10567853.78948  -8194645.20746  21986482.9224                   21986482.7464
  11413230.84446   8927378.86344  23901306.9304                   23901306.4144
 -52027331.16048 -40527340.32446  21132682.2894                   21132677.6724
 11  8 18  1 43 30.0000000  0  8G12G10G30G05G04G25G29G02
 -34657951.77348 -26965068.15246  20844249.5864                   20844247.1214
 -39021848.14847 -30287680.74245  22161041.7974                   22161039.6054
 -11958619.48848  -9274277.12145  21693539.5944                   21693537.5664
 -31040895.28948 -24175642.66847  20354240.8054                   20354238.5354
 -56482874.56246 -43957007.64142  24027300.0084                   24027299.6524
 -10704383.63348  -8301032.07846  21960502.0944                   21960502.3094
  11239680.83646   8792145.11744  23868281.6094                   23868280.7894
 -52088044.17648 -40574649.16846  21121128.6334                   21121124.6294
 11  8 18  1 44  0.0000000  0  8G12G10G30G05G04G25G29G02
 -34727764.53548 -27019467.70346  20830965.0084                   20830962.2734
 -39030773.24247 -30294635.35245  22159342.7424                   22159341.5274
 -12076871.59447  -9366421.58645  21671036.6334                   21671034.5084
 -31151096.82048 -24261513.96547  20333270.0784                   20333268.0314
 -56493130.72346 -43964999.52042  24025349.5474                   24025347.9344
 -10840363.35948  -8406990.28546  21934626.0164                   21934625.8244
  11066114.20347   8656898.39144  23835253.0314                   23835252.1524
 -52148607.91448 -40621841.68746  21109603.8914                   21109599.4384
 11  8 18  1 44 30.0000000  0  8G12G10G30G05G04G25G29G02
 -34796987.07448 -27073407.33646  20817792.5314                   20817789.8984
 -39039288.65647 -30301270.76245  22157722.0634                   22157720.5084
 -12194504.82048  -9458083.79345  21648651.7974                   21648650.0664
 -31260702.44548 -24346920.92247  20312412.9454                   20312410.6484
 -56503416.92646 -43973014.70342  24023390.8444                   24023390.7304
 -10975793.34448  -8512520.10946  21908854.6334                   21908854.4654
  10892530.14146   8521638.13744  23802220.9534                   23802219.8364
 -52209025.14148 -40668920.03546  21098107.0164                   21098102.7504
 11  8 18  1 45  0.0000000  0  8G12G10G30G05G04G25G29G02
 -34865619.70748 -27126887.30946  20804731.6954                   20804729.1804
 -39047396.16447 -30307588.28945  22156180.3134                   22156177.6644
 -12311517.29348  -9549262.30545  21626385.1414                   21626383.2234
 -31369710.39848 -24431862.16047  20291669.5164                   20291667.1954
 -56513732.46546 -43981052.77742  24021427.7584                   24021428.2664
 -11110670.86348  -8617619.45346  21883188.2194                   21883188.6024
  10718930.85246   8386365.97744  23769186.2894                   23769184.8404
 -52269295.69548 -40715884.09846  21086637.8284                   21086633.8324
 11  8 18  1 45 30.0000000  0  8G12G10G30G05G04G25G29G02
 -34933665.91448 -27179910.33246  20791783.4694                   20791780.4264
 -39055101.43747 -30313592.37145  22154713.7664                   22154711.2814
 -12427911.11748  -9639958.76645  21604236.0864                   21604234.0234
 -31478123.71948 -24516340.05147  20271039.2424                   20271036.6484
 -56524080.73045 -43989116.34442  24019459.2814                   24019459.8094
 -11244997.31248  -8722289.37946  21857626.5084                   21857626.9414
  10545314.25847   8251080.38344  23736148.5004                   23736147.0784
 -52329423.23048 -40762736.70346  21075196.0164                   21075191.4384
 11  8 18  1 46  0.0000000  0  8G12G10G30G05G04G25G29G02
 -35001122.01248 -27232473.53146  20778946.6254                   20778944.0124
 -39062402.52047 -30319281.52045  22153323.8674                   22153321.6454
 -12543681.09048  -9730169.08245  21582205.4694                   21582204.1454
 -31585937.46148 -24600350.73447  20250522.5314                   20250520.4064
 -56534457.602 5                  24017483.281
 -11378766.60948  -8826525.16446  21832171.0314                   21832171.2664
  10371686.38747   8115785.98444  23703108.0164                   23703106.2194
 -52389403.58648 -40809474.63346  21063782.3204                   21063777.6294
 11  8 18  1 46 30.0000000  0  8G12G10G30G05G04G25G29G02
 -35067989.30948 -27284577.93446  20766222.1334                   20766219.7664
 -39069302.69947 -30324658.27345  22152011.1884                   22152009.3094
 -12658826.96148  -9819893.10945  21560293.9384                   21560291.7424
 -31693152.26248 -24683894.71147  20230120.2424                   20230117.7854
 -56544864.059 5                  24015502.813
 -11511977.75848  -8930326.01646  21806821.8444                   21806822.0274
  10198047.89147   7980483.32044  23670065.6644                   23670063.9494
 -52449238.09048 -40856098.91046  21052395.6644                   21052391.3554
 11  8 18  1 47  0.0000000  0  8G12G10G30G05G04G25G29G02
 -35134272.40648 -27336227.10546  20753608.8284                   20753606.1564
 -39075808.27347 -30329727.54345  22150772.9924                   22150771.2424
 -12773351.63348  -9909133.08245  21538500.8594                   21538498.7234
 -31799771.07048 -24766974.27747  20209831.5084                   20209829.0554
 -56555304.11746 -43999457.39552  24013517.2814                   24013516.7304
 -11644632.85248  -9033693.59846  21781578.3524                   21781578.1724
  10024395.93047   7845170.16444  23637020.9774                   23637019.5944
 -52508931.22348 -40902613.04746  21041036.6724                   21041032.1884
 11  8 18  1 47 30.0000000  0  8G12G10G30G05G04G25G29G02
 -35199971.14848 -27387420.95746  20741106.9924                   20741104.7234
 -39081921.16047 -30334490.80145  22149609.8284                   22149607.6134
 -12887253.39848  -9997887.68745  21516826.0084                   21516824.4024
 -31905792.79348 -24849588.58647  20189656.3834                   20189653.8794
 -56565776.87546 -44007618.03542  24011523.5634                   24011524.0514
 -11776729.38348  -9136625.91846  21756441.1954                   21756441.3444
   9850733.04747   7709848.50444  23603973.3674                   23603972.3554
 -52568482.23448 -40949016.42246  21029704.9454                   21029699.7304
 11  8 18  1 48  0.0000000  0  8G12G10G30G05G04G25G29G02
 -35265088.39548 -27438161.66846  20728715.7034                   20728712.8554
 -39087646.00047 -30338951.69945  22148520.4304                   22148518.9694
 -13000533.52048 -10086157.88745  21495269.3834                   21495267.4264
 -32011219.50448 -24931739.25047  20169594.1414                   20169591.8794
 -56576284.77046 -44015806.01642  24009525.0704                   24009524.1174
 -11908267.72348  -9239123.28546  21731410.3594                   21731410.4884
   9677058.53547   7574517.79744  23570923.8054                   23570922.6024
 -52627893.94948 -40995311.25846  21018398.9384                   21018394.2544
 11  8 18  1 48 30.0000000  0  8G12G10G30G05G04G25G29G02
 -35329623.63348 -27488448.88746  20716434.8754                   20716432.1214
 -39092984.17247 -30343111.32045  22147504.5704                   22147502.9924
 -13113189.82848 -10173942.00446  21473831.8204                   21473829.8164
 -32116049.34448 -25013424.81647  20149645.8754                   20149643.0394
 -56586826.69546 -44024020.49642  24007518.1884                   24007518.5004
 -12039244.95748  -9341183.43046  21706485.9614                   21706486.1884
   9503374.87947   7439179.96944  23537873.5784                   23537872.3484
 -52687165.58248 -41041496.94146  21007119.8524                   21007115.3954
 11  8 18  1 49  0.0000000  0  8G12G10G30G05G04G25G29G02
 -33818157.81248 -26310683.33646  21004057.4534                   21004054.9844
 -37522520.12147 -29119373.07445  22446353.9924                   22446351.8324
 -11649800.30548  -9033638.46146  21752305.4694                   21752303.3284
 -30644860.64148 -23867043.99247  20429603.8754                   20429601.1914
 -55021984.74245 -42804663.24242  24305298.9454                   24305298.3954
 -10594237.52348  -8215203.59046  21981461.7974                   21981461.8244
  10905106.70747   8531438.60244  23804613.8204                   23804612.7934
 -51170877.90248 -39859974.07446  21295660.0784                   21295655.1724
 11  8 18  1 49 30.0000000  0  8G12G10G30G05G04G25G29G02
 -33881536.60248 -26360069.41846  20991996.7344                   20991994.0514
 -37527097.18447 -29122939.59444  22445482.8204                   22445480.6094
 -11761212.00048  -9120452.76645  21731104.4064                   21731102.4614
 -30748500.67648 -23947802.43047  20409881.6334                   20409879.1214
 -55032600.43445 -42812935.25442  24303278.6724                   24303278.8524
 -10724092.96948  -8316389.62146  21956751.5474                   21956751.3054
  10731403.80947   8396085.77744  23771559.8834                   23771558.3984
 -51229875.67248 -39905946.33646  21284432.7504                   21284428.2464
 11  8 18  1 50  0.0000000  0  8G12G10G30G05G04G25G29G02
 -33944339.33248 -26409006.62146  20980045.7344                   20980042.9734
 -37531298.68447 -29126213.50444  22444683.2504                   22444680.9574
 -11872001.00048  -9206781.86345  21710022.1024                   21710019.7624
 -30851546.43448 -24028097.80547  20390272.6254                   20390270.0474
 -55043253.97715                  24301250.586
 -10853385.88748  -8417137.32046  21932147.5164                   21932147.6724
  10557692.77047   8260726.60244  23738503.0474                   23738501.9774
 -51288737.89148 -39951812.98846  21273231.7424                   21273227.7304
 11  8 18  1 50 30.0000000  0  8G12G10G30G05G04G25G29G02
 -34006562.80948 -26457492.46546  20968205.5634                   20968202.5784
 -37535123.66447 -29129194.01645  22443955.7194                   22443953.8244
 -11982163.15248  -9292622.50846  21689058.7344                   21689056.8164
 -30953994.09848 -24107927.12547  20370777.3444                   20370775.2114
 -55053942.090 5                  24299217.758
 -10982111.25048  -8517442.78146  21907651.7974                   21907652.1724
  10383978.26247   8125364.72744  23705446.4454                   23705445.3524
 -51347461.91048 -39997571.94146  21262056.7894                   21262052.5594
 11  8 18  1 51  0.0000000  0  8G12G10G30G05G04G25G29G02
 -34068212.38748 -26505531.11346  20956473.6334                   20956470.7894
 -37538578.60247 -29131886.19145  22443297.6954                   22443296.0664
 -12091701.80148  -9377977.31645  21668214.4454                   21668212.2624
 -31055847.45748 -24187293.35247  20351395.2194                   20351393.1804
 -55064668.672 5                  24297175.961
 -11110271.55948  -8617307.94146  21883263.8054                   21883263.4884
  10210257.90247   7989998.28544  23672388.2584                   23672387.2304
 -51406051.57848 -40043226.19946  21250907.8914                   21250903.2704
 11  8 18  1 51 30.0000000  0  8G12G10G30G05G04G25G29G02
 -34129286.07448 -26553121.00846  20944851.4774                   20944848.9144
 -37541663.14147 -29134289.70745  22442710.8204                   22442709.1094
 -12200613.36748  -9462843.48846  21647489.6484                   21647487.0124
 -31157103.64848 -24266194.25447  20332127.0084                   20332124.3554
 -55075431.348 5                  24295128.938
 -11237862.49248  -8716729.43046  21858984.2974                   21858983.8594
  10036535.99247   7854630.64544  23639330.1644                   23639328.7734
 -51464504.76248 -40088774.10946  21239784.2664                   21239780.2704
 11  8 18  1 52  0.0000000  0  8G12G10G30G05G04G25G29G02
 -34189789.39848 -26600266.46146  20933338.3364                   20933335.6484
 -37544384.23847 -29136410.04345  22442193.3364                   22442192.1174
 -12308901.45748  -9547223.83246  21626882.8524                   21626880.7854
 -31257766.69948 -24344632.96547  20312971.2034                   20312969.0394
 -55086234.15215                  24293070.547
 -11364886.66048  -8815709.29346  21834812.3054                   21834811.8134
   9862809.62547   7719259.49244  23606270.9144                   23606270.1564
 -51522825.81648 -40134219.07446  21228686.0474                   21228681.5864
 11  8 18  1 52 30.0000000  0  8G12G10G30G05G04G25G29G02
 -34249721.94948 -26646967.16046  20921933.5394                   20921930.5744
 -37546743.69946 -29138248.57044  22441743.8364                   22441742.7234
 -12416564.54748  -9631117.18745  21606394.9924                   21606393.0744
 -31357835.46148 -24422608.59847  20293929.2274                   20293926.4454
 -55097076.38715                  24291007.852
 -11491341.70348  -8914245.69146  21810748.5004                   21810748.2504
   9689081.10247   7583886.65644  23573211.9064                   23573210.6844
 -51581014.25448 -40179560.67646  21217613.2274                   21217609.2424
 11  8 18  1 53  0.0000000  0  9G12G10G30G26G05G04G25G29G02
 -34309087.28548 -26693225.86746  20910636.9064                   20910633.8404
 -37548746.67247 -29139809.34445  22441363.6334                   22441361.1764
 -12523604.80148  -9714525.21546  21586026.0234                   21586024.3634
  21789996.17655  17109333.16452  24813855.4844                   24813855.3984
 -31457312.51248 -24500123.16047  20274999.3914                   20274996.6884
 -55107960.594 6                  24288938.039
 -11617228.88748  -9012339.61346  21786793.0394                   21786792.6954
   9515349.34447   7448511.30944  23540152.0944                   23540149.8914
 -51639073.85948 -40224801.90246  21206564.5944                   21206560.6644
 11  8 18  1 53 30.0000000  0  9G12G10G30G26G05G04G25G29G02
 -34367887.84048 -26739044.48046  20899447.2424                   20899444.5204
 -37550396.84047 -29141095.17644  22441048.9694                   22441046.8204
 -12630022.66448  -9797448.25846  21565775.3674                   21565773.6644
  21606987.02345  16966728.76242  24779029.8054                   24779031.0164
 -31556198.64148 -24577177.25847  20256181.3984                   20256178.9964
 -55118888.129 5                  24286857.383
 -11742547.82448  -9109990.74646  21762945.5084                   21762945.2464
   9341614.86747   7313133.82845  23507090.9144                   23507089.4384
 -51697005.27747 -40269943.25046  21195540.7734                   21195536.1804
 11  8 18  1 54  0.0000000  0  9G12G10G30G26G05G04G25G29G02
 -34426128.96948 -26784427.18046  20888364.5944                   20888361.6414
 -37551701.16447 -29142111.50044  22440801.2344                   22440798.7384
 -12735822.02748  -9879889.34446  21545642.2734                   21545640.4414
  21423856.090 6                  24744181.609
 -31654498.27348 -24653774.34447  20237475.8364                   20237473.2234
 -55129863.348 5                  24284769.109
 -11867301.49648  -9207201.41046  21739205.9224                   21739206.0514
   9167874.89847   7177752.05544  23474029.3444                   23474027.2774
 -51754813.42648 -40314988.53146  21184540.2114                   21184536.1564
 11  8 18  1 54 30.0000000  0  9G12G10G30G26G05G04G25G29G02
 -34483811.71148 -26829374.77346  20877387.5084                   20877385.2544
 -37552662.75447 -29142860.78144  22440618.3054                   22440615.8834
 -12841002.99248  -9961848.56245  21525627.2034                   21525625.2274
  21240605.87546  16847738.22352  24709309.7114                   24709310.5984
 -31752212.12548 -24729914.98447  20218881.4454                   20218878.5944
 -55140887.168 6                  24282672.133
 -11991489.09448  -9303970.97746  21715574.1334                   21715573.7424
   8994130.06347   7042366.50444  23440966.6884                   23440965.0274
 -51812499.33648 -40359938.58246  21173563.0004                   21173558.6804
 11  8 18  1 55  0.0000000  0  9G12G10G30G26G05G04G25G29G02
 -34540937.85948 -26873888.64846  20866517.0004                   20866514.2234
 -37553284.57447 -29143345.30944  22440499.8134                   22440497.2464
 -12945565.20748 -10043325.62946  21505729.7274                   21505727.9264
  21057239.73445  16704855.67642  24674415.3054                   24674417.6914
 -31849340.41848 -24805599.34847  20200398.7894                   20200395.8164
 -55151959.367 5                  24280565.320
 -12115109.40248  -9400298.51246  21692049.8054                   21692049.7154
   8820382.08247   6906978.48444  23407903.8524                   23407902.5004
 -51870063.50048 -40404793.75846  21162609.2034                   21162604.1994
 11  8 18  1 55 30.0000000  0  9G12G10G30G26G05G04G25G29G02
 -34597504.85548 -26917966.82846  20855752.6724                   20855750.0394
 -37553565.46947 -29143564.16844  22440446.0394                   22440443.9224
 -13049504.53548 -10124317.33646  21485950.4534                   21485948.7624
  20873764.08646  16561887.82842  24639501.8914                   24639502.7934
 -31945879.31248 -24880824.43447  20182027.9384                   20182025.0744
 -55163076.578 5                  24278449.297
 -12238157.39148  -9496180.06646  21668634.3524                   21668634.3834
   8646635.98047   6771591.90644  23374840.5004                   23374839.4654
 -51927502.69948 -40449551.55546  21151678.7034                   21151674.3164
 11  8 18  1 56  0.0000000  0  9G12G10G30G26G05G04G25G29G02
 -34653516.06648 -26961611.93046  20845094.3444                   20845091.1884
 -37553510.32047 -29143521.18444  22440456.4144                   22440455.2774
 -13152823.22348 -10204825.41045  21466289.5394                   21466287.8364
  20690179.45346  16418835.03542  24604566.2584                   24604567.1884
 -32041831.53948 -24955592.37947  20163768.8134                   20163766.0514
 -55174241.473 5                  24276324.406
 -12360634.37548  -9591616.68446  21645327.7114                   21645327.6024
   8472890.66047   6636205.97744  23341778.0864                   23341776.8094
 -51984819.67248 -40494214.11746  21140771.5704                   21140767.2384
 11  8 18  1 56 30.0000000  0  9G12G10G30G26G05G04G25G29G02
 -34708972.08648 -27004824.41046  20834540.9064                   20834538.2974
 -37553121.37947 -29143218.07844  22440530.3834                   22440528.3134
 -13255519.94948 -10284848.83246  21446747.1884                   21446745.6914
  20506490.01246  16275700.58642  24569610.8204                   24569612.6254
 -32137195.97748 -25029902.31247  20145621.5634                   20145619.2464
 -55185452.969 5                  24274191.453
 -12482538.09048  -9686606.60946  21622130.2664                   21622130.3284
   8299148.59047   6500822.57044  23308716.3674                   23308714.2504
 -52042014.22748 -40538781.29746  21129888.0234                   21129883.8324
 11  8 18  1 57  0.0000000  0  9G12G10G30G26G05G04G25G29G02
 -34763874.19948 -27047605.28546  20824093.9064                   20824091.0554
 -37552401.11347 -29142656.84044  22440667.6414                   22440666.3094
 -13357594.51648 -10364387.44145  21427323.1334                   21427321.2384
  20322698.98446  16132486.97342  24534636.2344                   24534637.1644
 -32231973.13348 -25103754.62147  20127586.0164                   20127583.3714
 -55196711.156 6                  24272049.906
 -12603867.42648  -9781148.95346  21599042.3204                   21599042.0594
   8125411.18047   6365442.80544  23275655.6254                   23275653.1804
 -52099086.27748 -40583253.01246  21119026.8134                   21119022.7624
 11  8 18  1 57 30.0000000  0  9G12G10G30G26G05G04G25G29G02
 -33242804.05948 -25862355.82046  21113543.7274                   21113540.5474
 -35975934.52346 -27914241.32044  22740658.4144                   22740657.9844
 -11883625.55148  -9215840.19145  21707810.2114                   21707808.3204
  21714233.04746  17216799.39843  24799436.9304                   24799437.5514
 -30750742.49648 -23949548.90247  20409454.7814                   20409452.3404
                                  24569691.945
 -11149199.55148  -8647641.52346  21875856.2344                   21875856.0204
   9527103.57847   7457670.66844  23542388.6094                   23542386.7114
 -50580616.64848 -39400029.91846  21407982.2114                   21407978.1294
 11  8 18  1 58  0.0000000  0  9G12G10G30G26G05G04G25G29G02
 -33296605.48048 -25904279.01246  21103305.4924                   21103302.9844
 -35974562.98447 -27913172.60544  22740919.9614                   22740918.5514
 -11984458.49648  -9294411.30145  21688622.4924                   21688620.3324
  21530244.39146  17073431.73842  24764424.9064                   24764426.0394
 -30844349.15648 -24022489.14147  20391642.3364                   20391639.1804
 -53643954.03915                  24567528.773
 -11269380.13748  -8741288.72746  21852986.3054                   21852986.5354
   9353376.76247   7322299.14144  23509329.3674                   23509327.1684
 -50637448.57448 -39444314.53146  21397167.8834                   21397163.3914
 11  8 18  1 58 30.0000000  0  9G12G10G30G26G05G04G25G29G02
 -33349854.80948 -25945772.00046  21093172.5704                   21093169.8754
 -35972866.60947 -27911850.77345  22741243.2274                   22741242.0124
 -12084666.84048  -9372495.71545  21669552.7974                   21669551.4694
  21346165.07046  16929993.51242  24729396.1254                   24729396.2584
 -30937367.27048 -24094970.75047  20373941.1884                   20373938.5824
 -53655354.91015                  24565360.141
 -11388981.13748  -8834484.29746  21830227.0234                   21830227.0904
   9179661.19947   7186936.37944  23476272.2974                   23476270.2234
 -50694157.53548 -39488503.31246  21386376.2344                   21386371.7304
 11  8 18  1 59  0.0000000  0  9G12G10G30G26G05G04G25G29G02
 -33402553.89848 -25986836.23046  21083144.4304                   21083141.3244
 -35970848.29347 -27910278.05945  22741627.0944                   22741625.3794
 -12184250.93048  -9450093.67646  21650603.0314                   21650601.2344
  21161997.92246  16786486.75443  24694349.7584                   24694350.0084
 -31029797.55948 -24166994.33647  20356352.2504                   20356349.5594
 -53666801.719 5                  24563181.211
 -11508002.04748  -8927227.85546  21807578.4384                   21807578.6294
   9005957.75447   7051583.08244  23443217.7894                   23443215.7034
 -50750744.57447 -39532597.10246  21375608.1564                   21375603.6334
 11  8 18  1 59 30.0000000  0  8G12G10G30G26G05G25G29G02
 -33454706.09848 -26027474.30946  21073220.0004                   21073217.5704
 -35968512.34447 -27908457.85545  22742071.6564                   22742070.8554
 -12283212.23048  -9527206.35245  21631771.1024                   21631769.6454
  20977744.25046  16642912.58642  24659287.2114                   24659287.9144
 -31121642.17248 -24238561.54347  20338874.5234                   20338872.2934
 -11626443.30548  -9019519.71946  21785039.5944                   21785039.6294
   8832266.22746   6916239.08244  23410164.8674                   23410162.9534
 -50807211.96147 -39576597.64846  21364862.6334                   21364858.4804
 11  8 18  2  0  0.0000000  0  8G12G10G30G26G05G25G29G02
 -33506313.83648 -26067688.14146  21063399.4454                   21063396.8404
 -35965862.92647 -27906393.39544  22742576.1414                   22742574.1724
 -12381551.90648  -9603834.65645  21613057.7274                   21613055.6994
  20793406.30546  16499272.73443  24624208.2274                   24624209.6484
 -31212902.62548 -24309673.55947  20321508.4224                   20321505.8984
 -11744305.14148  -9111360.10246  21762611.4384                   21762611.3874
   8658586.93446   6780904.60244  23377114.6414                   23377112.7114
 -50863560.89148 -39620505.90246  21354139.9614                   21354135.6454
 11  8 18  2  0 30.0000000  0  8G12G10G30G26G05G25G29G02
 -33557375.91448 -26107476.77746  21053682.3984                   21053679.8794
 -35962900.32447 -27904084.88744  22743140.3364                   22743138.3164
 -12479267.50848  -9679976.65645  21594462.8754                   21594460.7894
  20608989.35546  16355571.39542  24589115.2194                   24589115.3364
 -31303576.92248 -24380328.82847  20304253.5314                   20304251.2154
 -11861584.21148  -9202746.36346  21740293.7194                   21740293.9884
   8484923.68047   6645582.60544  23344067.5314                   23344065.8134
 -50919789.09848 -39664320.07046  21343440.2504                   21343435.9414
 11  8 18  2  1  0.0000000  0  8G12G10G30G26G05G25G29G02
 -33607898.36748 -26146844.93446  21044068.9534                   21044065.8794
 -35959631.24647 -27901537.54344  22743762.1644                   22743759.9574
 -12576363.14548  -9755635.57045  21575986.5704                   21575984.0124
  20424492.50446  16211807.73042  24554006.6254                   24554007.0044
 -31393669.46148 -24450530.78547  20287109.6484                   20287107.2624
 -11978283.57448  -9293680.89846  21718086.6804                   21718086.3834
   8311274.21547   6510271.37144  23311023.6564                   23311021.5434
 -50975901.52048 -39708044.02346  21332762.1884                   21332757.9264
 11  8 18  2  1 30.0000000  0  8G12G10G30G26G05G25G29G02
 -33657880.15648 -26185791.78546  21034557.4224                   21034554.5904
 -35956056.37947 -27898751.89844  22744442.0314                   22744440.4414
 -12672836.59448  -9830809.66845  21557627.9304                   21557626.2154
  20239921.25446  16067986.09043  24518884.0314                   24518883.9534
 -31483178.50048 -24520278.05547  20270076.7194                   20270074.0554
 -12094400.18748  -9384161.34446  21695990.3754                   21695990.2854
   8137642.23446   6374973.76244  23277982.4384                   23277980.7074
 -51031896.18748 -39751676.21946  21322106.9384                   21322102.0984
 11  8 18  2  2  0.0000000  0  8G12G10G30G26G05G25G29G02
 -33707321.26248 -26224317.32446  21025149.0704                   21025146.5314
 -35952176.77747 -27895728.82044  22745180.5234                   22745178.5944
 -12768686.29348  -9905497.73046  21539388.8834                   21539386.7424
  20055280.37146  15924110.15642  24483747.2974                   24483747.4844
 -31572102.65648 -24589569.59047  20253154.7274                   20253152.1954
 -12209931.49648  -9474185.70346  21674005.5634                   21674005.3834
   7964030.80947   6239692.15644  23244945.1094                   23244943.4104
 -51087771.78948 -39795215.62146  21311474.5784                   21311469.9694
 11  8 18  2  2 30.0000000  0  8G12G10G30G26G05G25G29G02
 -33756226.30548 -26262425.16446  21015842.9384                   21015840.1414
 -35947998.57047 -27892473.05544  22745975.6094                   22745973.4694
 -12863915.75048  -9979702.48846  21521266.9304                   21521265.4384
  19870569.61746  15780179.85242  24448598.0164                   24448598.8954
 -31660446.04348 -24658408.56647  20236343.9304                   20236341.3164
 -12324879.96948  -9563755.91846  21652131.3284                   21652131.4964
   7790438.13347   6104425.17245  23211911.7814                   23211909.9774
 -51143532.16048 -39838665.25446  21300863.0864                   21300859.1254
 11  8 18  2  3  0.0000000  0  8G12G10G30G26G05G25G29G02
 -33804597.05548 -26300116.64846  21006638.0784                   21006635.8444
 -35943524.37146 -27888986.64544  22746826.6414                   22746824.6644
 -12958524.96548 -10053423.93746  21503263.2194                   21503261.3054
  19685792.07846  15636197.49243  24413435.3754                   24413437.4454
 -31748209.02048 -24726795.27747  20219643.3204                   20219640.5394
 -12439244.69548  -9652871.25846  21630368.6024                   21630368.4654
   7616865.98847   5969174.16845  23178882.0004                   23178879.8324
 -51199177.60547 -39882025.32046  21290274.2974                   21290269.4264
 11  8 18  2  3 30.0000000  0  8G12G10G30G26G05G25G29G02
 -33852434.68748 -26337392.73846  20997534.8594                   20997532.3244
 -35938756.31647 -27885271.30544  22747734.1094                   22747732.4144
 -13052513.59848 -10126661.83246  21485378.1094                   21485376.0784
  19500951.87546  15492166.36342  24378261.6804                   24378262.6294
 -31835391.69548 -24794729.80947  20203052.7894                   20203049.8554
 -12553024.39848  -9741530.72746  21608717.0394                   21608716.6374
   7443316.31647   5833940.68845  23145856.5704                   23145854.3244
 -51254708.12547 -39925295.84046  21279707.1884                   21279702.7544
 11  8 18  2  4  0.0000000  0  9G12G10G30G26G05G04G25G29G02
 -33899741.11348 -26374254.89546  20988532.6484                   20988530.3054
 -35933697.64546 -27881329.49244  22748696.4224                   22748695.1804
 -13145882.18448 -10199416.56646  21467610.6884                   21467608.3134
  19316051.48446  15348088.27343  24343077.0704                   24343076.8914
 -31921994.78548 -24862212.71947  20186572.7504                   20186570.4494
                                  23628575.50415                  24540890.594
 -12666218.61348  -9829733.99246  21587177.0314                   21587176.6564
   7269790.33247   5698725.68445  23112835.6414                   23112833.7854
 -51310123.93048 -39968476.96946  21269162.0084                   21269156.9064
 11  8 18  2  4 30.0000000  0  9G12G10G30G26G05G04G25G29G02
 -33946519.37948 -26410705.49646  20979631.1804                   20979628.4384
 -35928352.64846 -27877164.57844  22749713.2504                   22749712.3324
 -13238632.42247 -10271689.47746  21449960.4224                   21449958.7114
  19131092.84846  15203964.77743  24307880.2974                   24307880.5354
 -32008020.71548 -24929245.89547  20170202.6724                   20170199.9104
                                  23616586.691 5                  24538608.305
 -12778828.07848  -9917481.60546  21565748.0164                   21565747.8874
   7096287.90647   5563529.02044  23079819.4774                   23079817.0744
 -51365427.07848 -40011570.29746  21258638.1334                   21258632.9694
 11  8 18  2  5  0.0000000  0  9G12G10G30G26G05G04G25G29G02
 -33992769.03148 -26446744.18746  20970830.3754                   20970827.9344
 -35922721.72746 -27872776.88744  22750785.6024                   22750783.4964
 -13330762.39847 -10343479.07445  21432428.9064                   21432426.6914
  18946081.19546  15059800.02043  24272673.8134                   24272673.2814
 -32093467.80948 -24995828.02047  20153942.2974                   20153939.6994
                                  23604548.207 5                  24536317.242
 -12890849.88748 -10004771.31646  21544430.7194                   21544430.6134
   6922813.23047   5428353.98044  23046807.9454                   23046805.9844
 -51420615.88747 -40054574.55546  21248136.0164                   21248131.8874
 11  8 18  2  5 30.0000000  0  9G12G10G30G26G05G04G25G29G02
 -34038494.92648 -26482374.75846  20962128.8204                   20962126.5904
 -35916811.29347 -27868171.33244  22751910.4534                   22751908.1954
 -13422275.67248 -10414788.11745  21415014.5474                   21415013.1844
  18761016.50046  14915593.90643  24237456.7114                   24237456.2424
 -32178339.87548 -25061962.07447  20137791.9064                   20137788.9774
                                  23592456.629 5                  24534015.984
 -13002286.65648 -10091605.14846  21523225.2274                   21523225.0984
   6749364.46947   5293199.13744  23013801.6024                   23013799.7074
 -51475693.94548 -40097492.50446  21237654.9534                   21237650.6254
 11  8 18  2  6  0.0000000  0  8G12G10G30G26G05G25G29G02
 -32508276.75048 -25289996.96546  21253319.4924                   21253316.9884
 -34335203.22347 -26635749.45744  23052880.2584                   23052878.0984
 -11937748.96148  -9258014.05146  21697511.1254                   21697509.4534
  20151328.68447  15998954.21143  24502024.1254                   24502024.2464
 -30687214.60548 -23900046.26247  20421543.5004                   20421541.1374
 -11537713.52348  -8950379.32446  21801923.9614                   21801923.8204
   8151369.28147   6385670.48044  23280594.7894                   23280592.1214
 -49955239.14848 -38912722.50846  21526987.3594                   21526982.7384
 11  8 18  2  6 30.0000000  0  8G12G10G30G26G05G25G29G02
 -32552957.42648 -25324813.07846  21244817.3914                   21244814.6994
 -34328738.05947 -26630711.63744  23054111.0234                   23054107.8834
 -12028026.62148  -9328360.27346  21680331.2734                   21680329.5704
  19966170.72747  15854675.41843  24466788.8914                   24466789.5634
 -30770936.03548 -23965283.71547  20405611.8204                   20405609.2704
 -11647975.05948  -9036297.39846  21780942.0234                   21780941.8874
   7977980.11347   6250562.04744  23247599.5944                   23247597.8164
 -50010093.39548 -38955466.06246  21516549.4694                   21516545.1484
 11  8 18  2  7  0.0000000  0  8G12G10G30G26G05G25G29G02
 -32597117.29348 -25359223.37146  21236413.9144                   21236411.3364
 -34321999.17647 -26625460.55144  23055393.0234                   23055391.1134
 -12117686.30948  -9398224.96546  21663269.3524                   21663267.5044
  19780971.93047  15710364.81643  24431547.3054                   24431546.8524
 -30854082.23848 -24030072.95347  20389789.7194                   20389786.7504
 -11757647.32048  -9121756.29746  21760071.8594                   21760071.9224
   7804623.74247   6115479.18044  23214610.4774                   23214608.4884
 -50064835.66848 -38998122.35946  21506132.0164                   21506127.5944
 11  8 18  2  7 30.0000000  0  8G12G10G30G26G05G25G29G02
 -32640753.07448 -25393225.27346  21228110.2894                   21228107.7774
 -34314984.16447 -26619994.32044  23056728.0474                   23056726.0984
 -12206723.16848  -9467604.34046  21646326.3204                   21646324.7504
  19595740.64147  15566028.92643  24396299.0864                   24396298.8014
 -30936648.68448 -24094410.42247  20374077.6644                   20374075.1214
 -11866724.50048  -9206751.49646  21739315.5704                   21739314.9964
   7631307.23847   5980427.37144  23181629.6414                   23181627.4964
 -50119461.10248 -39040687.62146  21495737.1954                   21495732.5004
 11  8 18  2  8  0.0000000  0  8G12G10G30G26G05G25G29G02
 -32683866.10948 -25426819.85546  21219906.1564                   21219903.3984
 -34307695.41847 -26614314.77744  23058115.0164                   23058113.3054
 -12295137.33248  -9536498.48446  21629502.3134                   21629500.5554
  19410480.29747  15421670.38343  24361044.6414                   24361045.2424
 -31018636.12948 -24158296.72747  20358475.6094                   20358473.4304
 -11975205.66048  -9291282.28146  21718672.1884                   21718672.1764
   7458032.33647   5845407.98444  23148656.7584                   23148654.4304
 -50173969.64548 -39083161.78946  21485364.4384                   21485360.4614
 11  8 18  2  8 30.0000000  0  8G12G10G30G26G05G25G29G02
 -32726462.57848 -25460011.91046  21211800.5084                   21211797.4494
 -34300139.89546 -26608427.35544  23059552.2664                   23059551.3634
 -12382933.46948  -9604911.04746  21612794.9844                   21612793.0704
  19225189.93047  15277288.42244  24325785.2584                   24325784.8834
 -31100049.47348 -24221735.68047  20342983.3444                   20342980.9064
 -12083094.61748  -9375351.60246  21698141.4694                   21698141.7154
   7284796.63747   5710419.16445  23115690.9144                   23115689.4104
 -50228365.85948 -39125548.43046  21475013.2114                   21475008.6764
 11  8 18  2  9  0.0000000  0  8G12G10G30G26G05G25G29G02
 -32768545.82048 -25492804.04746  21203792.0634                   21203789.2544
 -34292321.87946 -26602335.39144  23061040.7114                   23061038.6054
 -12470113.87148  -9672843.82046  21596205.0084                   21596202.9304
  19039871.12147  15132884.34044  24290520.3204                   24290520.0474
 -31180891.41048 -24284729.38347  20327599.6414                   20327597.4694
 -12190392.54348  -9458960.38346  21677723.4774                   21677723.2894
   7111600.07447   5575460.83645  23082732.5474                   23082731.0704
 -50282651.68047 -39167849.03546  21464683.1484                   21464678.8134
 11  8 18  2  9 30.0000000  0  8G12G10G30G26G05G25G29G02
 -32810117.31248 -25525197.42246  21195881.2894                   21195878.5864
 -34284243.74246 -26596040.73444  23062577.3364                   23062575.4534
 -12556678.60248  -9740296.85246  21579732.5634                   21579730.4414
  18854527.60947  14988461.01244  24255250.4534                   24255250.3404
 -31261162.05148 -24347277.91847  20312324.9144                   20312322.0744
 -12297098.53548  -9542107.91846  21657418.3284                   21657417.9494
   6938444.68447   5440534.59045  23049782.3054                   23049780.1134
 -50336827.32047 -39210063.82446  21454373.5784                   21454369.6374
 11  8 18  2 10  0.0000000  0  8G12G10G30G26G05G25G29G02
 -32851179.44548 -25557193.88746  21188067.3524                   21188064.6134
 -34275908.37146 -26589545.64144  23064163.8444                   23064161.1994
 -12642628.40248  -9807270.70345  21563376.7114                   21563374.6914
  18669162.70746  14844020.94143  24219976.2974                   24219976.8714
 -31340862.57448 -24409382.20747  20297157.9144                   20297155.5274
 -12403212.23048  -9624793.91446  21637225.2814                   21637225.1484
   6765331.84447   5305641.49645  23016840.0164                   23016838.4574
 -50390892.96948 -39252192.87946  21444085.4614                   21444080.9144
 11  8 18  2 10 30.0000000  0  8G12G10G30G26G05G25G29G02
 -32891737.87948 -25588797.85546  21180349.4144                   21180346.5204
 -34267322.55946 -26582855.41844  23065798.0864                   23065795.6024
 -12727967.62948  -9873768.80546  21547137.2584                   21547134.8954
  18483775.68447  14699563.69543  24184698.2584                   24184697.9494
 -31419997.87948 -24471046.06247  20282099.2974                   20282096.5514
 -12508737.17648  -9707021.14146  21617144.5554                   21617144.3094
   6592259.55547   5170780.01245  22983905.1094                   22983904.0824
 -50444852.63348 -39294239.34446  21433817.2584                   21433812.6054
 11  8 18  2 11  0.0000000  0  8G12G10G30G26G05G25G29G02
 -32931792.78148 -25620009.46946  21172727.6884                   21172724.8594
 -34258487.65646 -26575971.06244  23067478.8754                   23067476.7424
 -12812695.55948  -9939790.55546  21531013.7424                   21531011.9064
  18298371.24646  14555092.82843  24149416.1884                   24149416.3954
 -31498567.42648 -24532269.05547  20267147.8834                   20267145.1454
 -12613671.47348  -9788788.12546  21597176.3204                   21597176.0044
   6419230.86347   5035952.50845  22950978.9614                   22950977.5944
 -50498705.25448 -39336202.42246  21423569.5864                   21423565.1684
 11  8 18  2 11 30.0000000  0  8G12G10G30G26G05G25G29G02
 -32971345.04348 -25650829.40646  21165200.8524                   21165197.8404
 -34249404.87546 -26568893.58244  23069207.2034                   23069204.8834
 -12896811.39848 -10005335.35245  21515007.1414                   21515005.1454
  18112954.30946  14410612.25443  24114132.8594                   24114132.1134
 -31576570.77048 -24593050.86347  20252304.3914                   20252301.7814
 -12718013.44548  -9870093.54346  21577320.4304                   21577320.4454
   6246248.72347   4901161.28145  22918061.3984                   22918060.3594
 -50552449.69948 -39378081.20346  21413342.3284                   21413338.1684
 11  8 18  2 12  0.0000000  0  8G12G10G30G26G05G25G29G02
 -33010397.58648 -25681259.96546  21157769.1954                   21157766.4694
 -34240077.79747 -26561625.73444  23070982.0634                   23070979.3554
 -12980316.70748 -10070404.41845  21499116.3524                   21499114.4804
  17927526.95346  14266123.55143  24078846.9224                   24078846.9454
 -31654009.72348 -24653392.89547  20237568.2664                   20237565.9614
 -12821763.51648  -9950937.74646  21557577.3524                   21557577.7424
   6073314.18047   4766407.15245  22885152.9384                   22885151.4144
 -50606087.34848 -39419876.76246  21403135.0784                   21403130.7704
 11  8 18  2 12 30.0000000  0  8G12G10G30G26G05G25G29G02
 -33048953.18448 -25711303.28946  21150432.2734                   21150429.7624
 -34230510.43047 -26554170.63744  23072802.4614                   23072799.6604
 -13063213.14548 -10134999.04745  21483341.6414                   21483339.8054
  17742091.83646  14121628.77743  24043559.5784                   24043559.6644
 -31730886.34448 -24713296.72347  20222939.0704                   20222935.9734
 -12924922.50448 -10031321.35246  21537947.1174                   21537946.9494
   5900427.80947   4631690.53945  22852253.6644                   22852252.0984
 -50659619.27348 -39461589.94546  21392948.6254                   21392943.6914
 11  8 18  2 13  0.0000000  0  8G12G10G30G26G05G25G29G02
 -33087016.30548 -25740962.87946  21143189.3834                   21143186.2344
 -34220707.70746 -26546532.15244  23074668.3134                   23074665.9804
 -13145503.88348 -10199121.70746  21467682.7974                   21467680.8204
  17556649.91046  13977128.70343  24008271.6024                   24008270.7464
 -31807203.98848 -24772765.00047  20208416.2974                   20208413.8954
 -13027492.38748 -10111245.91846  21518428.7974                   21518428.2934
   5727588.80547   4497010.84045  22819363.6094                   22819362.1454
 -50713048.23847 -39503222.88746  21382780.7734                   21382776.5634
 11  8 18  2 13 30.0000000  0  8G12G10G30G26G05G25G29G02
 -33124586.69548 -25770238.50446  21136040.2274                   21136037.1134
 -34210669.95346 -26538710.55144  23076578.1564                   23076576.3054
 -13227187.07448 -10262770.94145  21452138.8524                   21452136.5664
  17371206.97346  13832627.82843  23972982.9614                   23972982.2814
 -31882961.20748 -24831796.58247  20194000.2814                   20193997.4574
 -13129470.47748 -10190709.35246  21499022.8594                   21499022.4614
   5554801.53947   4362371.47745  22786483.3364                   22786481.5784
 -50766372.00847 -39544773.85946  21372633.8594                   21372629.1254
 11  8 18  2 14  0.0000000  0  8G12G10G30G26G05G25G29G02
 -33161668.55948 -25799133.46946  21128983.4304                   21128980.4024
 -34200402.41846 -26530709.90244  23078531.7814                   23078530.3054
 -13308265.98448 -10325949.32046  21436710.0634                   21436708.0554
  17185763.75846  13688126.74243  23937693.9384                   23937693.0004
 -31958161.44148 -24890394.14547  20179689.8594                   20179687.2504
 -13230858.96948 -10269713.34446  21479729.4534                   21479728.8364
   5382065.35247   4227771.91045  22753612.7034                   22753610.9574
 -50819593.21948 -39586244.92246  21362506.3754                   21362501.9844
 11  8 18  2 14 30.0000000  0  8G12G10G30G26G05G25G29G02
 -33198261.47748 -25827647.43046  21122020.2194                   21122017.3244
 -34189905.31247 -26522530.32844  23080529.9534                   23080527.8984
 -13388739.10948 -10388655.65645  21421396.6484                   21421394.6334
  17000326.18847  13543630.04743  23902405.7274                   23902405.4804
 -32032803.23048 -24948556.56647  20165486.2424                   20165483.2504
 -13331655.27048 -10348255.90246  21460548.3754                   21460548.2424
   5209384.31647   4093215.32445  22720752.5864                   22720751.0204
 -50872709.68448 -39627634.35946  21352398.7734                   21352394.4844
 11  8 18  2 15  0.0000000  0  8G12G10G30G26G05G25G29G02
 -31658947.95748 -24628182.34046  21414941.5554                   21414939.1174
 -32603763.05547 -25286575.32444  23382362.3914                   23382360.4184
 -11893186.01648  -9223289.60946  21705990.5864                   21705989.1804
  18390322.48847  14626744.16043  24166913.7344                   24166912.8594
 -30531466.78548 -23778683.98447  20451180.9844                   20451178.3134
 -11856437.35948  -9198735.43746  21741273.0474                   21741272.9734
   6612184.58247   5186306.50045  22987696.4534                   22987694.5704
 -49350301.37948 -38441342.17646  21642103.3984                   21642099.2194
 11  8 18  2 15 30.0000000  0  8G12G10G30G26G05G25G29G02
 -31694574.94148 -24655943.62946  21408161.9454                   21408159.3014
 -32592820.21547 -25278048.45743  23384444.8054                   23384442.4144
 -11972455.29348  -9285057.89546  21690906.1724                   21690904.2544
  18204901.14847  14482260.10543  24131629.4384                   24131628.7704
 -30605000.97748 -23835983.34447  20437187.9924                   20437185.1684
 -11956054.12148  -9276358.86346  21722316.4384                   21722316.2194
   6439613.66047   5051835.69145  22954857.7114                   22954855.7894
 -49403214.33648 -38482573.01646  21632034.6254                   21632029.8954
 11  8 18  2 16  0.0000000  0  8G12G10G30G26G05G25G29G02
 -31729720.58248 -24683329.85946  21401473.8524                   21401471.3054
 -32581657.17646 -25269349.95343  23386569.2734                   23386566.5394
 -12051122.44148  -9346356.98845  21675936.2344                   21675934.6454
  18019494.57446  14337787.51643  24096346.8754                   24096346.8834
 -30677981.64848 -23892851.38347  20423300.0864                   20423297.3204
 -12055079.39548  -9353521.41446  21703472.6094                   21703472.4224
   6267102.17647   4917411.22345  22922029.1254                   22922027.3054
 -49456024.34448 -38523723.66446  21621984.9534                   21621980.5204
 11  8 18  2 16 30.0000000  0  8G12G10G30G26G05G25G29G02
 -31764389.23848 -24710344.39146  21394876.8674                   21394874.2464
 -32570279.18447 -25260483.96943  23388734.2584                   23388732.2424
 -12129190.75048  -9407189.44946  21661080.5084                   21661078.4614
  17834103.65246  14193327.13743  24061069.1484                   24061068.2584
 -30750411.91048 -23949290.53147  20409517.1954                   20409514.3754
 -12153515.41448  -9430224.79746  21684740.8134                   21684740.3984
   6094649.52047   4783032.56645  22889213.0554                   22889211.3324
 -49508734.14548 -38564796.21946  21611954.8674                   21611949.6954
 11  8 18  2 17  0.0000000  0  8G12G10G30G26G05G25G29G02
 -31798582.94948 -24736988.83646  21388369.6724                   21388367.6804
 -32558688.21147 -25251452.03944  23390939.6804                   23390937.6684
 -12206660.89848  -9467555.80545  21646338.2194                   21646336.3834
  17648732.05946  14048881.85543  24025793.2664                   24025792.5554
 -30822292.66048 -24005301.48847  20395838.7274                   20395835.9844
 -12251361.90648  -9506468.80946  21666121.2894                   21666120.8794
   5922257.57047   4648701.22745  22856408.0864                   22856406.2194
 -49561343.73448 -38605790.68746  21601943.6254                   21601939.0784
 11  8 18  2 17 30.0000000  0  8G12G10G30G26G05G25G29G02
 -31832303.52748 -24763264.62146  21381953.1884                   21381950.2854
 -32546887.06646 -25242256.35543  23393184.9924                   23393183.0314
 -12283533.65248  -9527456.66046  21631710.1564                   21631708.3244
  17463383.66046  13904454.59443  23990522.6174                   23990521.9844
 -30893625.21948 -24060885.28547  20382264.5004                   20382261.6684
 -12348618.53548  -9582253.19946  21647613.9144                   21647613.6604
   5749928.42247   4514418.84445  22823614.6024                   22823612.9694
 -49613852.81648 -38646706.84846  21591951.0944                   21591946.3674
 11  8 18  2 18  0.0000000  0  8G12G10G30G26G05G25G29G02
 -31865553.98448 -24789174.06646  21375625.7974                   21375623.1094
 -32534878.95746 -25232899.41044  23395470.3914                   23395468.3204
 -12359810.51648  -9586893.19145  21617195.0394                   21617192.9734
  17278061.36346  13760047.70343  23955256.7734                   23955256.6214
 -30964411.17648 -24116043.15647  20368794.2814                   20368791.6484
 -12445285.80148  -9657578.33246  21629218.7274                   21629218.6914
   5577663.43447   4380186.43845  22790833.5314                   22790831.9264
 -49666262.25448 -38687545.35946  21581977.8524                   21581973.7114
 11  8 18  2 18 30.0000000  0  8G12G10G30G26G05G25G29G02
 -31898334.94548 -24814717.67246  21369387.5864                   21369385.1604
 -32522665.20347 -25223382.20344  23397794.6724                   23397792.3244
 -12435491.04748  -9645865.03945  21602793.6724                   21602791.3634
  17092769.79746  13615664.75044  23919997.0554                   23919996.3634
 -31034650.78548 -24170775.30147  20355428.1254                   20355425.3244
 -12541362.35248  -9732443.18046  21610935.7194                   21610935.9574
   5405466.01247   4246006.68445  22758065.4224                   22758063.7194
 -49718570.71148 -38728305.18446  21572024.3134                   21572019.5004
 11  8 18  2 19  0.0000000  0  8G12G10G30G26G05G25G29G02
 -31930650.75848 -24839898.82046  21363238.4694                   21363235.7544
 -32510250.48847 -25213708.41043  23400156.5864                   23400154.7034
 -12510578.48848  -9704374.73446  21588504.9064                   21588502.8094
  16907510.48446  13471306.93444  23884743.8054                   23884742.4964
 -31104346.93448 -24225083.96947  20342165.4224                   20342162.3794
 -12636850.23048  -9806849.32046  21592765.0084                   21592764.8094
   5233335.58647   4111879.12945  22725310.2584                   22725308.1334
 -49770780.37148 -38768988.02046  21562088.7034                   21562084.4264
 11  8 18  2 19 30.0000000  0  8G12G10G30G26G05G25G29G02
 -31962505.23447 -24864720.50846  21357176.5704                   21357173.8914
 -32497639.21547 -25203881.45744  23402556.7424                   23402554.8054
 -12585075.73448  -9762424.53945  21574328.7034                   21574326.6054
  16722284.90646  13326975.37144  23849496.2584                   23849495.2974
 -31173502.62948 -24278971.49647  20329005.5234                   20329002.4694
 -12731751.50848  -9880798.37546  21574706.0554                   21574705.9494
   5061272.11347   3977803.76245  22692567.0314                   22692565.5904
 -49822893.44148 -38809595.62946  21552172.1644                   21552167.6024
 11  8 18  2 20  0.0000000  0  8G12G10G30G26G05G25G29G02
 -31993900.73047 -24889184.52346  21351202.0634                   21351199.2544
 -32484833.71947 -25193903.14143  23404993.7584                   23404991.8364
 -12658983.52748  -9820015.03145  21560264.1804                   21560262.5944
  16537097.18446  13182673.35544  23814256.0944                   23814255.4534
 -31242119.04348 -24332438.81247  20315948.2504                   20315945.4064
 -12826065.79348  -9954290.03946  21556758.7424                   21556758.8164
   4889277.82047   3843782.30945  22659837.5944                   22659835.6294
 -49874909.68448 -38850127.73846  21542273.9384                   21542269.0234
 11  8 18  2 20 30.0000000  0  8G12G10G30G26G05G25G29G02
 -32024837.72348 -24913291.27746  21345315.0004                   21345312.5004
 -32471835.62147 -25183774.76244  23407467.7814                   23407465.9064
 -12732301.57848  -9877145.97346  21546312.2194                   21546310.1094
  16351952.03146  13038404.49244  23779024.3054                   23779023.6024
 -31310196.50448 -24385486.17647  20302993.4144                   20302990.3674
 -12919791.85248 -10027323.34046  21538923.0164                   21538923.3164
   4717355.86347   3709817.20745  22627121.8594                   22627120.4534
 -49926827.87148 -38890583.47746  21532394.2584                   21532389.7704
 11  8 18  2 21  0.0000000  0  8G12G10G30G26G05G25G29G02
 -32055320.91048 -24937044.42246  21339514.2274                   21339511.5044
 -32458649.23847 -25173499.67243  23409976.4534                   23409975.2974
 -12805032.95748  -9933819.78145  21532471.8674                   21532469.9414
  16166851.09046  12894170.04744  23743800.4614                   23743800.2704
 -31377737.70748 -24438115.67647  20290140.5634                   20290137.6954
 -13012931.64848 -10099899.81646  21521199.3284                   21521198.8444
   4545506.52047   3575908.68845  22594420.0944                   22594418.8674
 -49978650.06648 -38930964.40646  21522532.7114                   21522527.5084
 11  8 18  2 21 30.0000000  0  8G12G10G30G26G05G25G29G02
 -32085348.28548 -24960442.39546  21333800.4304                   21333797.6454
 -32445273.21547 -25163076.80943  23412522.1644                   23412520.6564
 -12877174.87948  -9990034.26246  21518743.5704                   21518741.4964
  15981801.77047  12749975.88344  23708587.2274                   23708586.0554
 -31444740.28148 -24490325.44147  20277390.7584                   20277387.5394
 -13105481.45348 -10172016.55546  21503587.3364                   21503587.7274
   4373735.60247   3442061.27045  22561733.3134                   22561731.3484
 -50030372.50848 -38971267.60946  21512690.0944                   21512685.2384
 11  8 18  2 22  0.0000000  0  8G12G10G30G26G05G25G29G02
 -32114922.50447 -24983487.24246  21328172.1254                   21328169.9384
 -32431710.53547 -25152508.48843  23415103.1804                   23415101.0274
 -12948728.98048 -10045790.69945  21505127.6954                   21505125.5314
  15796807.17247  12605824.32044  23673383.5634                   23673382.4024
 -31511206.00048 -24542116.89847  20264742.2584                   20264739.7274
 -13197441.84848 -10243674.00046  21486088.0234                   21486087.8134
   4202044.48047   3308276.03945  22529061.5784                   22529059.4884
 -50081995.60948 -39011493.40646  21502866.5474                   21502862.1524
 11  8 18  2 22 30.0000000  0  8G12G10G30G26G05G25G29G02
 -32144047.34848 -25006181.93746  21322630.1024                   21322627.2894
 -32417965.59447 -25141798.16843  23417718.1954                   23417716.6294
 -13019698.00048 -10101091.21545  21491622.7734                   21491620.5004
  15611869.52047  12461717.13744  23638191.2974                   23638190.3134
 -31577137.93048 -24593492.40647  20252196.2344                   20252193.1174
 -13288814.55548 -10314873.51646  21468700.5164                   21468700.1604
   4030433.10547   3174552.93845  22496404.9454                   22496402.8714
 -50133520.87148 -39051642.96546  21493061.8364                   21493056.4184
 11  8 18  2 23  0.0000000  0  8G12G10G30G26G05G25G29G02
 -32172728.16848 -25028530.64146  21317172.6254                   21317169.6564
 -32404043.98447 -25130950.18743  23420367.5164                   23420366.0354
 -13090086.03548 -10155939.02745  21478228.0004                   21478225.9264
  15426989.10547  12317654.52344  23603009.5394                   23603008.7114
 -31642540.20748 -24644455.20347  20239750.4774                   20239747.7584
 -13379602.62948 -10385617.47746  21451424.2894                   21451423.7704
   3858901.43047   3040891.94145  22463763.5084                   22463761.9494
 -50184951.52348 -39091718.78946  21483274.5864                   21483269.4064
 11  8 18  2 23 30.0000000  0  8G12G10G30G26G05G25G29G02
 -30625545.45348 -23822933.72346  21611591.7814                   21611588.8524
 -30814527.39547 -23892365.87143  23722842.6644                   23722840.7274
 -11584471.09048  -8982732.55546  21764737.2734                   21764735.2154
  16817596.73847  13401244.96944  23867633.5164                   23867631.6644
 -30131991.20748 -23467404.01647  20527198.4534                   20527195.4344
 -11894382.45748  -9228303.05146  21734052.1334                   21734052.3524
   5262877.71947   4134899.48445  22730931.2734                   22730929.7074
 -48660864.77748 -37904118.73045  21773298.7424                   21773293.8954
 11  8 18  2 24  0.0000000  0  9G12G10G30G26G05G15G25G29G02
 -30653339.73848 -23844591.60546  21606302.4144                   21606299.8324
 -30800253.83247 -23881243.65643  23725559.6954                   23725556.9264
 -11653695.28948  -9036673.46545  21751563.8054                   21751561.9224
  16632847.44547  13257284.55543  23832476.2424                   23832474.5274
 -30196332.54348 -23517540.10547  20514954.7114                   20514951.9224
  28097542.07056  21942680.00053  24743736.3834                   24743736.6724
 -11983996.44948  -9298132.12946  21716999.2194                   21716999.0634
   5091516.09447   4001370.98845  22698322.1724                   22698320.4844
 -48712100.42248 -37944042.61346  21763548.6024                   21763544.3204
 11  8 18  2 24 30.0000000  0  9G12G10G30G26G05G15G25G29G02
 -30680699.62547 -23865911.00446  21601096.4064                   21601093.5704
 -30785814.33647 -23869992.12143  23728306.6484                   23728304.3014
 -11722345.25848  -9090166.94945  21738500.5634                   21738498.2854
  16448163.46946  13113375.05543  23797332.3754                   23797331.2544
 -30260151.25848 -23567268.94547  20502810.4384                   20502807.5434
  27914329.50946  21799917.15643  24708871.7894                   24708872.3594
 -12073029.58648  -9367508.58246  21700056.6334                   21700056.3524
   4920236.66047   3867906.55145  22665728.9304                   22665727.2504
 -48763244.65648 -37983895.27745  21753816.4614                   21753811.3634
 11  8 18  2 25  0.0000000  0  9G12G10G30G26G05G15G25G29G02
 -30707628.83648 -23886894.80946  21595971.5394                   21595968.9884
 -30771212.12947 -23858613.81643  23731085.8984                   23731083.3714
 -11790423.31648  -9143214.76245  21725545.6094                   21725544.0044
  16263547.28147  12969518.37543  23762200.9224                   23762198.8484
 -30323450.14548 -23616592.74247  20490764.7504                   20490762.3404
  27730992.18046  21657057.05943  24673984.1024                   24673984.2034
 -12161483.10248  -9436433.37546  21683224.3674                   21683224.4224
   4749040.48047   3734506.96545  22633151.3054                   22633149.1214
 -48814298.05148 -38023677.13345  21744101.2114                   21744096.4614
 11  8 18  2 25 30.0000000  0  9G12G10G30G26G05G15G25G29G02
 -30734132.17648 -23907546.76646  21590928.0004                   21590925.6994
 -30756452.50047 -23847112.83244  23733894.3754                   23733892.1134
 -11857933.18448  -9195819.83645  21712698.6884                   21712696.7544
  16079000.28546  12825715.59843  23727082.0704                   23727080.7774
 -30386232.88348 -23665514.33247  20478817.6724                   20478814.6684
  27547530.13746  21514099.74244  24639072.6174                   24639072.2384
 -12249359.66448  -9504908.59446  21666502.3754                   21666502.1134
   4577927.10547   3601171.91045  22600589.7274                   22600587.3984
 -48865263.34848 -38063390.34446  21734403.2894                   21734398.5594
 11  8 18  2 26  0.0000000  0  9G12G10G30G26G05G15G25G29G02
 -30760207.44148 -23927865.16446  21585966.3914                   21585963.4654
 -30741533.43446 -23835487.63343  23736732.4064                   23736731.4614
 -11924871.84448  -9247979.81645  21699960.7664                   21699958.7704
  15894530.27346  12681972.79743  23691978.3364                   23691977.3054
 -30448496.47348 -23714031.39547  20466969.4694                   20466966.7274
  27363950.49646  21371050.79744  24604137.3674                   24604138.0084
 -12336655.51648  -9572931.31246  21649890.3444                   21649890.4614
   4406902.83247   3467906.29345  22568044.3594                   22568042.2664
 -48916136.18448 -38103031.52746  21724722.4224                   21724717.7074
 11  8 18  2 26 30.0000000  0  9G12G10G30G26G05G15G25G29G02
 -30785855.35548 -23947850.55546  21581086.0784                   21581083.1764
 -30726455.61346 -23823738.74243  23739602.1334                   23739600.8754
 -11991238.96948  -9299694.44145  21687331.8984                   21687329.5044
  15710142.68046  12538294.23043  23656890.8524                   23656889.4734
 -30510240.64548 -23762143.71547  20455219.8834                   20455216.8954
  27180257.87146  21227913.82444  24569182.6094                   24569182.7384
 -12423369.10948  -9640500.33246  21633389.3914                   21633388.7894
   4235971.57847   3334713.15245  22535517.6254                   22535514.5274
 -48966914.93448 -38142599.37546  21715059.3914                   21715054.0314
 11  8 18  2 27  0.0000000  0  9G12G10G30G26G05G15G25G29G02
 -30811081.41848 -23967507.22346  21576285.4304                   21576283.3204
 -30711225.08246 -23811870.85543  23742500.5164                   23742498.7304
 -12057039.38748  -9350967.48445  21674810.0864                   21674807.9224
  15525837.76646  12394680.10244  23621819.0004                   23621818.0204
 -30571470.40648 -23809855.19147  20443568.2114                   20443565.3714
  26996451.46146  21084688.21544  24534204.5944                   24534204.9494
 -12509504.24248  -9707618.60946  21616998.2114                   21616998.4924
   4065131.88747   3201591.35945  22503007.4774                   22503005.5864
 -49017602.77748 -38182096.39546  21705413.8754                   21705409.4574
 11  8 18  2 27 30.0000000  0  9G12G10G30G26G05G15G25G29G02
 -30835886.86748 -23986836.15646  21571564.8984                   21571562.2194
 -30695842.91047 -23799884.76243  23745428.8054                   23745425.6644
 -12122272.86748  -9401798.74245  21662396.7584                   21662394.8364
  15341620.82447  12251134.54344  23586763.0784                   23586761.9454
 -30632185.76248 -23857165.82847  20432014.4924                   20432011.7704
  26812535.42646  20941377.14544  24499207.3914                   24499206.6414
 -12595059.79348  -9774285.25846  21600717.7194                   21600717.4574
   3894387.30547   3068543.68445  22470515.8284                   22470513.4614
 -49068198.46148 -38221521.60546  21695785.5164                   21695780.5204
 11  8 18  2 28  0.0000000  0  9G12G10G30G26G05G15G25G29G02
 -30860274.67248 -24005839.63746  21566923.9924                   21566921.4574
 -30680311.60547 -23787782.48443  23748383.5314                   23748380.8324
 -12186941.35548  -9452189.78545  21650090.5474                   21650088.4964
  15157495.05546  12107660.00044  23551724.9694                   23551724.6414
 -30692388.67648 -23904077.17647  20420557.9144                   20420555.0394
  26628512.04347  20797982.46544  24464188.7344                   24464188.5314
 -12680036.62148  -9840500.96146  21584547.0634                   21584547.0124
   3723739.67247   2935571.54745  22438042.9614                   22438039.7664
 -49118701.86748 -38260874.90246  21686175.1724                   21686169.8954
 11  8 18  2 28 30.0000000  0  9G12G10G30G26G05G15G25G29G02
 -30884246.70348 -24024519.14146  21562362.5084                   21562360.2934
 -30664633.85547 -23775566.09843  23751366.5554                   23751364.3054
 -12251046.29348  -9502141.66846  21637892.2664                   21637889.9804
  14973464.05547  11964259.27744  23516705.4844                   23516704.5704
 -30752080.91048 -23950590.58647  20409199.0394                   20409196.0084
  26444383.96946  20654506.22344  24429149.7114                   24429149.7584
 -12764435.20348  -9906266.07046  21568486.4384                   21568486.5234
   3553190.75447   2802676.34445  22405588.2344                   22405585.8094
 -49169113.26648 -38300156.49646  21676582.4064                   21676577.5474
 11  8 18  2 29  0.0000000  0  9G12G10G30G26G05G15G25G29G02
 -30907806.34448 -24042877.30546  21557879.1024                   21557876.4694
 -30648812.48447 -23763237.82843  23754377.6174                   23754375.1484
 -12314589.50448  -9551655.84446  21625800.4064                   21625798.2194
  14789531.18847  11820935.07044  23481704.5314                   23481703.2584
 -30811264.04748 -23996707.30147  20397937.0234                   20397933.9454
  26260153.63346  20510950.27744  24394092.3594                   24394091.3094
 -12848256.40248  -9971581.28946  21552536.2814                   21552536.2234
   3382742.78947   2669859.78545  22373152.9774                   22373150.4064
 -49219432.72748 -38339366.45746  21667006.5084                   21667002.2464
 11  8 18  2 29 30.0000000  0  9G12G10G30G26G05G15G25G29G02
 -30930957.75448 -24060917.35946  21553473.3914                   21553471.2234
 -30632852.04747 -23750801.16843  23757414.7814                   23757411.9804
 -12377574.18447  -9600734.82445  21613814.5004                   21613812.2894
  14605698.43847  11677688.85244  23446722.2034                   23446720.9414
 -30869941.36348 -24042429.87547  20386771.1564                   20386768.4344
  26075822.09446  20367315.47343  24359015.2424                   24359014.5004
 -12931502.48048 -10036448.34446  21536695.0474                   21536694.6884
   3212395.89847   2537122.00445  22340737.1334                   22340735.0984
 -49269662.17647 -38378506.29345  21657448.3284                   21657443.7274
 11  8 18  2 30  0.0000000  0  9G12G10G30G26G05G15G25G29G02
 -30953703.12548 -24078641.03546  21549145.3834                   21549142.7234
 -30616754.88746 -23738257.95343  23760477.8594                   23760474.7464
 -12440002.00847  -9649379.87945  21601934.9454                   21601932.9844
  14421969.55547  11534523.54344  23411759.6804                   23411758.3364
 -30928114.51248 -24087759.58247  20375701.1564                   20375697.9614
  25891392.02046  20223603.87543  24323918.3444                   24323918.5234
 -13014173.93048 -10100867.64546  21520962.6724                   21520963.0234
   3042152.12547   2404464.55545  22308340.9144                   22308338.8164
 -49319801.64547 -38417575.99245  21647906.9774                   21647902.1804
 11  8 18  2 30 30.0000000  0  9G12G10G30G26G05G15G25G29G02
 -30976044.34448 -24096049.77046  21544893.9694                   21544890.9024
 -30600522.74646 -23725609.55543  23763566.8674                   23763564.0944
 -12501873.81248  -9697591.66445  21590161.0004                   21590159.1724
  14238348.69147  11391442.42644  23376817.4454                   23376816.7624
 -30985784.78948 -24132697.46147  20364726.7274                   20364723.7304
  25706866.84846  20079818.17243  24288803.5474                   24288803.8014
 -13096270.69948 -10164839.14146  21505340.6804                   21505340.2854
   2872014.15247   2271889.56645  22275965.4304                   22275962.5554
 -49369850.37147 -38456574.99245  21638383.2274                   21638378.1054
 11  8 18  2 31  0.0000000  0  9G12G10G30G26G05G15G25G29G02
 -30997981.04748 -24113143.30946  21540719.6954                   21540716.9024
 -30584155.32446 -23712855.68443  23766681.6414                   23766679.4104
 -12563188.37547  -9745369.23845  21578493.5704                   21578491.2114
  14054842.65647  11248450.77344  23341897.9774                   23341896.6254
 -31042950.68048 -24177242.29346  20353848.4224                   20353845.6644
  25522252.08646  19935962.64143  24253672.9224                   24253672.9774
 -13177790.64548 -10228361.17646  21489827.8524                   21489827.4844
   2701986.95747   2139400.88745  22243609.4844                   22243607.5984
 -49419805.51247 -38495501.04745  21628876.5784                   21628872.6334
 11  8 18  2 31 30.0000000  0  9G12G10G30G26G05G15G25G29G02
 -31019519.26247 -24129926.34446  21536621.0864                   21536618.0354
 -30567658.55946 -23700001.08643  23769820.7974                   23769818.1024
 -12623950.66847  -9792716.48445  21566930.6414                   21566928.3444
  13871451.58247  11105548.69944  23306999.1884                   23306997.9734
 -31099617.29748 -24221398.10247  20343065.0784                   20343062.0784
  25337547.11346  19792036.84443  24218525.0704                   24218524.5274
 -13258737.72348 -10291436.80546  21474423.6804                   21474423.7114
   2532069.26647   2006997.53545  22211275.2974                   22211273.1994
 -49469670.14547 -38534356.59445  21619388.2194                   21619383.3634
 11  8 18  2 32  0.0000000  0  9G12G10G30G26G05G15G25G29G02
 -31040658.14548 -24146398.20346  21532598.2584                   21532595.5434
 -30551031.50046 -23687044.93443  23772984.5704                   23772982.8874
 -12684159.03548  -9839632.07845  21555473.4304                   21555471.4104
  13688182.51247  10962741.71544  23272124.9614                   23272122.8954
 -31155782.83248 -24265163.45347  20332377.2114                   20332374.0234
  25152758.08646  19648045.51243  24183361.1414                   24183359.9414
 -13339109.21548 -10354063.94146  21459129.8834                   21459129.3284
   2362266.66047   1874683.85245  22178962.6724                   22178960.7234
 -49519440.82848 -38573138.94545  21609917.0554                   21609912.7034
 11  8 18  2 32 30.0000000  0  9G12G10G30G26G05G15G25G29G02
 -29485982.83648 -22934962.89546  21828443.2344                   21828440.5234
 -28958860.98046 -22446392.56243  24075964.9064                   24075962.9064
 -11168396.95748  -8658518.76646  21843913.5634                   21843911.5944
  15080461.56347  12047634.52344  23537065.8984                   23537064.4924
 -29636031.08648 -23080941.30547  20621576.3674                   20621573.7034
  26543310.06646  20731592.66443  24447974.1334                   24447973.0664
 -11843487.06248  -9188644.07446  21743737.0084                   21743737.2894
   3768003.02747   2970062.87945  22446465.4454                   22446463.2344
 -47993699.99248 -37384249.96945  21900256.0474                   21900250.7544
 11  8 18  2 33  0.0000000  0  9G12G10G30G26G05G15G25G29G02
 -29506340.39148 -22950825.93046  21824569.2504                   21824566.5864
 -28941990.27346 -22433246.57442  24079175.0084                   24079173.7074
 -11227512.46548  -8704582.78545  21832664.0394                   21832661.7504
  14897437.76247  11905018.63344  23502237.5394                   23502236.3054
 -29691209.74248 -23123937.64846  20611075.6094                   20611073.1804
  26358351.42247  20587469.15643  24412777.4694                   24412776.6094
 -11922719.49648  -9250383.62946  21728659.6174                   21728659.1914
   3598427.07447   2837925.82445  22414195.8444                   22414193.8484
 -48043293.00848 -37422893.85945  21890818.7734                   21890814.2274
 11  8 18  2 33 30.0000000  0  9G12G10G30G26G05G15G25G29G02
 -29526310.15648 -22966386.79346  21820769.3444                   21820766.2384
 -28925000.10946 -22420007.54742  24082408.4694                   24082406.6724
 -11286082.79747  -8750222.00045  21821518.2894                   21821516.4924
  14714543.50446  11762503.68044  23467434.4614                   23467432.3134
 -29745896.55548 -23166550.75047  20600669.6644                   20600667.0634
  26173313.22347  20443283.67643  24377565.6804                   24377564.7074
 -12001382.27048  -9311679.28546  21713690.5554                   21713690.5594
   3428968.74647   2705880.39545  22381949.3204                   22381946.9264
 -48092795.67648 -37461467.36745  21881398.2344                   21881393.4964
 11  8 18  2 34  0.0000000  0  9G12G10G30G26G05G15G25G29G02
 -29545893.10548 -22981646.25446  21817042.8594                   21817040.1914
 -28907891.80146 -22406676.45342  24085664.1334                   24085662.3914
 -11344108.27047  -8795436.64545  21810476.3204                   21810474.7854
  14531783.98047  11620093.72344  23432655.7194                   23432653.7074
 -29800091.37548 -23208780.46546  20590356.6174                   20590353.5314
  25988199.95747  20299039.67644  24342340.2344                   24342339.2464
 -12079474.68048  -9372530.50046  21698830.1564                   21698829.9574
   3259631.44947   2573929.29745  22349725.2814                   22349722.9574
 -48142206.65248 -37499969.40645  21871996.0314                   21871991.8954
 11  8 18  2 34 30.0000000  0  9G12G10G30G26G05G15G25G29G02
 -29565091.86347 -22996606.32846  21813389.1414                   21813386.5944
 -28890667.55546 -22393254.95742  24088941.8134                   24088940.6764
 -11401590.78947  -8840228.21945  21799537.7814                   21799536.1294
  14349162.87547  11477791.60244  23397904.5634                   23397903.1644
 -29853796.26648 -23250628.43446  20580136.9454                   20580133.7034
  25803013.94547  20154739.04344  24307100.1954                   24307099.9494
 -12156997.61348  -9432937.97346  21684078.2734                   21684077.9574
   3090417.41047   2442074.23445  22317525.1334                   22317522.7734
 -48191525.77047 -37538399.87546  21862611.1884                   21862606.4964
 11  8 18  2 35  0.0000000  0  9G12G10G30G26G05G15G25G29G02
 -29583908.12947 -23011268.35546  21809808.4774                   21809806.0204
 -28873329.12546 -22379744.46942  24092240.6644                   24092239.5274
 -11458531.30948  -8884597.45345  21788702.3364                   21788700.5124
  14166684.57447  11335600.74244  23363179.4304                   23363178.4064
 -29907012.22748 -23292095.41046  20570010.2664                   20570007.5704
  25617759.43447  20010385.02043  24271846.9224                   24271846.0514
 -12233951.11348  -9492901.71146  21669434.1804                   21669434.0784
   2921329.84047   2310317.69945  22285349.1254                   22285346.5274
 -48240751.97747 -37576757.94146  21853243.7274                   21853238.7074
 11  8 18  2 35 30.0000000  0  9G12G10G30G26G05G15G25G29G02
 -29602348.18048 -23025637.24646  21806299.4534                   21806297.1374
 -28855882.70346 -22366149.92642  24095561.1644                   24095560.1454
 -11514935.21548  -8928548.53945  21777968.8984                   21777966.9734
  13984349.35947  11193521.41844  23328482.5084                   23328481.8404
 -29959744.66048 -23333185.60246  20559975.3834                   20559972.7384
  25432435.22747  19865976.68043  24236581.2114                   24236579.8834
 -12310339.57048  -9552425.16846  21654898.2034                   21654897.8484
   2752367.26647   2178658.58645  22253196.1804                   22253193.8874
 -48289888.97347 -37615046.52745  21843893.2114                   21843888.5664
 11  8 18  2 36  0.0000000  0  9G12G10G30G26G05G15G25G29G02
 -29620413.21147 -23039713.91046  21802861.9694                   21802859.4534
 -28838329.11746 -22352471.79742  24098901.6644                   24098900.3954
 -11570802.64848  -8972081.59446  21767338.2274                   21767336.0824
  13802162.36347  11051557.57444  23293813.6174                   23293812.5394
 -30011993.49648 -23373898.98046  20550033.2504                   20550030.0634
  25247045.93446  19721517.66443  24201302.2274                   24201301.7074
 -12386162.29748  -9611507.79346  21640469.3524                   21640469.2974
   2583533.43447   2047099.77045  22221068.4924                   22221065.8554
 -48338934.99248 -37653264.17645  21834559.9694                   21834555.0274
 11  8 18  2 36 30.0000000  0  9G12G10G30G26G05G15G25G29G02
 -29638105.92247 -23053500.44946  21799495.0784                   21799492.2854
 -28820670.94546 -22338712.16842  24102261.4844                   24102261.3874
 -11626136.05948  -9015198.54745  21756808.1414                   21756806.6564
  13620127.22747  10909712.06344  23259173.5704                   23259171.2894
 -30063761.18448 -23414237.44147  20540181.9064                   20540179.1414
  25061593.86347  19577009.69943  24166012.1414                   24166011.3404
 -12461420.57848  -9670150.59846  21626148.2194                   21626148.0554
   2414830.03547   1915642.60945  22188965.0864                   22188962.8364
 -48387890.37547 -37691411.22745  21825243.8134                   21825239.4734
 11  8 18  2 37  0.0000000  0  9G12G10G30G26G05G15G25G29G02
 -29655428.40647 -23066998.48446  21796199.0164                   21796196.1134
 -28802909.67646 -22324872.19142  24105641.3524                   24105641.6334
 -11680936.68048  -9057900.31645  21746380.3054                   21746378.2504
  13438248.21147  10767988.22344  23224563.0634                   23224562.0274
 -30115048.96948 -23454201.94546  20530422.2344                   20530419.5784
  24876082.29346  19432455.40643  24130709.8754                   24130709.5744
 -12536114.80148  -9728353.86346  21611934.4144                   21611934.3794
   2246259.78947   1784289.19145  22156887.4454                   22156884.3554
 -48436754.63747 -37729487.27045  21815945.5784                   21815940.5594
 11  8 18  2 37 30.0000000  0  9G12G10G30G26G05G15G25G29G02
 -29672383.68447 -23080210.41046  21792972.4304                   21792969.6764
 -28785048.07846 -22310954.08242  24109040.8284                   24109040.8834
 -11735206.27048  -9100188.32845  21736053.1414                   21736051.3324
  13256528.93847  10626388.81344  23189982.5004                   23189981.4064
 -30165858.62148 -23493793.87146  20520753.6334                   20520750.6134
  24690514.44947  19287857.22343  24095397.2894                   24095396.6374
 -12610245.85248  -9786118.31246  21597827.9304                   21597827.9884
   2077824.98047   1653041.31345  22124835.3444                   22124832.5394
 -48485527.05548 -37767491.74645  21806664.4064                   21806659.7234
 11  8 18  2 38  0.0000000  0  9G12G10G30G26G05G15G25G29G02
 -29688974.03547 -23093137.96946  21789815.0474                   21789813.1334
 -28767088.31245 -22296959.41842  24112457.9304                   24112458.8674
 -11788946.71147  -9142063.99245  21725826.2114                   21725824.5784
  13074973.42647  10484917.03144  23155434.0784                   23155432.3164
 -30216191.74248 -23533014.48847  20511175.6884                   20511172.7274
  24504892.91047  19143217.19544  24060075.1884                   24060073.7344
 -12683814.50448  -9843444.52346  21583827.9384                   21583828.1524
   1909527.99647   1521900.84845  22092808.9774                   22092806.7894
 -48534207.53548 -37805424.58645  21797400.6484                   21797395.7734
 11  8 18  2 38 30.0000000  0  9G12G10G30G26G05G15G25G29G02
 -29705203.41447 -23105784.27046  21786726.9304                   21786724.6764
 -28749033.82046 -22282891.07442  24115893.1024                   24115894.7114
 -11842161.21148  -9183529.84445  21715699.9774                   21715698.4574
  12893584.20747  10343574.85244  23120916.4224                   23120915.6954
 -30266051.68748 -23571866.39547  20501687.2194                   20501683.9574
  24319219.52747  18998536.79744  24024742.4304                   24024741.7504
 -12756823.15248  -9900334.37546  21569934.9844                   21569934.8634
   1741369.89547   1390868.60945  22060809.3524                   22060807.8244
 -48582797.25847 -37843286.68445  21788153.7274                   21788148.9224
 11  8 18  2 39  0.0000000  0  9G12G10G30G26G05G15G25G29G02
 -29721074.25447 -23118151.16446  21783706.7504                   21783704.1374
 -28730886.945 5                  24119347.258
 -11894851.46948  -9224587.19145  21705673.6484                   21705671.5274
  12712365.31347  10202365.37544  23086432.2034                   23086430.7624
 -30315439.82848 -23610350.64846  20492289.1334                   20492285.8524
  24133497.64547  18853818.58644  23989400.3134                   23989399.3244
 -12829272.44548  -9956788.36346  21556148.5004                   21556148.1604
   1573353.25847   1259946.58645  22028837.1024                   22028834.9844
 -48631295.97347 -37881077.90645  21778924.7814                   21778920.6294
 11  8 18  2 39 30.0000000  0  9G12G10G30G26G05G15G25G29G02
 -29736589.72747 -23130241.16446  21780753.8914                   21780751.4654
 -28712650.266 6                  24122817.789
 -11947019.84848  -9265237.86745  21695746.0004                   21695744.6054
  12531320.05147  10061291.19544  23051979.7504                   23051978.9144
 -30364358.75848 -23648469.28546  20482979.9844                   20482976.8714
  23947729.45347  18709064.24643  23954050.0784                   23954048.2704
 -12901163.92648 -10012807.68746  21542467.7424                   21542467.5664
   1405479.74247   1129136.09446  21996891.9694                   21996889.6024
 -48679703.60947 -37918798.15645  21769713.3284                   21769709.2034
 11  8 18  2 40  0.0000000  0  9G12G10G30G26G05G15G25G29G02
 -29751755.37947 -23142058.56646  21777868.2894                   21777865.6724
 -28694329.270 6                  24126303.711
 -11998671.41047  -9305485.85245  21685917.3444                   21685915.2154
  12350449.12947   9920352.87144  23017561.3674                   23017559.6374
 -30412813.38748 -23686226.14146  20473760.0864                   20473756.8204
  23761914.90646  18564273.79743  23918689.5864                   23918689.5704
 -12972501.59048 -10068395.47746  21528892.6334                   21528892.8094
   1237748.28547    998436.31646  21964973.5704                   21964970.9574
 -48728023.19947 -37956449.78546  21760518.2664                   21760514.4884
 11  8 18  2 40 30.0000000  0  9G12G10G30G26G05G15G25G29G02
 -29766572.51647 -23153604.39846  21775049.0084                   21775046.3094
 -28675924.629 5                  24129806.805
 -12049806.59048  -9345331.43445  21676186.8754                   21676184.7194
  12169757.97347   9779554.64144  22983176.6724                   22983175.7544
 -30460803.93048 -23723621.36346  20464627.0554                   20464624.0164
  23576058.37547  18419450.63344  23883323.3834                   23883322.0984
 -13043285.21548 -10123551.55146  21515422.9694                   21515422.7974
   1070162.96547    867850.39845  21933083.3984                   21933080.6914
 -48776253.07448 -37994031.50446  21751341.1484                   21751336.4454
 11  8 18  2 41  0.0000000  0  9G12G10G30G26G05G15G25G29G02
 -28205622.05147 -21937279.36746  22072087.8524                   22072085.4184
 -27082017.941 5                  24433116.977
 -10525004.51247  -8157173.98045  21966346.6884                   21966345.0864
  13564677.71547  10866505.12544  23248620.8914                   23248620.1804
 -28932909.69948 -22533054.41846  20755375.7274                   20755372.7584
  24965590.38346  19502202.96144  24147742.0394                   24147741.0314
 -11538092.12948  -8950673.82046  21801851.6644                   21801851.6414
   2478152.87547   1964985.44146  22201014.7664                   22201011.9184
 -47248970.01248 -36803940.80945  22041973.7504                   22041968.9104
 11  8 18  2 41 30.0000000  0  9G12G10G30G26G05G15G25G29G02
 -28219748.06248 -21948286.65646  22069399.9454                   22069397.4574
 -27063451.215 5                  24436650.055
 -10575111.14547  -8196218.10545  21956811.7734                   21956809.7424
  13384359.62147  10725997.58644  23214307.6414                   23214305.9344
 -28979976.16048 -22569729.57846  20746419.2034                   20746416.6994
  24779660.80946  19357322.88343  24112360.5004                   24112359.1454
 -11607768.79348  -9004967.32846  21788592.7814                   21788593.3054
   2310868.48447   1834634.01246  22169181.5554                   22169179.3134
 -47297017.78947 -36841380.62545  22032830.3754                   22032825.4534
 11  8 18  2 42  0.0000000  0  9G12G10G30G26G05G15G25G29G02
 -28233534.25447 -21959029.14545  22066776.6024                   22066773.6214
 -27044808.059 5                  24440197.672
 -10624707.99248  -8234865.00445  21947373.6484                   21947371.9804
  13204232.13747  10585638.55144  23180030.6334                   23180028.6804
 -29026584.52348 -22606047.77746  20737550.0944                   20737546.9264
  24593697.56646  19212416.55944  24076972.8674                   24076971.8014
 -11676895.12148  -9058832.00446  21775438.2034                   21775438.2074
   2143736.53947   1704401.38346  22137377.3674                   22137374.8244
 -47344975.45348 -36878750.23046  22023704.5864                   22023699.6684
 11  8 18  2 42 30.0000000  0  9G12G10G30G26G05G15G25G29G02
 -28246982.21148 -21969508.07846  22064216.9924                   22064214.4734
 -27026089.664 5                  24443759.297
 -10673796.28148  -8273115.62545  21938032.8444                   21938030.9454
  13024300.01247  10445431.75044  23145791.0004                   23145789.1294
 -29072736.23448 -22642010.13746  20728767.4694                   20728764.9884
  24407704.59046  19067487.07044  24041580.1484                   24041578.8554
 -11745471.40248  -9112268.06246  21762388.6334                   21762388.2424
   1976760.19947   1574290.01646  22105602.7344                   22105600.8054
 -47392842.30548 -36916049.07045  22014595.5004                   22014590.2274
 11  8 18  2 43  0.0000000  0  9G12G10G30G26G05G15G25G29G02
 -28260094.00847 -21979725.08246  22061722.0314                   22061719.8914
 -27007298.164 5                  24447334.258
 -10722377.42648  -8310971.05945  21928788.1174                   21928786.0084
  12844567.78947  10305380.70344  23111588.8674                   23111587.6954
 -29118432.50448 -22677617.60947  20720072.0864                   20720069.5234
  24221685.56647  18922537.25444  24006181.5164                   24006179.8204
 -11813498.16848  -9165275.93746  21749443.8834                   21749443.6764
   1809942.56347   1444302.30146  22073858.3834                   22073856.1644
 -47440617.25447 -36953276.28545  22005503.9454                   22005498.9614
 11  8 18  2 43 30.0000000  0  9G12G10G30G26G05G15G25G29G02
 -28272875.71148 -21989684.85546  22059290.1884                   22059287.4844
 -26988439.070 5                  24450921.648
 -10770456.70348  -8348435.43445  21919638.7194                   21919636.6914
  12665036.25047  10165486.05944  23077424.9614                   23077422.5664
 -29163678.49648 -22712874.22346  20711461.9454                   20711459.2074
  24035640.10946  18777566.87944  23970777.9694                   23970776.8914
 -11880979.83248  -9217859.05546  21736602.2114                   21736602.0514
   1643282.71147   1314437.53546  22042143.8134                   22042141.6174
 -47488303.28547 -36990434.22745  21996429.7974                   21996424.3754
 11  8 18  2 44  0.0000000  0  9G12G10G30G26G05G15G25G29G02
 -28285328.86748 -21999388.62146  22056920.5164                   22056917.6764
 -26969513.145 5                  24454522.906
 -10818035.22748  -8385509.60545  21910584.7114                   21910582.9734
  12485710.26647  10025751.60244  23043300.3524                   23043298.3674
 -29208475.01248 -22747780.58646  20702937.2274                   20702934.2774
  23849572.45747  18632579.17644  23935371.3364                   23935368.6564
 -11947916.54748  -9270017.52746  21723864.7814                   21723864.5634
   1476783.91447   1184698.25846  22010460.1254                   22010457.4614
 -47535899.03147 -37027521.79745  21987371.9454                   21987367.8164
 11  8 18  2 44 30.0000000  0  9G12G10G30G26G05G15G25G29G02
 -28297455.80948 -22008838.19545  22054612.4454                   22054609.7034
 -26950522.336 5                  24458138.211
 -10865114.57848  -8422194.81245  21901625.8444                   21901624.2424
  12306594.04347   9886180.53544  23009216.0474                   23009214.2154
 -29252823.81248 -22782338.09446  20694498.3134                   20694495.2664
  23663486.14547  18487576.92244  23899960.1174                   23899958.5164
 -12014309.04748  -9321751.94546  21711230.5314                   21711230.5944
   1310449.15247   1055086.82046  21978807.5554                   21978805.4884
 -47583403.72748 -37064538.47745  21978331.9064                   21978327.7114
 11  8 18  2 45  0.0000000  0  9G12G10G30G26G05G15G25G29G02
 -28309258.74248 -22018035.28946  22052366.6024                   22052363.8364
 -26931468.375 5                  24461764.922
 -10911696.32847  -8458492.28145  21892762.1644                   21892760.0394
  12127692.27047   9746776.60944  22975171.7424                   22975169.4064
 -29296726.02348 -22816547.59846  20686143.8834                   20686140.6914
  23477384.83247  18342562.99244  23864546.0084                   23864544.6374
 -12080157.96548  -9373062.79346  21698699.7274                   21698700.1684
   1144281.49647    925605.57446  21947187.1334                   21947185.0274
 -47630816.32847 -37101483.34445  21969310.4774                   21969305.2114
 11  8 18  2 45 30.0000000  0  9G12G10G30G26G05G15G25G29G02
 -28320742.13348 -22026983.40646  22050181.4844                   22050178.6764
 -26912355.219 6                  24465401.742
 -10957784.95747  -8494405.50445  21883991.3204                   21883989.4774
  11949006.49247   9607541.00844  22941169.0164                   22941167.2734
 -29340185.71547 -22850412.27746  20677873.5474                   20677870.6374
  23291269.18847  18197537.90244  23829129.5944                   23829128.0314
 -12145466.94948  -9423952.89846  21686272.1254                   21686271.8914
    978280.93448    796254.52346  21915598.3204                   21915595.8054
 -47678138.77748 -37138357.97345  21960304.7344                   21960299.9144
 11  8 18  2 46  0.0000000  0 10G12G10G30G26G05G15G25G29G02G21
 -28331907.94148 -22035684.03946  22048056.8834                   22048054.2624
 -26893184.059 6                  24469050.945
 -11003381.30547  -8529935.11745  21875314.9304                   21875312.7974
  11770541.73047   9468477.59044  22907208.0314                   22907206.5824
 -29383203.68747 -22883932.76646  20669687.9694                   20669684.4574
  23105143.52747  18052504.98844  23793710.2894                   23793709.1954
 -12210235.91448  -9474422.22346  21673947.0234                   21673946.6454
    812451.00448    667036.43845  21884041.9304                   21884039.6564
 -47725369.70348 -37175161.28545  21951317.6724                   21951312.4844
  31300645.88756  24418204.69152  25145008.2504                   25145006.6724
 11  8 18  2 46 30.0000000  0 10G12G10G30G26G05G15G25G29G02G21
 -28342764.72348 -22044143.87546  22045990.3914                   22045987.9924
 -26873963.074 5                  24472708.273
 -11048493.44948  -8565087.44145  21866730.2664                   21866728.1414
  11592295.94947   9329584.84444  22873289.1884                   22873287.5744
 -29425787.91048 -22917115.25846  20661583.8914                   20661581.0474
  22919004.85547  17907461.94944  23758288.9924                   23758287.4144
 -12274472.21948  -9524476.47746  21661723.2894                   21661722.8914
    646788.19547    537948.58646  21852517.2114                   21852514.7734
 -47772514.79748 -37211897.73045  21942346.2734                   21942340.8444
  31154407.10546  24304252.46542  25117179.6804                   25117178.8674
 11  8 18  2 47  0.0000000  0 10G12G10G30G26G05G15G25G29G02G21
 -28353316.01648 -22052365.66846  22043982.6954                   22043980.0824
 -26854694.977 5                  24476374.211
 -11093124.39848  -8599864.79745  21858237.0944                   21858234.6374
  11414272.32847   9190865.16444  22839412.3364                   22839410.9774
 -29467941.39148 -22949962.10946  20653562.5704                   20653559.5514
  22732855.71547  17762410.75044  23722866.6254                   23722864.9224
 -12338177.82848  -9574117.20746  21649600.8984                   21649599.9344
    481294.41447    408992.42246  21821024.5164                   21821022.3164
 -47819574.21948 -37248567.39545  21933390.8204                   21933386.1334
  31008178.26246  24190307.96542  25089352.8834                   25089352.6484
 11  8 18  2 47 30.0000000  0 10G12G10G30G26G05G15G25G29G02G21
 -28363565.77348 -22060352.50046  22042032.1564                   22042029.4694
 -26835383.203 5                  24480049.313
 -11137277.87148  -8634270.09045  21849834.9144                   21849833.0394
  11236473.21147   9052320.47745  22805577.5394                   22805576.3014
 -29509667.48848 -22982475.95346  20645622.4614                   20645619.8054
  22546697.57847  17617352.54744  23687441.7274                   23687440.0084
 -12401355.74648  -9623346.75046  21637577.8674                   21637577.8484
    315970.25447    280168.43446  21789564.4694                   21789562.2584
 -47866549.60247 -37285171.60545  21924451.5474                   21924447.6134
  30861957.56346  24076369.82842  25061528.2424                   25061528.0824
 11  8 18  2 48  0.0000000  0 10G12G10G30G26G05G15G25G29G02G21
 -28373515.82448 -22068105.80945  22040138.9924                   22040136.5744
 -26816028.69915                  24483731.125
 -11180954.82447  -8668304.06645  21841523.1804                   21841521.6024
  11058903.96147   8913954.88344  22771788.2034                   22771786.4494
 -29550966.80948 -23014657.22746  20637763.5234                   20637760.1844
  22360534.75847  17472290.69144  23652015.2814                   23652013.9064
 -12464005.96148  -9672165.09446  21625656.0554                   21625656.1024
    150819.46147    151479.53146  21758137.2114                   21758134.6914
 -47913438.73448 -37321708.60945  21915529.1724                   21915524.6994
  30715746.02346  23962438.73442  25033705.5864                   25033705.4884
 11  8 18  2 48 30.0000000  0  9G12G30G26G05G15G25G29G02G21
 -28383167.36747 -22075626.52345  22038301.8674                   22038299.3524
 -11224156.10247  -8701967.40645  21833302.6484                   21833300.4884
  10881569.58647   8775772.31344  22738042.5864                   22738041.0474
 -29591839.92648 -23046506.40246  20629985.6174                   20629982.6484
  22174371.75447  17327228.69144  23616590.0784                   23616588.3444
 -12526128.57048  -9720572.31646  21613834.5864                   21613834.2894
    -14153.90648     22928.86746  21726744.0704                   21726741.8524
 -47960240.23848 -37358177.32445  21906623.1254                   21906618.8444
  30569544.56645  23848515.56342  25005883.8594                   25005884.2384
 11  8 18  2 49  0.0000000  0  9G12G30G26G05G15G25G29G02G21
 -28392522.39147 -22082916.16045  22036522.0634                   22036519.5944
 -11266883.09847  -8735261.16445  21825171.7584                   21825169.7854
  10704475.12147   8637776.67244  22704342.2424                   22704340.3984
 -29632288.05148 -23078024.41046  20622288.3834                   20622285.6374
  21988212.68047  17182169.73444  23581165.2584                   23581163.6954
 -12587724.03148  -9768568.77046  21602113.6564                   21602113.5434
   -178946.77348   -105481.14846  21695385.0944                   21695382.5084
 -48006952.78547 -37394576.71545  21897733.6484                   21897729.7974
  30423353.637 6                  24978064.680
 11  8 18  2 49 30.0000000  0  9G12G30G26G05G15G25G29G02G21
 -28401578.01647 -22089972.53145  22034798.7034                   22034796.1994
 -11309132.54747  -8768182.79345  21817132.4774                   21817129.9344
  10527629.95347   8499975.29344  22670689.9144                   22670687.9774
 -29672307.91448 -23109208.70346  20614672.7894                   20614669.5704
  21802066.04347  17037120.46544  23545742.4694                   23545740.6844
 -12648788.32048  -9816151.34046  21590493.3364                   21590492.7974
   -343551.12547   -233744.26646  21664061.7344                   21664059.8364
 -48053570.43447 -37430902.14145  21888862.6804                   21888858.3594
  30277178.703 6                  24950248.539
 11  8 18  2 50  0.0000000  0  9G12G30G26G05G15G25G29G02G21
 -26834915.90647 -20869196.87945  22332924.7194                   22332922.1884
  -9775484.58247  -7573132.43045  22108975.7344                   22108973.5204
  11926464.57447   9589976.32444  22936878.8914                   22936877.2774
 -28136479.03548 -21912458.92246  20906931.2504                   20906928.2814
  23191362.02347  18119688.82044  23810116.7664                   23810114.9804
 -11133900.12148  -8635718.97346  21878767.0554                   21878766.6214
   1067461.80148    865746.35246  21932568.4384                   21932566.6884
 -46524670.68447 -36239551.69145  22179802.7664                   22179798.3634
  31706444.96146                  24885523.19152  25222229.6884   25222227.4924
 11  8 18  2 50 30.0000000  0  9G12G30G26G05G15G25G29G02G21
 -26843379.57847 -20875791.97345  22331313.9224                   22331311.6214
  -9816784.37947  -7605314.09445  22101116.7274                   22101114.2504
  11750131.14147   9452573.71144  22903323.4774                   22903322.5434
 -28175646.32448 -21942978.87946  20899478.1564                   20899475.0434
  23005251.31646  17974667.55144  23774700.9534                   23774699.0984
 -11193904.94948  -8682475.98046  21867348.2504                   21867348.2034
    903243.64148    737784.14546  21901319.1334                   21901316.5704
 -46571096.29747 -36275727.49245  22170968.0784                   22170963.9104
  31560302.12946                  24771645.77042  25194419.0234   25194417.9694
 11  8 18  2 51  0.0000000  0  9G12G30G26G05G15G25G29G02G21
 -26851554.23847 -20882161.85945  22329758.3674                   22329756.1844
  -9857615.62547  -7637130.65645  22093346.2504                   22093344.3834
  11574056.47347   9315372.72344  22869817.7344                   22869815.7034
 -28214393.67648 -21973171.60946  20892105.1174                   20892102.2424
  22819160.26646  17829661.59044  23739288.7504                   23739287.1024
 -11253385.19948  -8728824.22346  21856029.6804                   21856028.9774
    739219.12148    609972.84846  21870106.2974                   21870103.8054
 -46617427.83247 -36311829.98445  22162151.4064                   22162147.4414
  31414172.05946                  24657778.32442  25166610.5234   25166609.6414
 11  8 18  2 51 30.0000000  0  9G12G30G26G05G15G25G29G02G21
 -26859444.39547 -20888310.06645  22328257.3134                   22328254.6174
  -9897982.62547  -7668585.46945  22085664.8674                   22085662.9144
  11398242.78147   9178375.05544  22836361.5704                   22836359.7734
 -28252724.82448 -22003040.02746  20884810.4844                   20884807.6484
  22633090.32046  17684672.06344  23703880.3524                   23703878.9414
 -11312344.17648  -8774766.27746  21844810.1804                   21844810.0944
    575389.07048    482313.06346  21838930.4384                   21838928.0944
 -46663666.86747 -36347860.40245  22153352.7344                   22153348.5044
  31268052.51246                  24543919.10542  25138805.8204   25138804.0474
 11  8 18  2 52  0.0000000  0  9G12G30G26G05G15G25G29G02G21
 -26867052.06647 -20894238.14545  22326809.5314                   22326806.8794
  -9937886.96947  -7699679.77745  22078071.6484                   22078069.6024
  11222694.74247   9041584.41044  22802955.6484                   22802954.0704
 -28290640.96548 -22032585.05146  20877595.4454                   20877592.0704
  22447045.29347  17539701.94544  23668477.3834                   23668476.1214
 -11370782.68748  -8820302.79746  21833689.5784                   21833689.4224
    411756.69548    354807.33646  21807792.4384                   21807789.1214
 -46709812.51647 -36383818.04745  22144571.1414                   22144566.5864
  31121943.78946                  24430068.24243  25111001.6884   25111000.4884
 11  8 18  2 52 30.0000000  0  9G12G30G26G05G15G25G29G02G21
 -26874380.85547 -20899948.90645  22325415.0394                   22325412.2384
  -9977331.47748  -7730415.76645  22070565.4454                   22070563.3524
  11047415.78947   8905003.42244  22769601.4614                   22769599.3324
 -28328144.60548 -22061808.66446  20870458.5234                   20870455.6954
  22261028.03147  17394753.44544  23633079.5704                   23633077.9574
 -11428702.77348  -8865435.33646  21822667.6724                   21822667.5234
    248324.09448    227457.27746  21776691.9384                   21776689.5314
 -46755864.60247 -36419702.79745  22135807.9844                   22135803.7274
  30975845.49646                  24316225.52743  25083200.0164   25083198.6484
 11  8 18  2 53  0.0000000  0  9G12G30G26G05G15G25G29G02G21
 -26881433.06247 -20905444.13745  22324073.0784                   22324070.2624
 -10016318.30548  -7760795.12545  22063146.5164                   22063144.5944
  10872409.90647   8768635.24244  22736299.0394                   22736297.2424
 -28365237.80948 -22090712.43046  20863400.0084                   20863396.5084
  22075041.73847  17249829.12944  23597687.3914                   23597685.9264
 -11486105.91448  -8910165.05146  21811744.7584                   21811743.9224
     85093.96948    100264.99246  21745630.5554                   21745627.2664
 -46801822.68047 -36455514.29345  22127062.5864                   22127058.1604
  30829756.71146                  24202390.27043  25055400.5004   25055398.9574
 11  8 18  2 53 30.0000000  0  9G12G30G26G05G15G25G29G02G21
 -26888209.86747 -20910724.78945  22322783.5784                   22322781.2114
 -10054848.24247  -7790818.46545  22055814.6564                   22055812.9104
  10697682.68047   8632484.21145  22703049.2424                   22703048.0084
 -28401920.91447 -22119296.67646  20856419.4614                   20856416.6644
  21889091.23447  17104932.66444  23562302.6564                   23562301.0474
 -11542992.05548  -8954491.92646  21800919.2344                   21800919.3484
    -77929.68448    -26766.39846  21714607.8134                   21714605.0474
 -46847684.60547 -36491250.88745  22118335.5164                   22118330.5124
  30683679.18146                  24088563.75243  25027602.4304   25027601.0314
 11  8 18  2 54  0.0000000  0  9G12G30G26G05G15G25G29G02G21
 -26894717.45347 -20915795.66445  22321544.5084                   22321542.1374
 -10092926.84447  -7820490.12545  22048568.4924                   22048566.3984
  10523234.92647   8496550.93045  22669852.7664                   22669851.4184
 -28438199.10548 -22147565.38746  20849515.7814                   20849512.9104
  21703176.74647  16960064.28944  23526923.6174                   23526922.3284
 -11599365.91048  -8998419.61346  21790191.5164                   21790191.7384
   -240747.55148   -153637.43446  21683624.5554                   21683622.3954
 -46893453.03947 -36526914.60945  22109626.0394                   22109621.6214
  30537609.83646                  23974743.63343  24999806.2424   24999804.9104
 11  8 18  2 54 30.0000000  0  9G12G30G26G05G15G25G29G02G21
 -26900960.40247 -20920660.32445  22320357.2424                   22320354.4614
 -10130558.75847  -7849813.71145  22041407.5234                   22041405.3364
  10349068.39147   8360836.77744  22636710.4924                   22636708.3324
 -28474077.12948 -22175522.27746  20842688.5314                   20842685.5354
  21517299.02047  16815224.55144  23491552.8834                   23491550.8754
 -11655231.32048  -9041951.12146  21779560.6884                   21779560.6374
   -403359.13748   -280347.71146  21652680.7504                   21652678.2194
 -46939129.82848 -36562506.93745  22100934.0864                   22100929.5274
  30391545.46946                  23860927.38743  24972010.7894   24972009.9024
 11  8 18  2 55  0.0000000  0  9G12G30G26G05G15G25G29G02G21
 -26906941.65247 -20925321.07045  22319218.8754                   22319216.3164
 -10167746.43047  -7878791.13345  22034330.7194                   22034328.6884
  10175186.87147   8225344.71545  22603621.7424                   22603620.2424
 -28509556.49648 -22203168.53546  20835936.8674                   20835933.8244
  21331461.32047  16670416.02044  23456188.9144                   23456187.7624
 -11710589.94948  -9085087.71946  21769026.5784                   21769026.2584
   -565762.03548   -406895.39546  21621776.5314                   21621773.9694
 -46984714.70348 -36598027.62145  22092259.8594                   22092254.0004
  30245486.05546                  23747115.03143  24944217.0704   24944215.1094
 11  8 18  2 55 30.0000000  0  9G12G30G26G05G15G25G29G02G21
 -26912663.03947 -20929779.32045  22318130.5084                   22318127.7234
 -10204491.13347  -7907423.38745  22027338.6484                   22027336.4844
  10001595.44947   8090078.69545  22570587.8984                   22570586.4384
 -28544638.19148 -22230504.92246  20829261.4454                   20829258.3204
  21145668.20347  16525642.23444  23420833.7344                   23420832.5944
 -11765442.40648  -9127829.90646  21758588.4694                   21758588.5984
   -727952.77348   -533277.73846  21590912.0474                   21590909.6134
 -47030205.86348 -36633475.27345  22083602.6644                   22083598.2274
  30099432.22346                  23633307.00043  24916424.2974   24916422.1174
 11  8 18  2 56  0.0000000  0  9G12G30G26G05G15G25G29G02G21
 -26918128.93047 -20934038.47345  22317089.8914                   22317087.5664
 -10240797.07447  -7935713.73845  22020430.0634                   22020427.5164
   9828296.43047   7955040.54345  22537610.5314                   22537609.1254
 -28579326.47748 -22257534.75446  20822660.2274                   20822657.0554
  20959920.83647  16380904.09844  23385486.7274                   23385485.5474
 -11819792.11348  -9170180.34446  21748245.6884                   21748245.9414
   -889930.27348   -659493.92246  21560089.1254                   21560086.5514
 -47075604.59847 -36668850.92645  22074963.3914                   22074959.1884
  29953381.95746                  23519501.75443  24888631.2424   24888629.3014
 11  8 18  2 56 30.0000000  0  9G12G30G26G05G15G25G29G02G21
 -26923339.90647 -20938099.00845  22316098.5004                   22316096.5824
 -10276664.45747  -7963662.37945  22013604.0864                   22013602.8404
   9655295.79747   7820234.89145  22504689.4694                   22504688.4774
 -28613620.80548 -22284257.60546  20816134.3914                   20816131.2424
  20774224.80147  16236205.95344  23350150.3204                   23350148.4734
 -11873638.49648  -9212138.57846  21737999.6414                   21737999.2154
  -1051689.79748   -785540.26646  21529307.2504                   21529304.5554
 -47120908.54347 -36704152.72745  22066342.6024                   22066337.6334
  29807337.33246                  23405700.89843  24860839.2034   24860837.6134
 11  8 18  2 57  0.0000000  0  9G12G30G26G05G15G25G29G02G21
 -26928301.46147 -20941965.18445  22315154.6414                   22315151.8754
 -10312098.21148  -7991273.10245  22006861.4224                   22006859.9884
   9482595.19147   7685663.03145  22471825.8594                   22471824.4454
 -28647526.04348 -22310677.26646  20809682.3284                   20809679.0664
  20588581.06347  16091548.57044  23314824.3284                   23314821.8364
 -11926985.78948  -9253707.91046  21727847.7814                   21727847.1884
  -1213231.28148   -911416.68746  21498566.6254                   21498564.4574
 -47166119.18047 -36739381.81645  22057738.6254                   22057735.0234
  29661295.61746                  23291902.29343  24833048.4304   24833046.7194
 11  8 18  2 57 30.0000000  0  9G12G30G26G05G15G25G29G02G21
 -26933016.35547 -20945639.14845  22314257.0864                   22314254.9024
 -10347101.25847  -8018548.22745  22000200.6804                   22000198.7624
   9310198.29747   7551327.83244  22439019.7114                   22439017.8954
 -28681044.35548 -22336795.44546  20803304.0634                   20803301.1134
  20402992.48847  15946934.16445  23279507.2584                   23279505.6134
 -11979836.05548  -9294889.95746  21717790.6564                   21717790.3754
  -1374552.46548  -1037121.47746  21467868.4844                   21467865.6564
 -47211236.49247 -36774538.13745  22049153.3524                   22049148.8874
  29515256.13346                  23178105.45743  24805257.8444   24805256.2584
 11  8 18  2 58  0.0000000  0  9G12G30G26G05G15G25G29G02G21
 -26937486.23047 -20949122.17245  22313406.9064                   22313404.1604
 -10381674.73847  -8045488.61745  21993621.9534                   21993619.5784
   9138110.05947   7417233.15245  22406272.1804                   22406270.7504
 -28714176.73848 -22362612.86346  20796999.4694                   20796996.4384
  20217463.14147  15802365.93044  23244202.1484                   23244200.6174
 -12032189.80948  -9335685.10546  21707828.0164                   21707828.1054
  -1535649.64848  -1162651.68746  21437212.7584                   21437210.0744
 -47256258.67648 -36809620.38345  22040585.6024                   22040581.9144
  29369219.72346                  23064310.98043  24777468.6174   24777465.9774
 11  8 18  2 58 30.0000000  0  9G12G30G26G05G15G25G29G02G21
 -26941713.83647 -20952416.43745  22312601.9924                   22312599.8094
 -10415821.13747  -8072096.21945  21987123.7584                   21987121.4654
   8966334.62947   7283382.19545  22373584.6174                   22373583.0554
 -28746925.44148 -22388131.32846  20790767.2504                   20790764.6414
  20031996.78547  15657846.73844  23208909.0234                   23208907.0744
 -12084048.73848  -9376094.67646  21697959.8674                   21697959.9574
  -1696520.27748  -1288005.38746  21406600.1094                   21406597.5354
 -47301185.35547 -36844628.19945  22032036.5944                   22032032.7894
  29223186.20346                  22950518.77043  24749679.1564   24749677.0824
 11  8 18  2 59  0.0000000  0  9G12G30G26G05G15G25G29G02G21
 -25370283.52347 -19727925.30145  22611634.8364                   22611632.5354
  -8874123.71547  -6870773.57445  22280499.1334                   22280497.6024
  10370299.66447   8377380.97745  22640750.1724                   22640748.1454
 -27203873.29748 -21185753.03946  21084400.2894                   21084396.9574
  21422021.07047  16740982.64544  23473421.1884                   23473420.0784
 -10559994.74648  -8188520.14546  21987977.4924                   21987977.5314
   -281738.10248   -185577.67646  21675823.6094                   21675821.1334
 -45770596.23048 -35651961.34845  22323298.4144                   22323293.6844
  30652578.56646                  24064331.13743  25021683.3834   25021681.1214
 11  8 18  2 59 30.0000000  0  9G12G30G26G05G15G25G29G02G21
 -25374037.07447 -19730850.16445  22610920.9694                   22610918.7464
  -8907425.82847  -6896723.28945  22274161.8524                   22274160.1374
  10199159.18047   8244024.82045  22608182.9304                   22608181.6954
 -27235863.05548 -21210680.11746  21078312.7894                   21078309.4844
  21236688.03547  16596567.35544  23438153.7194                   23438151.6954
 -10610871.77048  -8228164.60546  21978295.9304                   21978295.9144
   -442149.82048   -310573.78546  21645298.7814                   21645296.1094
 -45815332.57047 -35686820.82445  22314785.1484                   22314780.7194
  30506548.12546                  23950541.30543  24993893.9844   24993892.6334
 11  8 18  3  0  0.0000000  0  9G12G30G26G05G15G25G29G02G21
 -25377559.35247 -19733594.80145  22610250.2664                   22610247.9964
  -8940310.91847  -6922348.05145  22267904.0634                   22267902.1564
  10028340.68847   8110919.55145  22575677.2894                   22575676.7934
 -27267477.73848 -21235314.93746  21072296.7194                   21072293.6414
  21051425.30147  16452206.84844  23402899.2114                   23402897.5434
 -10661261.87148  -8267429.62946  21968706.7344                   21968706.8284
   -602329.34448   -435388.98046  21614817.3204                   21614814.6484
 -45859974.44948 -35721606.71945  22306290.0944                   22306285.3444
  30360517.21546                  23836751.12943  24966104.5164   24966103.1604
 11  8 18  3  0 30.0000000  0  9G12G30G26G05G15G25G29G02G21
 -25380850.41047 -19736159.27745  22609624.3834                   22609622.1374
  -8972779.25047  -6947648.08245  22261725.7114                   22261723.8834
   9857850.72347   7978070.25045  22543234.7344                   22543232.1844
 -27298717.11748 -21259657.31246  21066352.1484                   21066348.9454
  20866238.16847  16307905.25844  23367659.7504                   23367657.2664
 -10711164.57848  -8306314.88346  21959210.8674                   21959210.8204
   -762272.05548   -560019.63746  21584381.3984                   21584378.6844
 -45904518.66847 -35756316.49645  22297814.4144                   22297809.3794
  30214487.99646                  23722962.28943  24938316.6094   24938314.8094
 11  8 18  3  1  0.0000000  0  9G12G30G26G05G15G25G29G02G21
 -25383916.57447 -19738548.50845  22609041.2114                   22609038.6564
  -9004836.54347  -6972627.80945  22255625.5164                   22255623.2894
   9687689.61747   7845477.22345  22510854.0234                   22510852.1254
 -27329587.19948 -21283711.92246  21060477.8284                   21060474.5594
  20681127.17247  16163662.98444  23332434.0554                   23332431.4414
 -10760585.12548  -8344824.41446  21949806.4614                   21949806.2934
   -921978.27748   -684466.01646  21553990.2584                   21553987.6644
 -45948968.04348 -35790952.35945  22289356.0314                   22289350.7304
  30068456.68846                  23609171.79742  24910527.8594   24910526.1684
 11  8 18  3  1 30.0000000  0  9G12G30G26G05G15G25G29G02G21
 -25386761.03547 -19740764.98845  22608499.6884                   22608497.6994
  -9036485.94947  -6997289.70745  22249602.6254                   22249600.5394
   9517860.90247   7713143.20345  22478536.0164                   22478534.6174
 -27360090.12548 -21307480.44146  21054673.2894                   21054670.4924
  20496094.84447  16019482.01244  23297223.0314                   23297220.8714
 -10809525.72748  -8382959.96946  21940493.2034                   21940493.2304
  -1081446.20748   -808726.72346  21523644.3444                   21523641.2154
 -45993322.82448 -35825514.53145  22280914.9454                   22280910.7034
  29922422.86746                  23495379.32842  24882737.6724   24882736.9884
 11  8 18  3  2  0.0000000  0  9G12G30G26G05G15G25G29G02G21
 -25389384.62547 -19742809.35545  22608000.4304                   22607998.1374
  -9067727.92647  -7021634.12545  22243658.0394                   22243655.6054
   9348370.65247   7581072.92245  22446283.1724                   22446281.8984
 -27390225.62548 -21330962.64846  21048938.4454                   21048935.5204
  20311146.68447  15875366.64544  23262028.2194                   23262026.6954
 -10857986.21948  -8420721.41046  21931271.7274                   21931271.7074
  -1240671.23448   -932798.14846  21493344.9384                   21493341.9654
 -46037579.92647 -35860000.61345  22272493.4224                   22272488.9144
  29776388.41446                  23381586.43842  24854949.5234   24854947.4964
 11  8 18  3  2 30.0000000  0  9G12G30G26G05G15G25G29G02G21
 -25391792.80147 -19744685.86745  22607542.6954                   22607539.7074
  -9098567.98048  -7045665.34045  22237788.9384                   22237787.0234
   9179219.87547   7449267.14845  22414095.1954                   22414093.5434
 -27419999.09848 -21354162.77346  21043272.7814                   21043269.8244
  20126283.39547  15731317.37944  23226850.6954                   23226848.1294
 -10905971.47348  -8458112.52746  21922140.5554                   21922140.0234
  -1399653.22748  -1056680.22346  21463091.6804                   21463089.1054
 -46081741.82848 -35894412.48045  22264089.8754                   22264085.3794
  29630350.08246                  23267790.42642  24827159.0474   24827156.0824
 11  8 18  3  3  0.0000000  0  9G12G30G26G05G15G25G29G02G21
 -25393989.12947 -19746397.30145  22607125.0864                   22607122.0594
  -9129009.29347  -7069385.85945  22231996.2034                   22231994.5704
   9010411.73047   7317728.37945  22381971.9774                   22381970.3554
 -27449413.23848 -21377082.87146  21037675.7894                   21037672.6804
  19941507.14547  15587335.94944  23191688.9144                   23191686.6484
 -10953484.06248  -8495135.33646  21913099.3444                   21913099.0314
  -1558390.77748  -1180371.80546  21432884.8134                   21432882.1254
 -46125808.56648 -35928750.21545  22255704.3674                   22255699.3094
  29484306.98446                  23153990.72742  24799367.5474   24799365.0594
 11  8 18  3  3 30.0000000  0  9G12G30G26G05G15G25G29G02G21
 -25395974.87947 -19747944.66845  22606746.7734                   22606744.1954
  -9159052.88347  -7092796.47345  22226278.7734                   22226277.6604
   8841951.97747   7186461.05545  22349915.0554                   22349913.1174
 -27478468.35948 -21399723.23046  21032146.1334                   21032143.5944
  19756823.04747  15443426.32844  23156544.3674                   23156542.3634
 -11000524.22748  -8531790.02046  21904148.0864                   21904147.7344
  -1716879.25848  -1303869.32046  21402725.6484                   21402723.3914
 -46169778.00048 -35963012.13345  22247336.9064                   22247331.9534
  29338260.52346                  23040188.42243  24771575.3134   24771573.3204
 11  8 18  3  4  0.0000000  0  9G12G30G26G05G15G25G29G02G21
 -25397754.60547 -19749331.49645  22606407.5234                   22606405.2424
  -9188703.39547  -7115900.77745  22220636.7344                   22220634.6764
   8673842.24647   7055466.50445  22317925.1724                   22317922.6644
 -27507169.11348 -21422087.45746  21026684.8204                   21026681.5164
  19572232.50847  15299589.60945  23121417.6724                   23121415.9774
 -11047095.96548  -8568079.68446  21895285.6804                   21895285.4384
  -1875118.08648  -1427172.30146  21372613.8984                   21372611.5084
 -46213651.91848 -35997199.60545  22238987.6884                   22238982.9064
  29192208.34446                  22926381.62543  24743782.5704   24743780.2234
 11  8 18  3  4 30.0000000  0  9G12G30G26G05G15G25G29G02G21
 -25399332.09047 -19750560.73445  22606107.4384                   22606105.1174
  -9217964.50047  -7138701.64545  22215068.8364                   22215066.4384
   8506085.46947   6924746.98045  22286002.0084                   22286000.1524
 -27535518.45748 -21444177.85546  21021290.0784                   21021286.9884
  19387737.95747  15155827.66845  23086309.4454                   23086308.1764
 -11093202.36348  -8604006.75446  21886511.6334                   21886511.2624
  -2033105.54348  -1550279.39846  21342549.6024                   21342547.2544
 -46257430.32047 -36031312.67245  22230657.1414                   22230653.0474
  29046149.23446                  22812569.43843  24715987.9774   24715985.4614
 11  8 18  3  5  0.0000000  0  9G12G30G26G05G15G25G29G02G21
 -25400707.76247 -19751632.70745  22605846.1254                   22605843.6804
  -9246836.26247  -7161199.14145  22209574.4144                   22209572.5904
   8338688.21147   6794307.57445  22254146.7194                   22254145.1684
 -27563515.98848 -21465994.11346  21015962.7814                   21015959.8164
  19203345.14847  15012145.02345  23051220.9144                   23051218.8914
 -11138842.80948  -8639570.73846  21877826.4144                   21877826.5234
  -2190836.60948  -1673186.73046  21312534.5394                   21312531.8794
 -46301110.23447 -36065348.97345  22222345.3284                   22222340.0984
  28900085.60546                  22698753.72743  24688193.2894   24688191.2544
 11  8 18  3  5 30.0000000  0  9G12G30G26G05G15G25G29G02G21
 -25401888.53947 -19752552.82445  22605621.5864                   22605619.3794
  -9275325.35547  -7183398.44945  22204153.4694                   22204151.3364
   8171650.26647   6664148.16445  22222361.0474                   22222359.2504
 -27591167.77348 -21487540.97746  21010700.6884                   21010697.7664
  19019053.39547  14868541.09044  23016151.1484                   23016149.1724
 -11184023.30548  -8674776.31646  21869229.0084                   21869228.9614
  -2348312.51248  -1795895.22346  21282567.6174                   21282565.0824
 -46344695.12147 -36099311.21545  22214050.9844                   22214046.5044
  28754013.09846                  22584931.05943  24660396.3984   24660395.4024
 11  8 18  3  6  0.0000000  0  9G12G30G26G05G15G25G29G02G21
 -25402874.59847 -19753321.21145  22605433.7974                   22605431.4024
  -9303432.10947  -7205299.82845  22198805.0004                   22198802.7704
   8004977.85547   6534273.59445  22190644.0084                   22190642.0594
 -27618473.62148 -21508818.25046  21005504.6254                   21005501.4844
  18834868.43847  14725020.40245  22981102.2274                   22981099.9024
 -11228743.59048  -8709623.30146  21860719.2034                   21860718.8094
  -2505528.37148  -1918401.08646  21252650.5004                   21252648.1994
 -46388181.91847 -36133197.06245  22205775.7814                   22205771.8524
  28607933.84046                  22471103.16443  24632597.7894   24632596.8594
 11  8 18  3  6 30.0000000  0  9G12G30G26G05G15G25G29G02G21
 -25403668.37547 -19753939.75445  22605282.9454                   22605280.2704
  -9331158.75047  -7226905.01645  22193528.8204                   22193526.6564
   7838675.38747   6404687.28945  22158997.5704                   22158995.3324
 -27645435.20348 -21529827.27346  21000374.0394                   21000371.2424
  18650794.09047  14581585.89145  22946073.8754                   22946071.9264
 -11273005.23848  -8744112.91046  21852296.1414                   21852296.2194
  -2662480.85948  -2040701.71146  21222783.5004                   21222780.7814
 -46431569.60247 -36167005.66445  22197519.4694                   22197515.0004
  28461848.04347                  22357270.17243  24604799.8284   24604797.8284
 11  8 18  3  7  0.0000000  0  9G12G30G26G05G15G25G29G02G21
 -25404272.89147 -19754410.82045  22605167.2424                   22605165.3134
  -9358508.07047  -7248216.19145  22188324.3754                   22188322.4264
   7672746.62947   6275392.18045  22127422.6094                   22127419.9924
 -27672055.03548 -21550569.99646  20995308.1644                   20995305.4734
  18466833.54347  14438240.06345  22911067.6414                   22911065.4144
 -11316810.42248  -8778246.83246  21843960.3284                   21843960.4104
  -2819167.53948  -2162795.22746  21192966.9534                   21192964.4454
 -46474857.86747 -36200736.76645  22189282.1484                   22189277.4774
  28315755.29347                  22243431.75443  24576999.3524   24576997.0864
 11  8 18  3  7 30.0000000  0  9G12G30G26G05G15G25G29G02G21
 -23829273.41447 -18527138.51245  22904879.5554                   22904877.5044
  -7810064.53547  -6041636.82045  22482983.2034                   22482980.7854
   9082618.21947   7373993.44545  22395712.1094                   22395710.0354
 -26122916.88348 -20343449.36346  21290099.3054                   21290096.5354
  19858413.44547  15522588.08644  23175876.7424                   23175874.0664
  -9784742.58648  -7584427.75046  22135503.4224                   22135503.5744
  -1400163.60548  -1057077.86346  21462994.3134                   21462991.6054
 -44942627.17247 -35006790.80145  22480855.9144                   22480851.2344
  29745077.59447                  23357189.50043  24848989.7814   24848987.7664
 11  8 18  3  8  0.0000000  0  9G12G30G26G05G15G25G29G02G21
 -23829512.74647 -18527325.01245  22904834.2734                   22904832.1954
  -7836672.59047  -6062370.38745  22477919.5394                   22477917.6724
   8917443.00047   7245285.51645  22364279.9454                   22364278.0084
 -26148864.72748 -20363668.44146  21285162.0634
  21285158.6294   19674685.33247  15379423.36744  23140913.8984   23140911.4964
  -9827646.50448  -7617859.40246  22127338.8134                   22127339.1334
  -1556316.47348  -1178755.42246  21433279.6414                   21433276.9884
 -44985719.67247 -35040369.37145  22472655.5394                   22472650.7974
  29598965.05547                  23243335.71143  24821185.4144   24821183.2034
 11  8 18  3  8 30.0000000  0  9G12G30G26G05G15G25G29G02G21
 -23829571.42247 -18527370.73445  22904823.2274                   22904821.1684
  -7862911.84047  -6082816.57445  22472926.4064                   22472924.2814
   8752652.63747   7116877.49645  22332921.5234                   22332919.7304
 -26174477.52048 -20383626.45346  21280287.7344                   21280284.6454
  19491080.92247                  15236355.03944  23105974.8204   23105972.4654
  -9870100.66848  -7650940.57446  22119259.9064                   22119259.8404
  -1712195.99648  -1300219.96946  21403616.7034                   21403614.1764
 -45028711.20348 -35073869.27745  22464475.1484                   22464470.1954
  29452844.74246                  23129475.84843  24793379.4224   24793378.0314
 11  8 18  3  9  0.0000000  0  9G12G30G26G05G15G25G29G02G21
 -23829453.99647 -18527279.24645  22904845.9064                   22904843.4224
  -7888786.94947  -6102979.00845  22468003.0234                   22468000.8794
   8588248.93047   6988770.73045  22301636.8984                   22301634.4024
 -26199759.40648 -20403326.61746  21275477.0234                   21275473.8674
  19307601.45747                  15093384.09444  23071059.5234   23071057.5234
  -9912109.19948  -7683674.51246  22111266.2814                   22111266.1094
  -1867801.73048  -1421471.19146  21374006.2114                   21374003.1454
 -45071602.97748 -35107291.47345  22456313.1094                   22456308.3794
  29306714.27046                  23015608.04743  24765571.4454   24765569.4264
 11  8 18  3  9 30.0000000  0 10G12G18G30G26G05G15G25G29G02G21
 -23829165.40247 -18527054.34844  22904900.6414                   22904898.4414
  35980157.71956  28091464.09453  24745657.9304                   24745657.0394
  -7914302.49646  -6122861.21544  22463147.2114                   22463145.2304
   8424233.87546   6860966.85944  22270426.1334                   22270423.6024
 -26224714.49247 -20422772.09845  21270728.1564                   21270724.9384
  19124248.46146                  14950511.69543  23036168.7664   23036166.6604
  -9953676.08647  -7716064.27745  22103356.8284                   22103356.2624
  -2023132.73847  -1542508.28545  21344447.5474                   21344444.5044
 -45114396.41047 -35140636.98844  22448169.7664                   22448165.2504
  29160571.71546                  22901730.87943  24737762.3524   24737759.9774
 11  8 18  3 10  0.0000000  0 10G12G18G30G26G05G15G25G29G02G21
 -23828708.62547 -18526698.46545  22904987.8054                   22904985.7384
  35801035.32046  27951888.44943  24711571.7114                   24711570.9384
  -7939461.51647  -6142465.70745  22458359.9844                   22458357.7894
   8260611.05947   6733468.56645  22239288.7114                   22239286.8244
 -26249345.09848 -20441964.82046  21266041.0944                   21266038.0204
  18941025.24647                  14807740.39145  23001302.3134   23001300.6134
  -9994803.77348  -7748111.88346  22095530.0314                   22095529.4614
  -2178186.59048  -1663329.48846  21314942.1094                   21314939.0664
 -45157091.04347 -35173905.59445  22440045.1334                   22440040.1484
  29014416.52346                  22787843.78143  24709949.6254   24709946.6334
 11  8 18  3 10 30.0000000  0 10G12G18G30G26G05G15G25G29G02G21
 -23828090.52347 -18526216.84045  22905105.6254                   22905103.2734
  35622075.52046  27812439.41843  24677516.7814                   24677516.3554
  -7964270.46147  -6161797.35945  22453638.7194                   22453636.5124
   8097380.66847   6606276.09845  22208227.3524                   22208225.5274
 -26273657.30548 -20460909.39146  21261414.6884                   21261411.6484
  18757931.51247                  14665070.00845  22966460.4384   22966458.7544
 -10035498.14848  -7779821.80146  22087786.1024                   22087785.5984
  -2332964.45748  -1783935.60946  21285488.4224                   21285485.7464
 -45199690.18747 -35207099.74645  22431938.5394                   22431933.6214
  28868244.92646                  22673943.93043  24682133.9694   24682130.8874
 11  8 18  3 11  0.0000000  0 10G12G18G30G26G05G15G25G29G02G21
 -23827314.13747 -18525611.87145  22905252.8754                   22905250.9804
  35443279.25046  27673117.88343  24643492.5864                   24643492.3054
  -7988732.54347  -6180858.73845  22448984.2974                   22448982.1334
   7934545.91047   6479391.89845  22177241.1644                   22177238.7974
 -26297653.77348 -20479607.93746  21256848.4304                   21256845.1094
  18574969.69947                  14522502.41845  22931644.5394   22931642.6644
 -10075761.84848  -7811196.13746  22080124.3914                   22080124.2664
  -2487464.15648  -1904324.97346  21256087.8914                   21256084.9614
 -45242193.61347 -35240219.31645  22423850.2114                   22423845.1884
  28722055.80946                  22560030.45743  24654314.7974   24654312.3134
 11  8 18  3 11 30.0000000  0 10G12G18G30G26G05G15G25G29G02G21
 -23826379.53147 -18524883.62945  22905430.8284                   22905428.7704
  35264650.67246  27533926.99642  24609501.2274                   24609500.0434
  -8012848.07047  -6199650.05945  22444395.1484                   22444393.1914
   7772113.25847   6352821.02045  22146331.3914                   22146328.8984
 -26321334.05148 -20498060.10246  21252341.5164                   21252338.9064
  18392145.83647                  14380042.29345  22896854.2344   22896852.7504
 -10115594.63348  -7842234.68746  22072544.1644                   22072543.8404
  -2641680.39148  -2024493.45746  21226741.5944                   21226739.1214
 -45284597.93447 -35273261.66045  22415780.7734                   22415776.6804
  28575851.78546                  22446105.35243  24626492.3524   24626489.7934
 11  8 18  3 12  0.0000000  0 10G12G18G30G26G05G15G25G29G02G21
 -23825290.08247 -18524034.72345  22905638.0084                   22905635.9264
  35086190.87946  27394867.58242  24575540.9694                   24575539.7114
  -8036620.31247  -6218173.89845  22439870.6174                   22439869.6454
   7610085.83247   6226565.92645  22115498.6724                   22115496.3484
 -26344701.19548 -20516268.26246  21247895.3204                   21247892.4844
  18209462.98047                  14237692.07845  22862091.3204   22862088.9454
 -10154999.24248  -7872939.60246  22065045.7034                   22065045.4734
  -2795611.01648  -2144439.38346  21197449.7114                   21197446.6454
 -45326903.10947 -35306226.74645  22407730.8754                   22407726.5354
  28429632.03946                  22332167.98443  24598668.1644   24598665.7704
 11  8 18  3 12 30.0000000  0 10G12G18G30G26G05G15G25G29G02G21
 -23824049.39847 -18523067.98445  22905874.0004                   22905872.0664
  34907900.39546  27255940.24242  24541613.0784                   24541612.4964
  -8060053.00447  -6236433.14845  22435412.1804                   22435410.6724
   7448466.45347   6100628.78945  22084742.9304                   22084741.3054
 -26367757.98848 -20534234.59846  21243507.9064                   21243504.9384
  18026923.52347                  14095453.58645  22827354.7504   22827353.1054
 -10193978.82448  -7903313.30946  22057628.1954                   22057628.1994
  -2949254.47748  -2264161.56246  21168212.1484                   21168209.4614
 -45369109.69147 -35339115.02045  22399698.9304                   22399694.7734
  28283395.52346                  22218217.53143  24570840.0474   24570837.6254
 11  8 18  3 13  0.0000000  0 10G12G18G30G26G05G15G25G29G02G21
 -23822661.43047 -18521986.46145  22906138.4064                   22906135.8054
  34729779.87946  27117145.19142  24507717.0234                   24507717.6054
  -8083149.81647  -6254430.67245  22431016.8834                   22431015.2344
   7287257.98047   5975011.82845  22054066.2424                   22054064.5124
 -26390507.34448 -20551961.36346  21239178.3594                   21239176.5354
  17844529.69547                  13953328.57845  22792646.4614   22792644.1054
 -10232536.56647  -7933358.32446  22050290.8364                   22050290.8874
  -3102608.76648  -2383658.39146  21139029.7734                   21139027.4264
 -45411217.59447 -35371926.41445  22391686.1724                   22391681.7624
  28137141.21946                  22104253.22743  24543009.2974   24543006.5204
 11  8 18  3 13 30.0000000  0 10G12G18G30G26G05G15G25G29G02G21
 -23821123.99647 -18520788.47345  22906430.8674                   22906428.0594
  34551835.71146  26978487.57042  24473856.1334                   24473855.4024
  -8105908.80947  -6272164.93745  22426685.6954                   22426684.1254
   7126468.81347   5849721.60245  22023469.3444                   22023466.7704
 -26412946.85948 -20569446.70746  21234908.7424                   21234905.4614
  17662290.16447                  13811323.80545  22757967.2344   22757964.8634
 -10270670.03548  -7963072.72346  22043034.6174                   22043034.1724
  -3255666.67648  -2502924.29346  21109903.8754                   21109901.5784
 -45453221.59847 -35404656.83245  22383692.9694                   22383688.2974
  27990873.14146                  21990278.19943  24515174.8834   24515172.1764
 11  8 18  3 14  0.0000000  0 10G12G18G30G26G05G15G25G29G02G21
 -23819441.96547 -18519477.80145  22906751.1644                   22906748.3054
  34374067.42646  26839967.05543  24440027.2664                   24440026.5434
  -8128334.73447  -6289639.69545  22422418.4534                   22422416.4964
   6966100.92647   5724759.64145  21992952.1254                   21992949.8284
 -26435080.76648 -20586693.89146  21230696.5474                   21230693.5784
  17480206.00847                  13669440.10545  22723317.3364   22723315.6214
 -10308383.39848  -7992459.78946  22035857.9144                   22035857.8914
  -3408427.51648  -2621958.69946  21080834.4144                   21080832.1094
 -45495122.96547 -35437307.25845  22375719.6954                   22375714.9964
  27844589.55946                  21876291.01243  24487337.5314   24487334.9304
 11  8 18  3 14 30.0000000  0 10G12G18G30G26G05G15G25G29G02G21
 -23817618.30547 -18518056.80945  22907098.0864                   22907095.5434
  34196476.69946  26701584.90643  24406232.7194                   24406230.9534
  -8150430.46548  -6306857.16045  22418214.0164                   22418211.8874
   6806158.12547   5600128.92645  21962515.9844                   21962513.4144
 -26456911.30948 -20603704.70746  21226542.5634                   21226539.8164
  17298280.64847                  13527680.12545  22688698.5944   22688696.5124
 -10345679.02748  -8021521.34046  22028760.2814                   22028760.6214
  -3560888.83648  -2740759.70746  21051822.4064                   21051819.6254
 -45536921.30947 -35469877.42645  22367765.5704                   22367761.4574
  27698290.32846                  21762291.66843  24459498.4614   24459494.9024
 11  8 18  3 15  0.0000000  0 10G12G18G30G26G05G15G25G29G02G21
 -23815655.67647 -18516527.51245  22907471.5234                   22907469.2584
  34019064.89846  26563342.14543  24372472.3594                   24372470.7544
  -8172198.85947  -6323819.55945  22414071.1174                   22414069.3674
   6646643.89547   5475832.15245  21932160.8524                   21932159.2504
 -26478440.45748 -20620480.66446  21222445.4924                   21222442.4414
  17116517.62147                  13386046.64145  22654109.4694   22654107.9884
 -10382559.20348  -8050259.14846  22021742.7034                   22021742.6524
  -3713047.66848  -2859325.03546  21022867.3054                   21022864.5784
 -45578615.85247 -35502366.70344  22359831.5474                   22359826.3914
  27551975.12946                  21648279.87943  24431655.2974   24431652.6374
 11  8 18  3 15 30.0000000  0 10G12G18G30G26G05G15G25G29G02G21
 -23813558.93447 -18514893.68445  22907870.4924                   22907868.3554
  33841831.58246  26425238.49643  24338746.1334                   24338745.1174
  -8193644.81647  -6340530.71545  22409990.4614                   22409988.7704
   6487559.96947   5351870.67245  21901888.6644                   21901886.6214
 -26499672.85248 -20637025.38346  21218405.2344                   21218401.4304
  16934918.10947                  13244540.59845  22619552.8204   22619550.5204
 -10419028.44548  -8078676.76246  22014802.7194                   22014803.0664
  -3864903.75448  -2977654.43446  20993969.8914                   20993966.8984
 -45620207.89547 -35534776.10245  22351916.5164                   22351912.5124
  27405641.59046                  21534253.78143  24403808.4774   24403805.6484
 11  8 18  3 16  0.0000000  0 10G12G18G30G26G05G15G25G29G02G21
 -23811331.25447 -18513157.84845  22908294.7584                   22908292.1414
  33664777.64846  26287274.59043  24305053.8834                   24305052.6724
  -8214771.76647  -6356993.29745  22405969.7344                   22405968.3594
   6328909.62547   5228247.04745  21871698.2344                   21871696.3204
 -26520611.00048 -20653340.80546  21214420.7034                   21214417.9924
  16753484.91047                  13103164.12145  22585027.3984   22585024.7974
 -10455089.62948  -8106776.39846  22007940.7894                   22007940.6684
  -4016454.77348  -3095746.12146  20965130.9534                   20965128.0554
 -45661697.28147 -35567105.52045  22344021.7274                   22344017.2234
  27259289.30147                  21420213.06643  24375958.8984   24375956.6484
 11  8 18  3 16 30.0000000  0 10G12G18G30G26G05G15G25G29G02G21
 -22233554.55547 -17283721.48444  23208535.2894                   23208532.8634
  35063331.62546  27377057.08643  24571188.5864                   24571187.9264
  -6660160.62547  -5145608.01245  22701802.8204                   22701801.1884
   7746122.60247   6332568.88345  22141385.2504                   22141382.8014
 -24965835.23848 -19441827.23046  21510284.7424                   21510281.7194
  18147648.60247                  14189525.49645  22850327.9224   22850325.5044
  -8915322.75448  -6906958.07446  22300948.4924                   22300948.7664
  -2592272.08648  -1985993.36746  21236143.2734                   21236140.9844
 -44127660.91848 -34371752.53145  22635939.3914                   22635933.9304
  28688343.84047                  22533762.09043  24647898.7504   24647896.4694
 11  8 18  3 17  0.0000000  0 10G12G18G30G26G05G15G25G29G02G21
 -22231073.09847 -17281787.89844  23209007.5394                   23209005.2034
  34886641.68046  27239376.83243  24537565.7114                   24537565.2384
  -6680657.28547  -5161579.46145  22697902.1804                   22697900.2504
   7588350.85247   6209629.87145  22111362.1414                   22111359.5044
 -24986190.90648 -19457688.78546  21506411.3204                   21506408.0594
  17966558.99647                  14048416.75845  22815867.2974   22815865.0824
  -8950574.22747  -6934426.77046  22294240.1564                   22294240.3164
  -2743204.62148  -2103603.11346  21207422.3524                   21207419.4804
 -44168942.63748 -34403920.12545  22628083.5944                   22628078.1414
  28541953.84447                  22419692.02043  24620041.8674   24620038.5204
 11  8 18  3 17 30.0000000  0 10G12G18G30G26G05G15G25G29G02G21
 -22228470.71147 -17279760.08644  23209502.3834                   23209500.4414
  34710134.03946  27101838.61343  24503977.1414                   24503976.3284
  -6700845.17248  -5177310.30145  22694060.7974                   22694058.9344
   7431021.67247   6087035.73845  22081423.1334                   22081421.4734
 -25006260.86748 -19473327.70746  21502591.7734                   21502589.2584
  17785644.21147                  13907444.22745  22781440.5394   22781437.7544
  -8985426.42648  -6961584.33246  22287608.1884                   22287608.2584
  -2893825.73448  -2220970.19946  21178759.5784                   21178757.2894
 -44210121.88747 -34436007.87945  22620247.2034                   22620242.9454
  28395542.54346                  22305605.32443  24592180.6804   24592177.6294
 11  8 18  3 18  0.0000000  0 10G12G18G30G26G05G15G25G29G02G21
 -22225748.53947 -17277638.94944  23210020.8284                   23210018.2934
  34533811.83246  26964444.87143  24470424.6024                   24470422.9734
  -6720725.03547  -5192801.11345  22690277.8834                   22690276.0164
   7274140.86347   5964790.97745  22051569.1174                   22051568.0124
 -25026045.00448 -19488743.92646  21498827.0784                   21498823.7624
  17604909.83247                  13766612.28545  22747048.0864   22747045.0704
  -9019879.73448  -6988431.08645  22281052.3524                   22281052.0274
  -3044130.98448  -2338091.14846  21150157.7734                   21150155.2344
 -44251195.41048 -34468013.24645  22612431.7504                   22612427.1914
  28249111.88747                  22191503.55943  24564315.4144   24564313.6254
 11  8 18  3 18 30.0000000  0 10G12G18G30G26G05G15G25G29G02G21
 -22222909.12547 -17275426.41844  23210561.0084                   23210558.0394
  34357676.55546  26827196.84443  24436907.3914                   24436905.9924
  -6740299.98847  -5208054.34445  22686552.9384                   22686551.0124
   7117712.17647   5842898.51645  22021802.5944                   22021800.0634
 -25045545.52348 -19503939.13746  21495116.2034                   21495113.2304
  17424358.73047                  13625923.14845  22712689.9304   22712687.8754
  -9053936.79348  -7014969.07046  22274571.0084                   22274571.5124
  -3194117.91048  -2454964.06246  21121616.1644                   21121613.1024
 -44292163.03947 -34499936.12545  22604635.2814                   22604631.1024
  28102661.80146                  22077386.67243  24536446.7734   24536444.5514
 11  8 18  3 19  0.0000000  0 10G12G18G30G26G05G15G25G29G02G21
 -22219957.05147 -17273126.09444  23211122.9694                   23211120.6954
  34181728.27046  26690094.46543  24403424.3524                   24403424.1054
  -6759574.33647  -5223073.31245  22682884.7664                   22682883.3054
   6961737.56647   5721359.88345  21992121.6954                   21992119.0784
 -25064766.23048 -19518916.29746  21491458.7274                   21491455.3524
  17243993.13347                  13485378.55545  22678367.5234   22678364.9574
  -9087601.42247  -7041201.28145  22268165.1094                   22268165.2274
  -3343785.18448  -2571587.89846  21093135.4064                   21093132.6334
 -44333025.10947 -34531776.74245  22596859.7274                   22596855.1374
  27956190.63746                  21963253.37543  24508574.8834   24508572.1804
 11  8 18  3 19 30.0000000  0 10G12G18G30G26G05G15G25G29G02G21
 -22216894.13347 -17270739.41844  23211705.8054                   23211703.6844
  34005969.12146  26553139.44142  24369978.8204                   24369977.8524
  -6778550.24247  -5237859.74645  22679273.7974                   22679271.5554
   6806221.49247   5600178.54345  21962527.6024                   21962525.6564
 -25083708.84448 -19533676.78946  21487854.1804                   21487851.1644
  17063817.08647                  13344981.67245  22644081.5084   22644078.6094
  -9120875.32847  -7067129.01246  22261833.4614                   22261833.9104
  -3493129.52348  -2687960.09446  21064716.2194                   21064713.4884
 -44373780.64547 -34563534.34045  22589104.2344                   22589100.3404
  27809698.49246                  21849103.75043  24480698.1564   24480695.6804
